     2              OBSERVATION DATA    GPS                 RINEX VERSION / TYPE
ASHTORIN MIT 28 - OCT - 96 11:12                            PGM / RUN BY / DATE
                                                            COMMENT
CHINA LAKE 1996 P-Code Ashtech data EXPT #2                 COMMENT
Original Marker Name: GS01                                  COMMENT
Campaign Name: China Lake Nov 1996                          COMMENT
4-Character Station Name: GS01                              COMMENT
6-Character Antenna Code: ASHP12                            COMMENT
Vertical Measurement Point: TGP                             COMMENT
Vertical Offset to Rinex Ref. Point: 0.0640                 COMMENT
Radial Measurement Point: RRP                               COMMENT
Radial Offset to Rinex Ref. Point: 0.0000                   COMMENT
Antenna Height from Field Measurement: 0.2620 m             COMMENT
Additional Antenna Identification Info.:                    COMMENT
Ashtech L1/L2 Revision B (700228DE)                         COMMENT
Original XYZ: -2455781.9300 -4602727.8900 3658823.2300      COMMENT
New XYZ position is based on association with SCEC monument COMMENT
E1F2Q8O1+0011. Position of that monument is believed to be  COMMENT
valid to within 1 m horizontally; vertical accuracy         COMMENT
should be no worse than 3-times this value.                 COMMENT
                                                            COMMENT
Revised Rinex header created by UCSD GPS archive for        COMMENT
GSAC on 31-Jul-2000 (2000:213) 22:48:37 GMT                 COMMENT
For assistance contact dagnew@ucsd.edu                      COMMENT
or anderson@python.ucsd.edu                                 COMMENT
                                                            COMMENT
BLM CA 065-94-66 GO01                                       MARKER NAME
                                                            MARKER NUMBER
JDT US DEFENSE MAPPING AGENCY                               OBSERVER / AGENCY
940 ASHTECH Z-XII3 1E861D0                                  REC # / TYPE / VERS
351 ASHTECH GEODETIC P                                      ANT # / TYPE
 -2455779.4408 -4602672.6932  3658849.5063                  APPROX POSITION XYZ
        0.1980        0.0000        0.0000                  ANTENNA: DELTA H/E/N
     1     1     0                                          WAVELENGTH FACT L1/2
     7    L1    L2    C1    P1    P2    D1    D2            # / TYPES OF OBSERV
    30                                                      INTERVAL
  1996    10    10    15    27   30.000000                  TIME OF FIRST OBS
  1996    10    10    21    29   60.000000                  TIME OF LAST OBS
                                                            END OF HEADER
 96 10 10 15 27 30.0000000  0  7  6 22 23 26 17 28 21               -0.001459018
    126698.51519     95096.20458  28767392.052    28767390.9575   28767394.9215
      -902.960        -703.605
    -86253.61419    -63453.96757  31925923.024    31925920.5505   31925925.4275
      1013.918         790.066
   -170337.12219   -123513.36258  29794657.313    29794655.9985   29794660.2205
      2137.061        1665.242
    -77123.10919    -55754.91658  30593398.748    30593397.7975   30593401.6995
       890.716         694.064
   -140521.98819   -104289.97358  29231451.356    29231449.7005   29231454.0535
      1030.706         803.148
   -232197.88319   -160952.86717  30606077.205           0.0001          0.0001
      3041.741        2370.188
   -251585.91719   -176150.81856  32805991.484    32805989.9295   32805994.1795
      3324.258        2590.331
 96 10 10 15 28  0.0000000  0  7  6 22 23 26 17 28 21                0.000897843
    153806.272 9    116219.12848  20678154.148    20678153.0644   20678157.0104
      -903.141        -703.746
   -116679.250 9    -87162.26147  23825736.796    23825734.4654   23825739.2254
      1012.244         788.762
   -234540.125 9   -173541.66248  21688043.447    21688042.2524   21688046.4564
      2139.043        1666.787
   -103836.246 9    -76570.33047  22493918.560    22493918.1894   22493921.9604
       888.180         692.088
   -171610.005 9   -128514.40248  21131139.007    21131137.4644   21131141.8644
      1039.467         809.974
   -323659.232 9    -14946.44119  22494277.849           0.0001   22494281.9261
      3049.788        2376.458
   -351572.914 9   -254062.75546  24692567.735    24692566.4684   24692571.5454
      3335.012        2598.711
 96 10 10 15 28 30.0000000  0  8 30  6 22 23 26 17 28 21             0.000894217
    267144.06419    192859.59555  24666194.555           0.0005   24666198.2165
     -3311.819       -2580.638
    180922.585 9    137348.71448  20683314.160    20683313.1544   20683317.0964
      -904.621        -704.899
   -147012.911 9   -110798.87647  23819963.763    23819962.0444   23819966.9384
      1010.024         787.032
   -298736.745 9   -223564.98348  21675827.155    21675826.0144   21675830.3204
      2140.958        1668.279
   -130431.885 9    -97294.19448  22488857.800    22488857.1264   22488860.9744
       884.885         689.521
   -202915.644 9   -152908.39948  21125181.702    21125180.2054   21125184.5984
      1047.588         816.302
   -415261.912 9    -86325.155 9  22476846.933    22476845.1221   22476849.383
      3057.165        2382.206
   -451770.734 9   -332138.99046  24673501.125    24673499.7214   24673504.6094
      3344.795        2606.334
 96 10 10 15 29  0.0000000  0  8 30  6 22 23 26 17 28 21             0.000890321
    366261.678 8    270094.09446  24685056.190    24685055.2265   24685060.2364
     -3295.485       -2567.910
    208084.299 9    158513.68448  20688482.850    20688481.8724   20688485.8344
      -905.797        -705.816
   -177284.679 9   -134387.29347  23814203.240    23814201.6074   23814206.2674
      1008.587         785.912
   -363007.107 9   -273645.76948  21663596.910    21663595.7414   21663600.0874
      2144.209        1670.812
   -156932.839 9   -117944.27548  22483814.883    22483814.1894   22483818.0334
       882.214         687.439
   -234471.877 9   -177497.66148  21119176.709    21119175.2604   21119179.6784
      1056.484         823.234
   -507090.844 9   -157880.164 9  22459372.194    22459370.946    22459374.938
      3065.161        2388.437
   -552268.429 9   -410448.85546  24654377.038    24654375.7714   24654380.6384
      3355.501        2614.676
 96 10 10 15 29 30.0000000  0  8 30  6 22 23 26 17 28 21             0.000886057
    464870.044 9    346931.71746  24703820.897    24703820.1484   24703824.7464
     -3278.383       -2554.584
    235269.785 9    179697.17348  20693656.055    20693655.1364   20693659.0914
      -906.456        -706.329
   -207538.766 9   -157961.90547  23808446.201    23808444.4924   23808449.0414
      1008.358         785.734
   -427399.955 9   -323822.00148  21651343.447    21651342.2124   21651346.5444
      2148.693        1674.306
   -183362.868 9   -138539.09248  22478785.394    22478784.7804   22478788.5974
       879.965         685.687
   -266302.749 9   -202300.93248  21113119.507    21113118.0494   21113122.4994
      1065.672         830.394
   -599171.499 9   -229631.304 9  22441849.841    22441848.581    22441852.609
      3073.592        2395.007
   -653099.294 8   -489018.31346  24635189.408    24635188.2134   24635193.1684
      3366.603        2623.327
 96 10 10 15 30  0.0000000  0  8 30  6 22 23 26 17 28 21             0.000881457
    562956.039 9    423362.32346  24722486.115    24722485.4814   24722490.0304
     -3260.188       -2540.406
    262466.459 9    200889.38148  20698831.493    20698830.5184   20698834.4994
      -906.202        -706.131
   -237789.675 9   -181534.06347  23802689.656    23802687.9564   23802692.4864
      1008.678         785.983
   -491939.784 9   -374112.75348  21639062.044    21639060.7314   21639065.0614
      2154.259        1678.643
   -209741.951 9   -159094.21248  22473765.707    22473765.0394   22473768.8604
       879.111         685.022
   -298420.728 9   -227327.92148  21107007.721    21107006.2474   21107010.6634
      1075.984         838.429
   -691514.779 9   -301587.097 9  22424277.433    22424276.275    22424280.310
      3082.991        2402.331
   -754277.526 9   -567858.49246  24615935.866    24615934.6794   24615939.5504
      3378.978        2632.970
 96 10 10 15 30 30.0000000  0  8 30  6 22 23 26 17 28 21             0.000876545
    660500.669 8    499371.09546  24741048.407    24741047.7134   24741052.1804
     -3242.256       -2526.433
    289664.078 9    222082.32248  20704007.042    20704006.0854   20704010.0574
      -906.350        -706.247
   -268031.597 9   -205099.20347  23796934.740    23796933.1064   23796937.6494
      1007.878         785.359
   -556626.380 9   -424517.87648  21626752.646    21626751.2694   21626755.6264
      2158.574        1682.006
   -236083.949 9   -179620.43348  22468753.035    22468752.3424   22468756.1664
       877.497         683.764
   -330839.416 9   -252589.22848  21100838.756    21100837.2204   21100841.6034
      1085.802         846.079
   -784126.283 9   -373751.889 9  22406654.102    22406652.947    22406656.970
      3091.604        2409.042
   -855808.441 9   -646973.50446  24596615.199    24596613.8934   24596618.9094
      3390.155        2641.679
 96 10 10 15 31  0.0000000  0  8 30  6 22 23 26 17 28 21             0.000871330
    757492.051 9    574948.72946  24759505.300    24759504.4664   24759509.0644
     -3223.404       -2511.743
    316850.585 9    243266.60648  20709180.498    20709179.5214   20709183.4954
      -905.719        -705.755
   -298259.146 9   -228653.15846  23791182.642    23791180.9904   23791185.6364
      1007.555         785.108
   -621441.360 9   -475023.04148  21614418.738    21614417.3604   21614421.7434
      2162.578        1685.126
   -262379.263 9   -200110.27748  22463749.296    22463748.5614   22463752.3454
       875.818         682.456
   -363567.374 9   -278091.52648  21094610.857    21094609.3204   21094613.7124
      1096.383         854.324
   -877001.742 9   -446122.356 9  22388980.535    22388979.360    22388983.394
      3100.382        2415.882
   -957685.868 9   -726358.48046  24577228.481    24577227.1794   24577232.3124
      3402.030        2650.932
 96 10 10 15 31 30.0000000  0  8 30  6 22 23 26 17 28 21             0.000865810
    853922.175 9    650089.04946  24777855.521    24777854.6594   24777859.2184
     -3205.238       -2497.588
    344023.464 9    264440.27048  20714351.372    20714350.3894   20714354.3534
      -905.916        -705.909
   -328464.654 9   -252189.95347  23785434.562    23785432.9794   23785437.8244
      1006.001         783.897
   -686354.152 9   -525604.42748  21602066.240    21602064.8714   21602069.2484
      2164.860        1686.904
   -288609.288 9   -220549.24748  22458757.850    22458757.1534   22458760.9234
       872.903         680.184
   -396601.505 9   -303832.40748  21088324.655    21088323.1654   21088327.5654
      1105.845         861.697
   -970128.845 9   -518688.936 9  22371259.106    22371257.873    22371261.916
      3108.034        2421.845
  -1059907.561 9   -806011.68246  24557776.140    24557774.8594   24557780.2984
      3412.699        2659.246
 96 10 10 15 32  0.0000000  0  8 30  6 22 23 26 17 28 21             0.000859991
    949803.025 8    724801.36546  24796101.133    24796100.1824   24796104.9734
     -3186.951       -2483.338
    371211.345 9    285625.62248  20719525.087    20719524.0874   20719528.0624
      -906.763        -706.569
   -358617.417 9   -275685.62247  23779696.823    23779695.1874   23779700.0364
      1004.117         782.429
   -751327.546 9   -576233.03548  21589702.210    21589700.8284   21589705.1994
      2166.559        1688.228
   -314757.604 9   -240924.54348  22453781.979    22453781.2984   22453785.0654
       870.152         678.041
   -429911.290 9   -329788.07948  21081986.047    21081984.5574   21081988.9464
      1114.557         868.486
  -1063483.012 9   -591432.416 9  22353494.337    22353493.157    22353497.251
      3115.524        2427.681
  -1162448.452 9   -885913.66446  24538263.220    24538261.9484   24538267.4184
      3423.234        2667.455
 96 10 10 15 32 30.0000000  0  8 30  6 22 23 26 17 28 21             0.000853873
   1045153.230 9    799100.16746  24814245.568    24814244.6374   24814249.4544
     -3169.901       -2470.053
    398441.914 9    306844.23648  20724706.901    20724705.8934   20724709.8684
      -908.893        -708.228
   -388706.244 9   -299131.48046  23773971.068    23773969.4284   23773974.3264
      1001.639         780.498
   -816337.359 9   -626890.01248  21577331.234    21577329.8554   21577334.2034
      2167.254        1688.769
   -340806.610 9   -261222.46748  22448825.052    22448824.3254   22448828.1034
       866.175         674.942
   -463465.085 9   -355933.88648  21075601.009    21075599.5024   21075603.8534
      1122.163         874.413
  -1157050.563 9   -664342.180 9  22335689.024    22335687.869    22335691.950
      3122.134        2432.832
  -1265291.546 9   -966051.08646  24518692.909    24518691.5644   24518697.0804
      3432.843        2674.943
 96 10 10 15 33  0.0000000  0  8 30  6 22 23 26 17 28 21             0.000847471
   1139991.498 8    873000.04745  24832292.703    24832291.7834   24832296.6394
     -3152.815       -2456.739
    425743.448 9    328118.14948  20729902.225    20729901.2374   20729905.2034
      -911.481        -710.245
   -418719.424 9   -322518.37246  23768259.544    23768258.0914   23768263.0494
       998.957         778.408
   -881370.478 9   -677565.15448  21564955.839    21564954.4634   21564958.8234
      2168.037        1689.379
   -366722.212 9   -281416.42448  22443893.512    22443892.7734   22443896.5654
       861.255         671.108
   -497242.983 9   -382254.32548  21069173.254    21069171.8144   21069176.1284
      1129.426         880.072
  -1250813.235 9   -737404.005 9  22317846.543    22317845.436    22317849.497
      3128.460        2437.761
  -1368431.150 9  -1046419.59346  24499066.186    24499064.8414   24499070.2614
      3442.739        2682.654
 96 10 10 15 33 30.0000000  0  8 30  6 22 23 26 17 28 21             0.000840794
   1234327.129 8    946508.33946  24850244.216    24850243.4504   24850247.9314
     -3136.206       -2443.797
    453137.643 9    349464.26548  20735115.185    20735114.2044   20735118.1574
      -914.527        -712.618
   -448637.798 9   -345831.41146  23762566.299    23762564.7604   23762569.7744
       995.731         775.894
   -946413.044 9   -728247.65648  21552578.717    21552577.3084   21552581.6554
      2168.417        1689.676
   -392479.350 9   -301486.90948  22438992.020    22438991.3814   22438995.1654
       856.164         667.141
   -531222.821 9   -408732.10848  21062707.060    21062705.7034   21062709.9764
      1135.986         885.184
  -1344753.006 9   -810603.810 9  22299970.322    22299969.290    22299973.353
      3134.364        2442.361
  -1471847.199 9  -1127003.52946  24479386.799    24479385.4614   24479390.9044
      3451.646        2689.594
 96 10 10 15 34  0.0000000  0  8 30  6 22 23 26 17 28 21             0.000833854
   1328184.008 8   1019643.49346  24868104.772    24868103.9684   24868108.4184
     -3120.819       -2431.807
    480635.617 9    370891.24848  20740347.873    20740346.9054   20740350.8814
      -918.353        -715.600
   -478445.232 9   -369057.98346  23756894.035    23756892.5264   23756897.5754
       991.675         772.734
  -1011454.349 9   -778929.17648  21540201.742    21540200.3634   21540204.7014
      2167.871        1689.250
   -418069.792 9   -321427.49448  22434122.357    22434121.7214   22434125.4434
       850.011         662.346
   -565377.243 9   -435345.94448  21056207.617    21056206.3064   21056210.6254
      1141.237         889.276
  -1438851.559 9   -883927.333 9  22282064.039    22282062.994    22282067.016
      3139.127        2446.073
  -1575505.485 9  -1207776.18146  24459661.137    24459659.8364   24459665.4754
      3459.175        2695.461
 96 10 10 15 34 30.0000000  0  8 30  6 22 23 26 17 28 21             0.000826671
   1421584.181 8   1092422.80645  24885878.008    24885877.2664   24885881.9594
     -3105.648       -2419.985
    508239.698 9    392400.90748  20745600.829    20745599.8254   20745603.7914
      -921.835        -718.313
   -508128.397 9   -392187.72846  23751245.466    23751243.9744   23751248.9654
       987.326         769.345
  -1076478.951 9   -829597.68248  21527828.027    21527826.6154   21527830.9414
      2167.218        1688.741
   -443462.037 9   -341213.63848  22429290.504    22429289.7534   22429293.4294
       843.009         656.890
   -599691.174 9   -462084.06648  21049677.900    21049676.5874   21049680.8834
      1146.614         893.465
  -1533086.428 9   -957357.106 9  22264131.863    22264130.737    22264134.677
      3143.314        2449.336
  -1679382.529 9  -1288719.31746  24439894.079    24439892.7424   24439898.4524
      3466.097        2700.855
 96 10 10 15 35  0.0000000  0  8 30  6 22 23 26 17 28 21             0.000819263
   1514528.856 8   1164847.15745  24903564.607    24903564.0424   24903569.0784
     -3091.158       -2408.695
    535948.819 9    413992.41948  20750873.736    20750872.7324   20750876.6964
      -925.812        -721.412
   -537670.356 9   -415207.43446  23745624.216    23745622.6564   23745627.4504
       981.713         764.971
  -1141475.014 9   -880243.94948  21515459.724    21515458.2964   21515462.6554
      2165.526        1687.423
   -468638.931 9   -360831.97748  22424499.589    22424498.7474   22424502.4374
       835.365         650.934
   -634165.387 9   -488947.08448  21043117.752    21043116.3694   21043120.6464
      1151.270         897.094
  -1627438.447 9  -1030878.144 9  22246177.321    22246176.194    22246180.093
      3146.450        2451.779
  -1783456.811 9  -1369816.15446  24420089.441    24420088.0724   24420093.6604
      3471.762        2705.269
 96 10 10 15 35 30.0000000  0  8 30  6 22 23 26 17 28 21             0.000811639
   1607045.026 8   1236937.65745  24921169.786    24921169.3384   24921174.2184
     -3077.099       -2397.739
    563778.029 9    435677.50448  20756169.449    20756168.4854   20756172.4674
      -929.961        -724.645
   -567040.544 9   -438093.30546  23740035.079    23740033.5354   23740038.3424
       975.882         760.428
  -1206425.786 9   -930854.92648  21503100.020    21503098.6124   21503102.9644
      2164.149        1686.350
   -493601.655 9   -380283.42848  22419749.238    22419748.4924   22419752.1724
       828.458         645.552
   -668779.051 9   -515918.76248  21036531.035    21036529.6334   21036533.9074
      1155.809         900.630
  -1721883.972 9  -1104472.046 9  22228204.897    22228203.848    22228207.728
      3149.454        2454.120
  -1887691.595 9  -1451038.05646  24400254.177    24400252.9144   24400258.4204
      3476.879        2709.256
 96 10 10 15 36  0.0000000  0  8 30  6 22 23 26 17 28 21             0.000803814
   1699160.664 8   1308715.99545  24938698.718    24938698.3124   24938703.2664
     -3063.834       -2387.403
    591753.056 9    457476.21548  20761492.966    20761491.9844   20761495.9784
      -935.098        -728.648
   -596218.008 9   -460828.99947  23734482.818    23734481.3574   23734485.9234
       969.387         755.366
  -1271323.270 9   -981424.38548  21490750.472    21490749.0214   21490753.3724
      2162.321        1684.925
   -518332.812 9   -399554.43648  22415043.031    22415042.3294   22415045.9784
       820.489         639.342
   -703509.990 9   -542981.82648  21029921.993    21029920.5924   21029924.8384
      1159.799         903.739
  -1816396.307 9  -1178118.008 9  22210219.879    22210218.779    22210222.600
      3151.436        2455.664
  -1992063.043 9  -1532366.41246  24380393.022    24380391.7124   24380397.2644
      3481.456        2712.823
 96 10 10 15 36 30.0000000  0  8 30  6 22 23 26 17 28 21             0.000795797
   1790881.137 8   1380186.46145  24956152.820    24956152.2614   24956157.0644
     -3051.090       -2377.473
    619902.674 9    479410.96448  20766849.690    20766848.6974   20766852.6864
      -941.803        -733.872
   -625190.696 9   -483405.11946  23728969.672    23728968.1034   23728972.6344
       961.785         749.443
  -1336155.018 9  -1031942.61748  21478413.403    21478411.9604   21478416.3204
      2159.516        1682.740
   -542816.806 9   -418632.84048  22410383.809    22410383.1714   22410386.8334
       811.643         632.449
   -738355.880 9   -570134.46248  21023291.078    21023289.6554   21023293.8844
      1162.992         906.228
  -1910957.734 9  -1251802.233 9  22192225.449    22192224.347    22192228.151
      3152.372        2456.394
  -2096566.290 9  -1613797.47246  24360506.694    24360505.3544   24360511.0034
      3485.133        2715.688
 96 10 10 15 37  0.0000000  0  8 30  6 22 23 26 17 28 21             0.000787583
   1882211.056 8   1451352.55045  24973532.178    24973531.5514   24973536.6904
     -3038.051       -2367.312
    648248.676 9    501498.74248  20772243.759    20772242.7894   20772246.7714
      -948.290        -738.927
   -653943.613 9   -505809.99746  23723498.170    23723496.6364   23723501.2714
       954.749         743.960
  -1400903.728 9  -1082396.14448  21466092.167    21466090.6984   21466095.0554
      2156.888        1680.692
   -567052.583 9   -437517.83548  22405771.901    22405771.2734   22405774.9084
       803.685         626.248
   -773305.429 9   -597367.87348  21016640.414    21016638.9784   21016643.1894
      1166.592         909.033
  -2005559.018 9  -1325517.508 9  22174223.404    22174222.312    22174226.102
      3153.967        2457.637
  -2201196.248 9  -1695327.33046  24340596.348    24340595.0044   24340600.4004
      3489.966        2719.454
 96 10 10 15 37 30.0000000  0  8 30  6 22 23 26 17 28 21             0.000779174
   1973157.594 8   1522219.96145  24990838.640    24990838.0884   24990843.3024
     -3025.308       -2357.383
    676809.934 9    523754.25348  20777678.809    20777677.8314   20777681.8154
      -955.857        -744.824
   -682471.088 9   -528039.22346  23718069.582    23718068.0324   23718072.7084
       946.895         737.840
  -1465569.558 9  -1132785.09248  21453786.667    21453785.2184   21453789.5524
      2153.729        1678.230
   -591035.070 9   -456205.46048  22401208.186    22401207.5594   22401211.1984
       794.758         619.292
   -808345.548 9   -624671.85548  21009972.453    21009971.0774   21009975.3184
      1169.343         911.176
  -2100188.787 9  -1399254.975 9  22156215.985    22156214.890    22156218.627
      3154.414        2457.985
  -2305962.092 9  -1776963.02047  24320660.292    24320658.9404   24320664.2044
      3494.237        2722.782
 96 10 10 15 38  0.0000000  0  8 30  6 22 23 26 17 28 21             0.000770612
   2063716.078 8   1592784.93745  25008071.395    25008070.7774   25008075.9714
     -3012.040       -2347.044
    705589.055 9    546179.53048  20783155.303    20783154.3504   20783158.3174
      -962.953        -750.353
   -710766.114 9   -550087.31246  23712685.291    23712683.7084   23712688.3504
       939.163         731.815
  -1530124.136 9  -1183087.34448  21441502.343    21441500.8704   21441505.2194
      2149.555        1674.978
   -614739.722 9   -474676.59948  22396697.381    22396696.7114   22396700.3564
       785.499         612.077
   -843473.421 9   -652044.21748  21003287.859    21003286.4884   21003290.7364
      1172.394         913.554
  -2194831.845 9  -1473002.798 9  22138206.086    22138204.942    22138208.649
      3154.896        2458.361
  -2410866.962 9  -1858707.02347  24300697.729    24300696.2994   24300701.5034
      3499.133        2726.597
 96 10 10 15 38 30.0000000  0  8 30  6 22 23 26 17 28 21             0.000761822
   2153888.814 8   1663049.38045  25025230.660    25025230.0714   25025235.1184
     -2999.775       -2337.487
    734604.324 9    568788.81448  20788676.817    20788675.8214   20788679.7514
      -971.402        -756.937
   -738806.000 9   -571936.60147  23707349.375    23707347.8744   23707352.7014
       929.993         724.670
  -1594530.752 9  -1233274.31248  21429246.143    21429244.6884   21429249.0614
      2144.113        1670.737
   -638149.267 9   -492917.78048  22392242.759    22392242.0154   22392245.6514
       774.797         603.738
   -878675.883 9   -679474.70448  20996589.110    20996587.6874   20996591.9544
      1174.247         914.998
  -2289468.317 9  -1546745.505 9  22120197.435    22120196.240    22120199.910
      3154.045        2457.697
  -2515897.803 9  -1940549.26046  24280711.052    24280709.6774   24280714.7764
      3502.683        2729.363
 96 10 10 15 39  0.0000000  0  8 30  6 22 23 26 17 28 21             0.000752895
   2243699.561 8   1733031.71945  25042321.141    25042320.3984   25042325.8614
     -2987.303       -2327.769
    763868.848 9    591592.32048  20794245.656    20794244.6694   20794248.6424
      -979.227        -763.034
   -766574.673 9   -593574.53246  23702065.398    23702063.7914   23702068.3994
       921.597         718.128
  -1658770.195 9  -1283331.00848  21417021.798    21417020.3694   21417024.7424
      2139.013        1666.763
   -661227.736 9   -510900.98748  22387851.119    22387850.3164   22387853.9514
       764.106         595.407
   -913934.106 9   -706948.63548  20989879.670    20989878.2904   20989882.5694
      1176.705         916.913
  -2384078.183 9  -1620467.475 9  22102193.834    22102192.601    22102196.229
      3153.533        2457.298
  -2621030.694 9  -2022470.93746  24260704.809    24260703.3864   24260708.6574
      3506.422        2732.277
 96 10 10 15 39 30.0000000  0  8 30  6 22 23 26 17 28 21             0.000743810
   2333122.382 9   1802711.81945  25059337.767    25059337.0734   25059342.4594
     -2974.500       -2317.792
    793344.098 9    614560.03248  20799854.665    20799853.6384   20799857.6384
      -985.865        -768.206
   -794113.917 9   -615033.69347  23696824.820    23696823.2734   23696827.9704
       913.990         712.200
  -1722885.866 9  -1333291.25448  21404821.035    21404819.5674   21404823.9114
      2134.866        1663.532
   -684005.316 9   -528649.72948  22383516.689    22383515.8814   22383519.5424
       754.097         587.608
   -949289.807 9   -734498.52648  20983151.767    20983150.3564   20983154.6044
      1180.076         919.540
  -2478691.210 9  -1694191.896 9  22084189.466    22084188.325    22084191.967
      3153.732        2457.454
  -2726279.715 9  -2104483.18646  24240676.572    24240675.1634   24240680.3444
      3509.778        2734.892
 96 10 10 15 40  0.0000000  0  8 30  6 22 23 26 17 28 21             0.000734586
   2422193.400 8   1872117.75145  25076287.728    25076286.8864   25076292.0824
     -2963.716       -2309.389
    823035.641 9    637696.28248  20805504.839    20805503.7844   20805507.7994
      -993.848        -774.427
   -821399.032 9   -636294.84747  23691632.844    23691631.1654   23691635.7504
       904.849         705.077
  -1786840.438 9  -1383125.97448  21392650.888    21392649.4224   21392653.7644
      2128.871        1658.861
   -706453.690 9   -546141.95248  22379244.864    22379244.0754   22379247.7114
       742.514         578.582
   -984714.488 9   -762102.17148  20976410.702    20976409.2444   20976413.5164
      1181.396         920.568
  -2573284.404 9  -1767900.860 9  22066188.923    22066187.811    22066191.467
      3152.385        2456.404
  -2831597.470 9  -2186548.95446  24220635.092    24220633.7294   24220638.9654
      3511.279        2736.062
 96 10 10 15 40 30.0000000  0  8 30  6 22 23 26 17 28 21             0.000725201
   2510941.416 8   1941272.01645  25093175.926    25093175.1534   25093180.3054
     -2953.263       -2301.244
    852964.776 9    661017.67148  20811200.166    20811199.1354   20811203.1714
     -1001.662        -780.516
   -848420.912 9   -657350.85647  23686490.902    23686489.2834   23686493.8254
       896.236         698.366
  -1850636.481 9  -1432837.16048  21380510.899    21380509.4494   21380513.7964
      2123.830        1654.932
   -728571.685 9   -563376.74648  22375035.863    22375035.1414   22375038.7914
       731.656         570.122
  -1020178.400 9   -789736.38548  20969662.052    20969660.6644   20969664.9554
      1182.498         921.427
  -2667848.167 9  -1841586.890 9  22048193.984    22048192.910    22048196.593
      3151.468        2455.689
  -2936968.002 9  -2268655.80046  24200583.557    24200582.2754   24200587.5714
      3512.992        2737.396
 96 10 10 15 41  0.0000000  0  8 30  6 22 23 26 17 28 21             0.000715645
   2599388.890 8   2010192.06545  25110006.953    25110006.0744   25110011.3424
     -2942.698       -2293.011
    883128.657 9    684521.97548  20816940.189    20816939.1784   20816943.2184
     -1008.990        -786.226
   -875176.020 9   -678198.99247  23681399.732    23681398.1254   23681402.5254
       887.667         691.688
  -1914264.903 9  -1482417.73848  21368402.787    21368401.3574   21368405.7024
      2118.441        1650.733
   -750360.181 9   -580354.78748  22370889.590    22370888.9124   22370892.5884
       721.419         562.145
  -1055666.762 9   -817389.65048  20962908.795    20962907.4484   20962911.7624
      1183.726         922.384
  -2762373.791 9  -1915243.225 9  22030206.338    22030205.283    22030208.961
      3150.569        2454.989
  -3042378.936 9  -2350794.14146  24180524.436    24180523.1834   24180528.5464
      3514.854        2738.847
 96 10 10 15 41 30.0000000  0  8 30  6 22 23 26 17 28 21             0.000705913
   2687534.854 8   2078877.19145  25126780.377    25126779.6364   25126785.0924
     -2932.923       -2285.395
    913534.698 9    708214.97948  20822726.287    20822725.2684   20822729.3024
     -1017.484        -792.845
   -901643.794 9   -698823.23047  23676363.154    23676361.5424   23676366.0454
       877.360         683.657
  -1977712.803 9  -1531857.64748  21356329.049    21356327.6364   21356331.9844
      2111.890        1645.629
   -771825.605 9   -597081.08048  22366804.863    22366804.1894   22366807.8924
       710.187         553.392
  -1091161.946 9   -845048.23548  20956154.309    20956152.9524   20956157.2654
      1183.189         921.965
  -2856848.525 9  -1988859.885 9  22012228.342    22012227.324    22012231.027
      3148.348        2453.258
  -3147831.479 9  -2432964.99346  24160457.519    24160456.2814   24160461.4084
      3516.024        2739.759
 96 10 10 15 42  0.0000000  0  8 30  6 22 23 26 17 28 21             0.000696010
   2775358.422 8   2147311.07945  25143492.825    25143491.8854   25143497.3884
     -2921.707       -2276.655
    944189.206 9    732101.59548  20828559.660    20828558.6464   20828562.7204
     -1026.244        -799.671
   -927810.350 9   -719212.78147  23671383.757    23671382.1334   23671386.7744
       867.324         675.837
  -2040970.674 9  -1581149.47948  21344291.517    21344290.0714   21344294.4464
      2105.615        1640.739
   -792959.104 9   -613548.74248  22362783.381    22362782.6084   22362786.3044
       698.832         544.544
  -1126651.600 9   -872702.50748  20949400.893    20949399.5064   20949403.7784
      1183.114         921.907
  -2951266.096 9  -2062432.008 9  21994261.230    21994260.253    21994263.965
      3146.347        2451.699
  -3253346.059 9  -2515184.08046  24140378.550    24140377.1504   24140382.6624
      3518.436        2741.638
 96 10 10 15 42 30.0000000  0  8 30  6 22 23 26 17 28 21             0.000685954
   2862839.692 8   2215478.27945  25160139.916    25160138.9184   25160144.5884
     -2909.824       -2267.395
    975125.145 9    756207.50748  20834446.563    20834445.5774   20834449.6774
     -1035.694        -807.034
   -953671.032 9   -739363.97847  23666462.575    23666460.9604   23666465.3924
       857.191         667.941
  -2104036.004 9  -1630291.28148  21332290.545    21332289.1374   21332293.4994
      2099.055        1635.627
   -813737.936 9   -629740.03748  22358829.325    22358828.5084   22358832.2114
       686.784         535.156
  -1162136.701 9   -900353.23048  20942648.315    20942646.9174   20942651.2104
      1183.091         921.889
  -3045613.308 9  -2135949.308 9  21976307.605    21976306.594    21976310.327
      3143.821        2449.731
  -3358918.492 9  -2597448.29646  24120288.622    24120287.3964   24120292.8814
      3519.854        2742.743
 96 10 10 15 43  0.0000000  0  8 30  6 22 23 26 17 28 21             0.000675762
   2949939.990 8   2283348.57645  25176714.540    25176713.7454   25176719.3064
     -2896.703       -2257.171
   1006333.432 9    780525.64148  20840385.286    20840384.3264   20840388.4394
     -1044.857        -814.174
   -979237.642 9   -759286.03247  23661597.432    23661595.8584   23661600.3364
       847.201         660.157
  -2166912.555 9  -1679285.98248  21320325.546    21320324.1564   21320328.4634
      2092.891        1630.824
   -834154.967 9   -645649.41748  22354944.117    22354943.2774   22354947.0044
       674.350         525.467
  -1197641.515 9   -928019.31748  20935891.987    20935890.5874   20935894.8644
      1183.859         922.488
  -3139890.654 9  -2209412.167 9  21958367.205    21958366.220    21958369.949
      3141.329        2447.789
  -3464534.867 9  -2679746.76047  24100190.599    24100189.3694   24100194.8844
      3521.320        2743.886
 96 10 10 15 43 30.0000000  0  8 30  6 22 23 26 17 28 21             0.000665448
   3036646.655 8   2350912.14045  25193214.309    25193213.5764   25193219.1534
     -2883.100       -2246.571
   1037823.366 9    805063.23548  20846377.602    20846376.6884   20846380.8214
     -1053.805        -821.147
  -1004502.383 9   -778972.86346  23656789.768    23656788.0984   23656792.5164
       837.842         652.864
  -2229610.704 9  -1728141.67048  21308394.546    21308393.1494   21308397.4314
      2087.501        1626.624
   -854198.129 9   -661267.46548  22351130.003    22351129.2174   22351132.9204
       662.432         516.181
  -1233167.931 9   -955702.23148  20929131.488    20929130.1074   20929134.3774
      1185.250         923.571
  -3234088.645 9  -2282813.188 9  21940441.963    21940440.983    21940444.674
      3139.132        2446.077
  -3570189.411 9  -2762074.93247  24080085.324    24080084.0994   24080089.6794
      3522.857        2745.083
 96 10 10 15 44  0.0000000  0  8 30  6 22 23 26 17 28 21             0.000655018
   3122955.103 8   2418165.42345  25209638.323    25209637.6664   25209643.0614
     -2870.442       -2236.708
   1069593.090 9    829818.84948  20852423.235    20852422.2804   20852426.4264
     -1063.679        -828.841
  -1029472.567 9   -798430.17447  23652037.930    23652036.4174   23652040.9404
       827.479         644.789
  -2292130.396 9  -1776858.29848  21296497.468    21296496.0534   21296500.3154
      2080.949        1621.519
   -873871.267 9   -676597.18548  22347386.354    22347385.5654   22347389.2404
       649.689         506.251
  -1268731.066 9   -983413.76448  20922364.039    20922362.6664   20922366.9274
      1186.193         924.306
  -3328205.146 9  -2356150.713 9  21922532.186    21922531.182    21922534.913
      3135.825        2443.500
  -3675873.456 9  -2844426.09646  24059974.314    24059973.0494   24059978.5444
      3523.158        2745.318
 96 10 10 15 44 30.0000000  0  8 30  6 22 23 26 17 28 21             0.000644462
   3208874.229 8   2485115.32845  25225988.482    25225987.8084   25225993.1014
     -2857.461       -2226.593
   1101638.630 9    854789.38748  20858521.319    20858520.3934   20858524.5234
     -1072.395        -835.632
  -1054154.890 9   -817663.16947  23647341.259    23647339.6364   23647344.0494
       818.082         637.466
  -2354467.473 9  -1825432.63348  21284635.096    21284633.6904   21284637.9684
      2074.968        1616.858
   -893189.481 9   -691650.34548  22343710.177    22343709.4614   22343713.1364
       638.436         497.483
  -1304334.468 9  -1011156.67348  20915588.976    20915587.5834   20915591.8084
      1187.457         925.291
  -3422235.700 9  -2429421.266 9  21904638.767    21904637.779    21904641.492
      3132.965        2441.271
  -3781571.532 9  -2926788.24546  24039860.715    24039859.5094   24039864.7624
      3523.524        2745.603
 96 10 10 15 45  0.0000000  0  8 30  6 22 23 26 17 28 21             0.000633771
   3294424.219 8   2551777.60145  25242268.019    25242267.4704   25242273.0214
     -2845.526       -2217.293
   1133950.335 9    879967.32848  20864670.070    20864669.1224   20864673.2374
     -1081.215        -842.505
  -1078536.451 9   -836661.81847  23642701.621    23642700.1074   23642704.3244
       807.843         629.488
  -2416620.434 9  -1873863.49848  21272807.837    21272806.4364   21272810.6754
      2069.057        1612.252
   -912165.392 9   -706436.76248  22340099.176    22340098.4814   22340102.1744
       627.026         488.592
  -1339966.173 9  -1038921.63248  20908808.526    20908807.1264   20908811.3444
      1188.360         925.995
  -3516170.061 9  -2502616.868 9  21886763.746    21886762.696    21886766.353
      3129.789        2438.797
  -3887281.373 9  -3009159.59847  24019744.914    24019743.7244   24019748.6534
      3524.492        2746.357
 96 10 10 15 45 30.0000000  0  8 30  6 22 23 26 17 28 21             0.000622942
   3379627.763 8   2618169.91345  25258481.404    25258480.8684   25258486.7954
     -2834.910       -2209.021
   1166531.965 9    905355.59848  20870870.089    20870869.1874   20870873.3314
     -1091.159        -850.254
  -1102613.610 9   -855423.23647  23638120.116    23638118.5494   23638122.6044
       797.081         621.102
  -2478595.626 9  -1922155.84348  21261014.421    21261013.0114   21261017.2294
      2062.211        1606.918
   -930797.466 9   -720955.26248  22336553.530    22336552.9124   22336556.6364
       614.760         479.034
  -1375617.062 9  -1066701.55048  20902024.381    20902022.9994   20902027.2344
      1188.046         925.750
  -3610006.550 9  -2575736.209 9  21868907.263    21868906.227    21868909.814
      3125.694        2435.606
  -3993025.254 9  -3091557.41147  23999622.658    23999621.4544   23999626.4164
      3524.798        2746.596
 96 10 10 15 46  0.0000000  0  8 30  6 22 23 26 17 28 21             0.000611971
   3464494.853 8   2684300.06445  25274631.192    25274630.7274   25274636.4724
     -2823.191       -2199.889
   1199387.366 9    930957.19648  20877122.277    20877121.3794   20877125.5144
     -1099.364        -856.647
  -1126387.325 9   -873948.23847  23633596.337    23633594.6824   23633598.5704
       787.798         613.869
  -2540385.294 9  -1970303.62748  21249256.231    21249254.8244   21249259.0674
      2056.972        1602.835
   -949075.910 9   -735198.19948  22333075.252    22333074.6634   22333078.3624
       603.535         470.287
  -1411273.924 9  -1094486.11748  20895239.104    20895237.7314   20895241.9644
      1188.839         926.368
  -3703740.303 9  -2648775.493 9  21851070.409    21851069.303    21851072.885
      3123.075        2433.565
  -4098798.910 9  -3173978.34946  23979494.444    23979493.2214   23979498.4644
      3526.531        2747.946
 96 10 10 15 46 30.0000000  0  8 30  6 22 23 26 17 28 21             0.000600848
   3549046.220 8   2750184.19145  25290720.928    25290720.4664   25290725.9784
     -2813.413       -2192.270
   1232517.080 9    956772.54648  20883426.682    20883425.7674   20883429.9134
     -1109.083        -864.221
  -1149858.827 9   -892237.75247  23629129.488    23629128.0294   23629132.2464
       777.090         605.525
  -2601988.357 9  -2018306.00248  21237533.482    21237532.1254   21237536.3884
      2050.162        1597.529
   -966979.559 9   -749149.08648  22329668.313    22329667.7134   22329671.3954
       590.157         459.863
  -1446913.627 9  -1122257.30848  20888457.039    20888455.7084   20888459.9594
      1187.435         925.274
  -3797365.732 9  -2721730.363 9  21833254.012    21833252.937    21833256.613
      3118.771        2430.211
  -4204587.411 9  -3256410.95147  23959363.545    23959362.3264   23959367.4724
      3526.314        2747.777
 96 10 10 15 47  0.0000000  0  8 30  6 22 23 26 17 28 21             0.000589596
   3633289.846 8   2815828.47345  25306751.907    25306751.4564   25306756.9224
     -2802.340       -2183.642
   1265924.400 9    982804.21548  20889783.914    20889782.9764   20889787.0994
     -1117.636        -870.885
  -1173018.661 9   -910284.40447  23624722.561    23624721.0004   23624724.9484
       767.407         597.979
  -2663406.241 9  -2066164.08548  21225846.050    21225844.6974   21225848.9434
      2044.633        1593.221
   -984486.645 9   -762790.96748  22326336.824    22326336.2264   22326339.8804
       577.382         449.908
  -1482532.143 9  -1150011.99248  20881679.100    20881677.7304   20881681.9814
      1187.560         925.371
  -3890875.987 9  -2794595.487 9  21815459.581    21815458.537    21815462.214
      3115.661        2427.788
  -4310399.564 9  -3338861.98247  23939228.273    23939227.0194   23939232.0774
      3528.123        2749.187
 96 10 10 15 47 30.0000000  0  8 30  6 22 23 26 17 28 21             0.000578222
   3717228.225 8   2881234.97045  25322724.891    25322724.4874   25322730.0224
     -2792.770       -2176.184
   1299611.562 9   1009053.93648  20896194.394    20896193.4724   20896197.5854
     -1127.560        -878.618
  -1195868.370 9   -928089.38047  23620374.104    23620372.5964   23620377.0154
       756.430         589.426
  -2724622.017 9  -2113864.67848  21214197.096    21214195.7184   21214199.9464
      2036.891        1587.188
  -1001584.902 9   -776114.27748  22323083.172    22323082.6044   22323086.1804
       563.195         438.853
  -1518132.783 9  -1177752.74548  20874904.544    20874903.1744   20874907.4524
      1186.349         924.428
  -3984265.021 9  -2867366.155 9  21797688.296    21797687.216    21797690.880
      3110.824        2424.019
  -4416238.529 9  -3421333.88847  23919087.825    23919086.5924   23919091.7304
      3528.272        2749.303
 96 10 10 15 48  0.0000000  0  8 30  6 22 23 26 17 28 21             0.000566724
   3800855.289 8   2946398.84545  25338638.736    25338638.3194   25338643.8674
     -2783.414       -2168.894
   1333569.490 9   1035514.64748  20902656.424    20902655.4954   20902659.6134
     -1137.470        -886.340
  -1218406.531 9   -945651.59346  23616085.117    23616083.5584   23616088.2244
       744.979         580.503
  -2785620.589 9  -2161396.01948  21202589.457    21202588.0964   21202592.2884
      2028.578        1580.710
  -1018276.689 9   -789120.84648  22319906.911    22319906.2754   22319909.8514
       548.515         427.414
  -1553712.656 9  -1205477.31848  20868133.965    20868132.5654   20868136.8034
      1184.652         923.105
  -4077525.664 9  -2940036.782 9  21779941.384    21779940.288    21779943.988
      3105.439        2419.823
  -4522088.991 9  -3503814.74647  23898945.116    23898943.9204   23898949.1404
      3527.242        2748.500
 96 10 10 15 48 30.0000000  0  8 30  6 22 23 26 17 28 21             0.000555110
   3884159.738 8   3011311.31445  25354491.143    25354490.6814   25354496.2434
     -2771.154       -2159.341
   1367804.494 9   1062191.26248  20909171.190    20909170.2134   20909174.3634
     -1146.027        -893.008
  -1240626.861 9   -962966.20947  23611856.415    23611854.9604   23611859.8534
       735.178         572.866
  -2846391.999 9  -2208750.35648  21191025.048    21191023.6854   21191027.8604
      2021.924        1575.525
  -1034556.972 9   -801806.76648  22316808.851    22316808.2694   22316811.7864
       535.831         417.531
  -1589273.469 9  -1233187.04048  20861366.879    20861365.5634   20861369.8184
      1185.137         923.483
  -4170651.265 9  -3012602.178 9  21762220.136    21762219.080    21762222.811
      3101.840        2417.018
  -4627938.038 9  -3586294.44847  23878802.690    23878801.4784   23878806.8454
      3528.401        2749.403
 96 10 10 15 49  0.0000000  0  8 30  6 22 23 26 17 28 21             0.000543392
   3967114.395 8   3075951.22345  25370276.930    25370276.4614   25370282.0844
     -2758.441       -2149.435
   1402332.200 9   1089095.95548  20915741.595    20915740.6414   20915744.8044
     -1155.160        -900.125
  -1262523.822 9   -980028.82347  23607689.340    23607687.8374   23607693.2314
       725.357         565.213
  -2906939.208 9  -2255929.99348  21179503.274    21179501.9314   21179506.0934
      2015.219        1570.301
  -1050430.698 9   -814175.88348  22313788.146    22313787.5984   22313791.1024
       523.140         407.642
  -1624828.167 9  -1260892.00048  20854601.030    20854599.7124   20854603.9884
      1185.780         923.984
  -4263639.329 9  -3085060.402 9  21744525.220    21744524.080    21744527.810
      3098.054        2414.068
  -4733792.790 9  -3668778.69847  23858659.360    23858658.1304   23858663.2874
      3529.070        2749.925
 96 10 10 15 49 30.0000000  0  8 30  6 22 23 26 17 28 21             0.000531566
   4049709.527 8   3140311.01145  25385994.475    25385993.6474   25385999.5304
     -2746.525       -2140.149
   1437165.240 9   1116238.57648  20922370.067    20922369.1454   20922373.3434
     -1165.727        -908.359
  -1284098.253 9   -996840.06247  23603583.970    23603582.4934   23603587.8944
       714.165         556.492
  -2967252.677 9  -2302927.48748  21168026.028    21168024.6474   21168028.8424
      2007.204        1564.055
  -1065894.556 9   -826225.61248  22310845.493    22310844.9194   22310848.4454
       509.224         396.798
  -1660366.771 9  -1288584.41648  20847838.298    20847836.9584   20847841.1974
      1184.685         923.131
  -4356483.376 9  -3157406.411 9  21726857.572    21726856.463    21726860.155
      3092.879        2410.035
  -4839621.592 9  -3751242.68046  23838520.726    23838519.4964   23838524.5884
      3527.421        2748.640
 96 10 10 15 50  0.0000000  0  8 30  6 22 23 26 17 28 21             0.000519632
   4131933.562 8   3204381.64945  25401641.377    25401640.6524   25401646.2854
     -2734.277       -2130.605
   1472311.998 9   1143625.64848  20929058.342    20929057.4064   20929061.5774
     -1176.633        -916.857
  -1305337.883 9  -1013390.46647  23599542.340    23599540.9014   23599546.1014
       702.615         547.492
  -3027337.658 9  -2349746.94548  21156592.225    21156590.8604   21156595.0174
      1999.399        1557.973
  -1080943.792 9   -837952.25948  22307981.748    22307981.1524   22307984.6944
       495.082         385.778
  -1695872.852 9  -1316251.49448  20841081.775    20841080.4034   20841084.6304
      1183.374         922.110
  -4449177.725 9  -3229635.765 9  21709218.361    21709217.312    21709220.974
      3087.654        2405.964
  -4945390.906 9  -3833660.29447  23818393.373    23818392.2264   23818397.4374
      3524.909        2746.682
 96 10 10 15 50 30.0000000  0  8 30  6 22 23 26 17 28 21             0.000507606
   4213788.094 8   3268164.26945  25417217.989    25417217.0814   25417222.7554
     -2722.722       -2121.602
   1507794.082 9   1171274.00948  20935810.440    20935809.4614   20935813.6144
     -1188.605        -926.186
  -1326227.819 9  -1029668.33247  23595567.434    23595565.9054   23595570.9984
       690.249         537.856
  -3087188.501 9  -2396383.95348  21145202.961    21145201.5974   21145205.7824
      1990.911        1551.359
  -1095574.410 9   -849352.71848  22305197.629    22305196.9894   22305200.5274
       480.484         374.403
  -1731344.228 9  -1343891.52348  20834331.755    20834330.4294   20834334.6724
      1181.541         920.681
  -4541716.884 9  -3301744.192 9  21691608.710    21691607.694    21691611.388
      3081.768        2401.378
  -5051102.231 9  -3916032.71447  23798277.347    23798276.1594   23798281.3954
      3522.792        2745.033
 96 10 10 15 51  0.0000000  0  8 30  6 22 23 26 17 28 21             0.000495479
   4295282.182 8   3331666.10745  25432725.769    25432725.0144   25432730.6064
     -2710.502       -2112.079
   1543607.395 9   1199180.47648  20942625.476    20942624.4944   20942628.6934
     -1198.860        -934.177
  -1346774.526 9  -1045678.78247  23591657.904    23591656.3334   23591661.0714
       679.318         529.339
  -3146804.254 9  -2442837.77448  21133858.435    21133857.0994   21133861.2924
      1983.287        1545.418
  -1109790.975 9   -860430.53248  22302492.259    22302491.6504   22302495.1814
       467.242         364.085
  -1766777.746 9  -1371502.05648  20827588.975    20827587.6584   20827591.8854
      1180.427         919.813
  -4634096.510 9  -3373728.315 9  21674029.499    21674028.444    21674032.096
      3076.744        2397.463
  -5156768.029 9  -3998369.67447  23778169.764    23778168.5184   23778173.7844
      3521.589        2744.095
 96 10 10 15 51 30.0000000  0  8 30  6 22 23 26 17 28 21             0.000483229
   4376426.446 8   3394895.34445  25448167.192    25448166.3974   25448172.1094
     -2698.610       -2102.813
   1579726.737 9   1227325.40348  20949498.755    20949497.7814   20949501.9844
     -1208.368        -941.585
  -1366974.857 9  -1061419.30647  23587813.894    23587812.3234   23587817.2394
       668.033         520.545
  -3206172.365 9  -2489098.62948  21122561.089    21122559.7464   21122563.9494
      1975.296        1539.192
  -1123602.501 9   -871192.73648  22299864.040    22299863.4104   22299866.9454
       454.284         353.988
  -1802158.714 9  -1399071.63748  20820856.223    20820854.9084   20820859.0994
      1179.003         918.704
  -4726312.430 9  -3445584.870 9  21656481.360    21656480.333    21656484.014
      3071.647        2393.491
  -5262396.129 9  -4080677.28647  23758069.438    23758068.2164   23758073.3654
      3521.195        2743.788
 96 10 10 15 52  0.0000000  0  8 30  6 22 23 26 17 28 21             0.000470861
   4457238.361 8   3457865.57445  25463545.231    25463544.3424   25463550.1264
     -2687.840       -2094.421
   1616144.376 9   1255702.77248  20956428.823    20956427.8544   20956432.0424
     -1218.403        -949.405
  -1386824.285 9  -1076886.44546  23584036.831    23584035.1794   23584039.9504
       656.523         511.576
  -3265286.250 9  -2535161.38548  21111312.084    21111310.7414   21111314.9384
      1966.763        1532.543
  -1137014.100 9   -881643.31248  22297311.935    22297311.2644   22297314.7934
       440.898         343.557
  -1837490.737 9  -1426603.08748  20814132.759    20814131.4314   20814135.6324
      1177.600         917.610
  -4818361.510 9  -3517311.419 9  21638964.934    21638963.912    21638967.705
      3066.073        2389.148
  -5368010.543 9  -4162974.18647  23737971.645    23737970.4444   23737975.6414
      3521.042        2743.669
 96 10 10 15 52 30.0000000  0  7  6 22 23 26 17 28 21                0.000458370
   1652865.075 9   1284316.29948  20963416.569    20963415.5954   20963419.7964
     -1229.030        -957.686
  -1406330.681 9  -1092086.25447  23580324.586    23580323.0484   23580327.6154
       644.407         502.135
  -3324136.845 9  -2581018.97848  21100113.210    21100111.8574   21100116.0234
      1957.100        1525.013
  -1150015.771 9   -891774.45848  22294837.858    22294837.1514   22294840.6334
       426.314         332.193
  -1872772.441 9  -1454095.31948  20807418.862    20807417.5314   20807421.7514
      1174.943         915.540
  -4910234.241 9  -3588900.547 9  21621482.156    21621481.139    21621484.910
      3059.188        2383.783
  -5473631.438 9  -4245276.19047  23717872.743    23717871.5004   23717876.6174
      3520.572        2743.303
 96 10 10 15 53  0.0000000  0  7  6 22 23 26 17 28 21                0.000445749
   1689863.079 9   1313145.89648  20970457.034    20970456.1164   20970460.2874
     -1238.547        -965.102
  -1425500.829 9  -1107024.05447  23576676.882    23576675.2834   23576679.9844
       632.526         492.877
  -3382728.531 9  -2626674.82248  21088963.575    21088962.2284   21088966.3794
      1948.142        1518.033
  -1162611.404 9   -901589.21748  22292441.057    22292440.3014   22292443.7314
       412.416         321.363
  -1908004.562 9  -1481548.91448  20800714.459    20800713.1014   20800717.3164
      1172.856         913.914
  -5001927.503 9  -3660349.836 9  21604033.530    21604032.508    21604036.252
      3052.711        2378.736
  -5579250.359 9  -4327576.56147  23697773.801    23697772.6024   23697778.1244
      3519.595        2742.542
 96 10 10 15 53 30.0000000  0  7  6 22 23 26 17 28 21                0.000433017
   1727143.955 9   1342195.91448  20977551.336    20977550.4484   20977554.5984
     -1246.878        -971.593
  -1444318.256 9  -1121686.98847  23573096.007    23573094.5194   23573099.0264
       622.184         484.819
  -3441070.402 9  -2672136.00948  21077861.468    21077860.1244   21077864.3104
      1941.424        1512.798
  -1174791.535 9   -911080.20948  22290123.236    22290122.4934   22290125.9054
       399.674         311.434
  -1943187.484 9  -1508964.18048  20794019.403    20794018.0484   20794022.2444
      1172.910         913.956
  -5093436.347 9  -3731655.424 9  21586619.992    21586618.959    21586622.714
      3047.931        2375.011
  -5684843.431 9  -4409856.87247  23677679.974    23677678.8464   23677684.2074
      3519.932        2742.804
 96 10 10 15 54  0.0000000  0  7  6 22 23 26 17 28 21                0.000420203
   1764732.296 9   1371485.52148  20984704.221    20984703.2954   20984707.4194
     -1257.800        -980.104
  -1462784.664 9  -1136076.45047  23569581.971    23569580.4524   23569585.0474
       610.143         475.436
  -3499172.377 9  -2717410.26048  21066804.985    21066803.6784   21066807.8704
      1933.294        1506.463
  -1186540.725 9   -920235.39948  22287887.349    22287886.7034   22287890.0764
       384.769         299.820
  -1978338.187 9  -1536354.33248  20787330.442    20787329.1114   20787333.2864
      1171.591         912.928
  -5184753.806 9  -3802811.883 9  21569242.795    21569241.830    21569245.561
      3041.035        2369.638
  -5790388.439 9  -4492099.74147  23657595.559    23657594.3774   23657599.4634
      3517.500        2740.909
 96 10 10 15 54 30.0000000  0  7  6 22 23 26 17 28 21                0.000407305
   1802628.701 9   1401015.17548  20991915.660    20991914.7354   20991918.8284
     -1267.782        -987.882
  -1480906.069 9  -1150197.02247  23566133.694    23566132.1304   23566136.9384
       598.737         466.548
  -3557048.939 9  -2762508.87248  21055791.483    21055790.1734   21055794.3124
      1925.881        1500.686
  -1197863.825 9   -929058.57848  22285732.577    22285731.9504   22285735.3394
       370.948         289.050
  -2013458.704 9  -1563720.97148  20780647.194    20780645.8714   20780650.0364
      1170.643         912.189
  -5275877.743 9  -3873817.541 9  21551902.424    21551901.498    21551905.267
      3034.653        2364.665
  -5895871.406 9  -4574294.25847  23637522.899    23637521.7194   23637526.7494
      3515.464        2739.323
 96 10 10 15 55  0.0000000  0  7  6 22 23 26 17 28 21                0.000394324
   1840833.985 9   1430785.51148  20999185.822    20999184.9434   20999189.0474
     -1278.112        -995.931
  -1498674.256 9  -1164042.38847  23562752.551    23562751.0234   23562755.8264
       587.181         457.544
  -3614703.643 9  -2807434.59648  21044820.122    21044818.8174   21044823.0174
      1919.008        1495.331
  -1208767.843 9   -937555.19648  22283657.600    22283656.9574   22283660.3244
       357.182         278.324
  -2048543.985 9  -1591060.14848  20773970.684    20773969.3794   20773973.5324
      1169.614         911.388
  -5366801.764 9  -3944667.419 9  21534600.184    21534599.245    21534602.986
      3028.275        2359.695
  -6001279.018 9  -4656429.95147  23617464.230    23617463.1154   23617468.4494
      3513.129        2737.503
 96 10 10 15 55 30.0000000  0  7  6 22 23 26 17 28 21                0.000381260
   1879370.427 9   1460813.89348  21006519.057    21006518.2124   21006522.3184
     -1289.745       -1004.996
  -1516097.938 9  -1177619.31347  23559436.938    23559435.4044   23559440.1344
       575.512         448.451
  -3672142.018 9  -2852191.76048  21033889.967    21033888.6774   21033892.8694
      1911.124        1489.188
  -1219239.689 9   -945715.06648  22281664.837    22281664.2194   22281667.6134
       342.185         266.638
  -2083584.175 9  -1618364.19148  20767302.764    20767301.4544   20767305.6234
      1167.484         909.728
  -5457524.135 9  -4015360.176 9  21517336.298    21517335.359    21517339.050
      3020.990        2354.018
  -6106617.486 9  -4738511.84147  23597419.194    23597418.0604   23597423.2724
      3510.577        2735.515
 96 10 10 15 56  0.0000000  0  7  6 22 23 26 17 28 21                0.000368093
   1918231.943 9   1491095.57548  21013914.170    21013913.3154   21013917.4494
     -1301.431       -1014.102
  -1533192.062 9  -1190939.41447  23556184.005    23556182.4874   23556187.2354
       563.525         439.110
  -3729350.501 9  -2896769.78648  21023003.581    21023002.2644   21023006.4724
      1902.290        1482.304
  -1229282.913 9   -953540.94148  22279753.622    22279753.0614   22279756.4774
       326.856         254.693
  -2118571.711 9  -1645627.20448  20760644.901    20760643.6024   20760647.7334
      1164.413         907.335
  -5548042.886 9  -4085894.263 9  21500111.113    21500110.221    21500113.862
      3013.099        2347.869
  -6211902.374 9  -4820552.05947  23577384.346    23577383.1304   23577388.1014
      3507.872        2733.407
 96 10 10 15 56 30.0000000  0  7  6 22 23 26 17 28 21                0.000354802
   1957403.770 9   1521619.06048  21021368.295    21021367.4724   21021371.6304
     -1310.958       -1021.526
  -1549958.498 9  -1204004.18547  23552993.550    23552992.0444   23552996.6724
       553.216         431.077
  -3786318.914 9  -2941160.74848  21012162.830    21012161.5394   21012165.7234
      1894.652        1476.352
  -1238898.577 9   -961033.65848  22277923.758    22277923.2664   22277926.6804
       313.151         244.014
  -2153484.058 9  -1672831.62748  20754001.317    20754000.0024   20754004.0974
      1162.326         905.709
  -5638355.123 9  -4156267.436 9  21482925.283    21482924.360    21482928.015
      3006.817        2342.974
  -6317143.083 9  -4902557.81147  23557357.606    23557356.4484   23557361.2864
      3507.285        2732.949
 96 10 10 15 57  0.0000000  0  7  6 22 23 26 17 28 21                0.000341405
   1996899.154 9   1552394.66948  21028884.050    21028883.2094   21028887.3714
     -1322.512       -1030.529
  -1566378.357 9  -1216798.89847  23549868.973    23549867.4404   23549872.2074
       540.999         421.558
  -3843024.732 9  -2985347.08348  21001372.066    21001370.7844   21001374.9834
      1885.150        1468.948
  -1248059.047 9   -968171.67948  22276180.590    22276180.0874   22276183.5034
       297.231         231.609
  -2188307.059 9  -1699966.43548  20747374.669    20747373.3794   20747377.4974
      1158.840         902.992
  -5728447.404 9  -4226469.202 9  21465781.302    21465780.378    21465784.059
      2998.859        2336.773
  -6422332.541 9  -4984523.53847  23537340.449    23537339.4054   23537344.5824
      3504.813        2731.023
 96 10 10 15 57 30.0000000  0  7  6 22 23 26 17 28 21                0.000327906
   2036723.095 9   1583426.29548  21036462.344    21036461.4824   21036465.6404
     -1333.134       -1038.806
  -1582454.037 9  -1229325.41447  23546809.739    23546808.2654   23546813.0994
       529.728         412.775
  -3899451.416 9  -3029315.92148  20990634.423    20990633.1464   20990637.3844
      1875.714        1461.595
  -1256765.664 9   -974956.05248  22274523.881    22274523.2544   22274526.7014
       282.475         220.110
  -2223053.351 9  -1727041.46748  20740762.673    20740761.3794   20740765.5264
      1156.729         901.347
  -5818316.708 9  -4296497.225 9  21448679.762    21448678.847    21448682.559
      2991.482        2331.025
  -6527469.281 9  -5066448.25047  23517333.744    23517332.6634   23517337.7894
      3503.289        2729.836
 96 10 10 15 58  0.0000000  0  7  6 22 23 26 17 28 21                0.000314304
   2076860.262 9   1614701.99448  21044100.260    21044099.3564   21044103.5274
     -1343.634       -1046.987
  -1598184.623 9  -1241583.01947  23543816.445    23543814.9704   23543819.7494
       518.069         403.690
  -3955595.979 9  -3073064.91948  20979950.514    20979949.2014   20979953.3944
      1866.559        1454.462
  -1265038.411 9   -981402.34448  22272949.694    22272948.9744   22272952.4734
       268.212         208.996
  -2257742.937 9  -1754072.31148  20734161.489    20734160.2024   20734164.3364
      1155.072         900.056
  -5907963.587 9  -4366351.936 9  21431620.583    21431619.636    21431623.346
      2984.145        2325.308
  -6632555.097 9  -5148333.30947  23497336.578    23497335.3974   23497340.4624
      3501.665        2728.570
 96 10 10 15 58 30.0000000  0  7  6 22 23 26 17 28 21                0.000300610
   2117318.421 9   1646227.81648  21051799.117    21051798.2864   21051802.4794
     -1354.122       -1055.160
  -1613562.227 9  -1253565.57647  23540890.343    23540888.8304   23540893.5984
       506.535         394.703
  -4011469.885 9  -3116603.01648  20969318.053    20969316.7554   20969320.9224
      1857.879        1447.698
  -1272884.653 9   -987516.29648  22271456.559    22271455.8614   22271459.3364
       254.418         198.248
  -2292381.274 9  -1781063.22148  20727570.064    20727568.7744   20727572.9104
      1153.733         899.013
  -5997388.776 9  -4436033.900 9  21414603.490    21414602.550    21414606.280
      2977.053        2319.782
  -6737595.067 9  -5230182.62647  23477347.973    23477346.8924   23477351.9674
      3500.554        2727.704
 96 10 10 15 59  0.0000000  0  7  6 22 23 26 17 28 21                0.000286835
   2158115.527 9   1678017.75148  21059562.581    21059561.7384   21059565.9494
     -1365.220       -1063.808
  -1628577.366 9  -1265265.71247  23538033.106    23538031.6084   23538036.4124
       494.917         385.650
  -4067070.110 9  -3159927.85948  20958737.714    20958736.3984   20958740.5394
      1849.138        1440.887
  -1280299.329 9   -993293.97148  22270045.538    22270044.9124   22270048.3234
       240.413         187.335
  -2326965.113 9  -1808011.67748  20720988.994    20720987.7004   20720991.8364
      1152.171         897.796
  -6086582.071 9  -4505535.172 9  21397630.590    21397629.659    21397633.391
      2969.524        2313.915
  -6842580.758 9  -5311989.59547  23457369.707    23457368.6184   23457373.9164
      3498.752        2726.300
 96 10 10 15 59 30.0000000  0  7  6 22 23 26 17 28 21                0.000272971
   2199250.388 9   1710070.86748  21067390.393    21067389.4494   21067393.7004
     -1376.279       -1072.425
  -1643232.555 9  -1276685.36946  23535244.110    23535242.6114   23535247.6184
       482.826         376.228
  -4122396.885 9  -3203039.62448  20948209.389    20948208.0764   20948212.2104
      1840.194        1433.917
  -1287286.585 9   -998738.59048  22268715.949    22268715.3204   22268718.7124
       225.962         176.074
  -2361483.908 9  -1834909.43748  20714420.242    20714418.9994   20714423.1234
      1149.648         895.830
  -6175534.952 9  -4574849.105 9  21380703.418    21380702.487    21380706.235
      2961.399        2307.584
  -6947500.206 9  -5393745.00547  23437404.316    23437403.1944   23437408.4544
      3496.571        2724.601
 96 10 10 16  0  0.0000000  0  8  6  3 22 23 26 17 28 21             0.000259027
   2240714.742 9   1742380.73748  21075280.800    21075279.8614   21075284.1314
     -1387.933       -1081.506
   -317361.04518   -228781.69255  25103414.985           0.0005          0.0005
      4302.978        3352.970
  -1657509.836 9  -1287810.55946  23532527.278    23532525.8254   23532530.7864
       469.187         365.600
  -4177453.589 9  -3245940.93648  20937732.360    20937731.0864   20937735.2354
      1830.314        1426.219
  -1293822.745 9  -1003831.70148  22267472.170    22267471.5434   22267474.9224
       209.847         163.517
  -2395908.450 9  -1861733.75448  20707869.513    20707868.2734   20707872.3644
      1145.378         892.502
  -6264237.172 9  -4643967.708 9  21363823.947    21363822.985    21363826.775
      2952.169        2300.391
  -7052343.056 9  -5475440.72447  23417453.386    23417452.2284   23417457.3154
      3493.029        2721.841
 96 10 10 16  0 30.0000000  0  8  6  3 22 23 26 17 28 21             0.000245001
   2282504.578 9   1774944.22948  21083233.143    21083232.2084   21083236.5194
     -1398.769       -1089.950
   -446497.925 8   -329407.85855  25078843.075           0.0005   25078845.0615
      4305.303        3354.782
  -1671406.212 9  -1298638.90847  23529882.841    23529881.3654   23529886.2824
       456.430         355.660
  -4232230.955 9  -3288624.58948  20927308.594    20927307.2964   20927311.4754
      1820.665        1418.700
  -1299893.306 9  -1008562.01048  22266316.970    22266316.3404   22266319.7324
       194.148         151.284
  -2430223.630 9  -1888472.85648  20701339.551    20701338.2964   20701342.4074
      1141.538         889.510
  -6352681.823 9  -4712885.617 9  21346993.533    21346992.566    21346996.303
      2943.347        2293.517
  -7157096.236 9  -5557066.53247  23397519.452    23397518.2774   23397523.4084
      3489.618        2719.183
 96 10 10 16  1  0.0000000  0  8  6  3 22 23 26 17 28 21             0.000230899
   2324613.858 9   1807756.63948  21091246.233    21091245.3554   21091249.6914
     -1408.765       -1097.739
   -575700.218 8   -430084.98645  25054256.756    25054253.3665   25054259.1764
      4307.817        3356.741
  -1684917.319 9  -1309167.07147  23527311.940    23527310.4714   23527315.2914
       443.933         345.922
  -4286717.829 9  -3331081.88548  20916940.100    20916938.8154   20916942.9854
      1811.406        1411.485
  -1305490.923 9  -1012923.79548  22265251.741    22265251.1624   22265254.5514
       178.772         139.303
  -2464430.418 9  -1915127.49548  20694830.193    20694828.9594   20694833.0714
      1138.708         887.305
  -6440857.702 9  -4781594.088 9  21330214.191    21330213.228    21330216.964
      2934.697        2286.777
  -7261736.578 9  -5638604.50047  23377607.198    23377606.0354   23377610.8404
      3486.149        2716.480
 96 10 10 16  1 30.0000000  0  8  6  3 22 23 26 17 28 21             0.000216721
   2367026.845 9   1840805.70448  21099317.197    21099316.3064   21099320.6404
     -1419.272       -1105.926
   -704963.010 9   -530809.26245  25029658.675    25029657.2044   25029660.7704
      4309.281        3357.881
  -1698041.532 9  -1319393.74547  23524814.688    23524813.1854   23524817.7074
       430.697         335.608
  -4340912.178 9  -3373311.23748  20906627.239    20906625.9374   20906630.1074
      1801.221        1403.549
  -1310621.086 9  -1016921.32848  22264275.568    22264274.8974   22264278.3354
       162.746         126.815
  -2498544.199 9  -1941709.66348  20688338.559    20688337.2874   20688341.4414
      1135.242         884.604
  -6528761.215 9  -4850090.329 9  21313486.706    21313485.780    21313489.459
      2925.119        2279.314
  -7366266.907 9  -5720056.61547  23357715.699    23357714.5304   23357719.5414
      3482.179        2713.386
 96 10 10 16  2  0.0000000  0  8  6  3 22 23 26 17 28 21             0.000202470
   2409749.677 9   1874096.20448  21107447.115    21107446.2114   21107450.5514
     -1429.397       -1113.816
   -834282.739 8   -631577.94845  25005049.620    25005047.7274   25005052.0684
      4311.794        3359.839
  -1710789.290 9  -1329327.07947  23522388.957    23522387.4554   23522391.9204
       418.843         326.371
  -4394816.050 9  -3415314.24648  20896369.680    20896368.4004   20896372.5334
      1792.040        1396.395
  -1315282.935 9  -1020553.94348  22263388.404    22263387.7564   22263391.2844
       147.856         115.212
  -2532574.658 9  -1968226.90748  20681862.829    20681861.5474   20681865.6954
      1133.208         883.019
  -6616389.399 9  -4918372.022 9  21296811.620    21296810.676    21296814.382
      2916.417        2272.533
  -7470691.766 9  -5801426.66047  23337844.303    23337843.1614   23337848.0534
      3479.179        2711.049
 96 10 10 16  2 30.0000000  0  8  6  3 22 23 26 17 28 21             0.000188141
   2452802.756 9   1907644.04248  21115639.805    21115638.9514   21115643.2974
     -1441.250       -1123.052
   -963668.070 8   -732397.68445  24980428.276    24980426.7844   24980430.9464
      4313.536        3361.197
  -1723169.137 9  -1338973.73447  23520033.100    23520031.6354   23520036.0134
       405.999         316.363
  -4448431.094 9  -3457092.19048  20886167.097    20886165.7784   20886169.9454
      1781.939        1388.524
  -1319492.876 9  -1023834.41948  22262587.296    22262586.6204   22262590.1964
       132.313         103.101
  -2566531.811 9  -1994687.02548  20675401.050    20675399.7344   20675403.8774
      1130.113         880.608
  -6703739.389 9  -4986436.940 9  21280189.488    21280188.549    21280192.251
      2906.458        2264.772
  -7575013.133 9  -5882715.99847  23317992.517    23317991.3704   23317996.3644
      3475.167        2707.922
 96 10 10 16  3  0.0000000  0  8  6  3 22 23 26 17 28 21             0.000173745
   2496198.864 9   1941459.17148  21123897.816    21123896.9714   21123901.3164
     -1451.978       -1131.411
  -1093121.469 8   -833270.48345  24955794.108    24955792.7124   24955797.2304
      4316.753        3363.704
  -1735180.400 9  -1348333.17047  23517747.595    23517746.0634   23517750.3934
       394.681         307.544
  -4501760.310 9  -3498647.41348  20876018.857    20876017.5574   20876021.7544
      1773.281        1381.777
  -1323244.566 9  -1026757.82248  22261873.310    22261872.6824   22261876.2804
       117.693          91.709
  -2600409.897 9  -2021085.53748  20668954.263    20668952.9724   20668957.1154
      1128.249         879.155
  -6790803.901 9  -5054279.412 9  21263621.738    21263620.736    21263624.443
      2897.772        2258.004
  -7679232.962 9  -5963926.23647  23298160.114    23298159.0184   23298164.0924
      3472.692        2705.994
 96 10 10 16  3 30.0000000  0  8  6  3 22 23 26 17 28 21             0.000159277
   2539953.157 9   1975553.41048  21132224.006    21132223.1564   21132227.5064
     -1463.769       -1140.599
  -1222645.336 9   -934198.16745  24931146.239    24931145.2554   24931149.7254
      4319.468        3365.819
  -1746824.309 9  -1357406.37247  23515531.608    23515530.1804   23515534.6504
       382.744         298.242
  -4554801.460 9  -3539978.16648  20865925.494    20865924.1934   20865928.3644
      1764.128        1374.645
  -1326522.702 9  -1029312.21848  22261249.535    22261248.9514   22261252.5314
       101.996          79.477
  -2634186.260 9  -2047404.78348  20662526.832    20662525.5324   20662529.6884
      1124.640         876.343
  -6877577.052 9  -5121894.848 9  21247109.245    21247108.323    21247112.083
      2888.355        2250.666
  -7783344.672 9  -6045052.20447  23278348.371    23278347.2904   23278352.3584
      3469.157        2703.239
 96 10 10 16  4  0.0000000  0  8  6  3 22 23 26 17 28 21             0.000144728
   2584036.553 9   2009904.09648  21140612.860    21140611.9654   21140616.3124
     -1473.771       -1148.393
  -1352279.634 8  -1035211.95645  24906477.621    24906476.5984   24906481.1114
      4324.131        3369.453
  -1758125.988 9  -1366212.91647  23513380.773    23513379.3794   23513384.0844
       371.788         289.705
  -4607599.140 9  -3581119.20248  20855878.409    20855877.1274   20855881.2874
      1756.891        1369.006
  -1329353.580 9  -1031518.10048  22260710.879    22260710.2624   22260713.8244
        87.976          68.553
  -2667877.195 9  -2073657.45848  20656115.601    20656114.3484   20656118.5064
      1122.662         874.802
  -6964091.350 9  -5189308.583 9  21230646.109    21230645.203    21230648.967
      2880.509        2244.552
  -7887368.902 9  -6126110.02747  23258553.165    23258552.0804   23258557.0924
      3467.067        2701.611
 96 10 10 16  4 30.0000000  0  8  6  3 22 23 26 17 28 21             0.000130109
   2628444.805 9   2044507.91148  21149063.492    21149062.5854   21149066.9524
     -1486.756       -1158.511
  -1482023.421 8  -1136311.01945  24881788.133    24881787.2054   24881791.6084
      4325.289        3370.355
  -1769066.653 9  -1374738.14347  23511298.869    23511297.3704   23511302.1154
       357.626         278.670
  -4660147.163 9  -3622065.70348  20845878.830    20845877.5554   20845881.7774
      1746.323        1360.771
  -1331730.533 9  -1033370.28348  22260258.547    22260257.9614   22260261.4734
        70.320          54.795
  -2701473.249 9  -2099836.20648  20649722.509    20649721.2464   20649725.4074
      1117.126         870.488
  -7050338.555 9  -5256514.196 9  21214233.820    21214232.896    21214236.642
      2869.286        2235.807
  -7991292.843 9  -6207089.68747  23238777.169    23238776.0434   23238781.0344
      3461.229        2697.062
 96 10 10 16  5  0.0000000  0  8  6  3 22 23 26 17 28 21             0.000115448
   2673212.618 9   2079391.90848  21157582.548    21157581.6564   21157585.9994
     -1497.797       -1167.115
  -1611819.944 9  -1237451.16145  24857088.514    24857087.6814   24857092.2674
      4327.555        3372.121
  -1779609.744 9  -1382953.52947  23509292.571    23509291.1754   23509295.8234
       345.133         268.935
  -4712401.608 9  -3662783.44048  20835935.097    20835933.8574   20835938.0634
      1737.364        1353.790
  -1333593.343 9  -1034821.82948  22259904.028    22259903.4344   22259906.9264
        53.871          41.977
  -2734928.924 9  -2125905.55648  20643356.040    20643354.8194   20643358.9904
      1113.220         867.444
  -7136270.495 9  -5323474.140 9  21197881.500    21197880.611    21197884.319
      2859.475        2228.162
  -8095065.825 9  -6287951.73347  23219029.827    23219028.7274   23219033.6644
      3456.906        2693.693
 96 10 10 16  5 30.0000000  0  8  6  3 22 23 26 17 28 21             0.000100747
   2718319.993 9   2114540.49948  21166166.175    21166165.3334   21166169.6664
     -1509.022       -1175.861
  -1741659.711 9  -1338625.03345  24832380.921    24832380.1004   24832384.6184
      4328.638        3372.965
  -1789757.476 9  -1390860.86647  23507361.418    23507360.0364   23507364.8354
       331.796         258.542
  -4764378.810 9  -3703285.14348  20826044.151    20826042.9214   20826047.1044
      1727.962        1346.464
  -1334950.110 9  -1035879.06248  22259645.814    22259645.2624   22259648.7384
        37.089          28.901
  -2768250.172 9  -2151870.17148  20637015.190    20637013.9904   20637018.1564
      1108.694         863.917
  -7221893.690 9  -5390193.513 9  21181588.035    21181587.093    21181590.759
      2849.055        2220.043
  -8198691.905 9  -6368699.30947  23199310.400    23199309.3224   23199314.2274
      3451.958        2689.837
 96 10 10 16  6  0.0000000  0  8  6  3 22 23 26 17 28 21             0.000085990
   2763759.552 9   2149947.92548  21174813.004    21174812.1814   21174816.5204
     -1518.991       -1183.629
  -1871529.254 8  -1439822.09345  24807667.732    24807666.7944   24807671.5874
      4330.685        3374.560
  -1799519.595 9  -1398467.71447  23505503.877    23505502.4934   23505507.1884
       320.480         249.725
  -4816065.173 9  -3743560.21848  20816208.599    20816207.3654   20816211.4644
      1718.985        1339.469
  -1335814.714 9  -1036552.78948  22259481.321    22259480.7534   22259484.2354
        21.995          17.139
  -2801448.371 9  -2177738.90248  20630697.788    20630696.5924   20630700.7444
      1105.934         861.767
  -7307207.776 9  -5456672.018 9  21165353.287    21165352.359    21165356.041
      2839.880        2212.894
  -8302181.151 9  -6449340.24347  23179616.995    23179615.9484   23179620.9354
      3448.672        2687.277
 96 10 10 16  6 30.0000000  0  8  6  3 22 23 26 17 28 21             0.000071127
   2809496.137 9   2185586.81048  21183516.347    21183515.5644   21183519.8724
     -1532.822       -1194.407
  -2001458.122 8  -1541065.41845  24782942.954    24782942.2644   24782946.6204
      4328.480        3372.841
  -1808960.921 9  -1405824.62047  23503707.281    23503705.8804   23503710.8964
       306.199         238.597
  -4867481.439 9  -3783624.83048  20806424.417    20806423.1794   20806427.2874
      1706.115        1329.440
  -1336235.945 9  -1036881.02748  22259401.112    22259400.6234   22259404.0804
         3.442           2.682
  -2834568.847 9  -2203547.06648  20624395.195    20624394.0014   20624398.1284
      1099.408         856.682
  -7392252.024 9  -5522940.259 9  21149169.915    21149168.986    21149172.691
      2827.061        2202.905
  -8405577.224 9  -6529908.59947  23159941.441    23159940.3894   23159945.2524
      3441.779        2681.906
 96 10 10 16  7  0.0000000  0  8  6  3 22 23 26 17 28 21             0.000056230
   2855664.396 9   2221562.06048  21192301.954    21192301.1044   21192305.4184
     -1544.668       -1203.637
  -2131297.147 8  -1642238.65245  24758235.088    24758234.3814   24758239.0544
      4327.888        3372.380
  -1817953.992 9  -1412832.23747  23501995.846    23501994.4494   23501999.6314
       293.550         228.740
  -4918488.267 9  -3823370.40048  20796718.107    20796716.8694   20796720.9754
      1694.703        1320.548
  -1336088.005 9  -1036765.75748  22259429.324    22259428.8154   22259432.2314
       -12.871         -10.029
  -2867473.839 9  -2229187.32548  20618133.616    20618132.4004   20618136.5064
      1094.658         852.980
  -7476893.971 9  -5588895.024 9  21133063.071    21133062.183    21133065.873
      2816.106        2194.368
  -8508757.413 9  -6610308.72447  23140306.924    23140305.8324   23140310.6314
      3437.236        2678.366
 96 10 10 16  7 30.0000000  0  8  6  3 22 23 26 17 28 21             0.000041263
   2902210.096 9   2257831.42848  21201159.288    21201158.4514   21201162.7364
     -1558.147       -1214.140
  -2261108.947 9  -1743390.73545  24733532.660    24733531.8754   24733536.7684
      4326.551        3371.338
  -1826544.255 9  -1419525.98447  23500361.290    23500359.9064   23500364.9484
       279.648         217.907
  -4969125.954 9  -3862828.32348  20787082.024    20787080.8094   20787084.9224
      1681.358        1310.149
  -1335438.033 9  -1036259.29148  22259553.053    22259552.4744   22259555.9324
       -30.072         -23.433
  -2900220.343 9  -2254704.07648  20611902.161    20611900.9474   20611905.0834
      1088.945         848.529
  -7561187.552 9  -5654578.331 9  21117022.570    21117021.680    21117025.323
      2803.768        2184.754
  -8611784.102 9  -6690589.24147  23120701.667    23120700.5724   23120705.3254
      3431.638        2674.004
 96 10 10 16  8  0.0000000  0  8  6  3 22 23 26 17 28 21             0.000026210
   2949133.214 9   2294394.87448  21210088.443    21210087.6364   21210091.9014
     -1569.491       -1222.980
  -2390919.095 9  -1844541.50545  24708830.600    24708829.7754   24708834.8314
      4327.842        3372.344
  -1834755.099 9  -1425924.05047  23498798.987    23498797.5344   23498802.4344
       268.025         208.851
  -5019391.930 9  -3901996.61548  20777516.679    20777515.4854   20777519.6034
      1670.417        1301.624
  -1334307.481 9  -1035378.34648  22259768.218    22259767.6484   22259771.1014
       -44.953         -35.028
  -2932835.751 9  -2280118.68948  20605695.649    20605694.4124   20605698.5914
      1085.917         846.169
  -7645141.758 9  -5719997.196 9  21101046.670    21101045.749    21101049.339
      2793.567        2176.805
  -8714679.510 9  -6770767.46247  23101121.325    23101120.1954   23101125.0414
      3428.446        2671.516
 96 10 10 16  8 30.0000000  0  8  6  3 22 23 26 17 28 21             0.000011096
   2996427.613 9   2331247.63748  21219088.310    21219087.4874   21219091.7754
     -1582.006       -1232.732
  -2520732.184 9  -1945694.59845  24684127.916    24684127.2734   24684132.2874
      4327.617        3372.169
  -1842570.776 9  -1432014.23547  23497311.660    23497310.2294   23497315.1064
       254.234         198.104
  -5069306.754 9  -3940891.27148  20768018.233    20768017.0084   20768021.1444
      1658.665        1292.466
  -1332682.867 9  -1034112.41448  22260077.402    22260076.8564   22260080.2784
       -62.028         -48.334
  -2965320.763 9  -2305431.68548  20599513.940    20599512.7254   20599516.9214
      1081.062         842.386
  -7728749.899 9  -5785146.393 9  21085136.552    21085135.644    21085139.234
      2781.592        2167.474
  -8817442.060 9  -6850842.14147  23081566.142    23081565.1164   23081570.0064
      3423.719        2667.833
 96 10 10 16  9  0.0000000  0  8  6  3 22 23 26 17 28 21            -0.000004067
   3044064.252 9   2368367.08448  21228153.293    21228152.4694   21228156.7424
     -1593.501       -1241.689
  -2650572.961 8  -2046869.22545  24659420.076    24659419.5434   24659424.5484
      4328.672        3372.991
  -1849991.437 9  -1437796.57047  23495899.683    23495898.2124   23495903.0514
       240.648         187.518
  -5118904.456 9  -3979538.82748  20758580.107    20758578.8954   20758583.0244
      1648.090        1284.226
  -1330573.376 9  -1032468.65948  22260478.786    22260478.2684   22260481.7114
       -78.385         -61.079
  -2997689.984 9  -2330654.45348  20593354.335    20593353.1064   20593357.2954
      1077.219         839.391
  -7812028.698 9  -5850038.963 9  21069289.143    21069288.224    21069291.820
      2770.424        2158.772
  -8920094.837 9  -6930831.31447  23062032.046    23062030.9474   23062035.8114
      3419.736        2664.729
 96 10 10 16  9 29.9990000  0  8  6  3 22 23 26 17 28 21            -0.000019188
   3092058.658 9   2405765.30848  21237286.347    21237285.5254   21237289.7814
     -1604.381       -1250.167
  -2780423.478 9  -2148051.44745  24634710.153    24634709.5984   24634714.7094
      4329.911        3373.957
  -1856990.414 9  -1443250.36047  23494567.733    23494566.2714   23494571.2194
       227.896         177.581
  -5168175.185 9  -4017931.59648  20749204.172    20749202.9904   20749207.1404
      1638.625        1276.851
  -1327958.286 9  -1030430.93448  22260976.506    22260975.9214   22260979.3604
       -94.065         -73.297
  -3029934.041 9  -2355779.69848  20587218.507    20587217.2964   20587221.4584
      1074.188         837.030
  -7894947.594 9  -5914651.088 9  21053510.219    21053509.294    21053512.906
      2759.524        2150.278
  -9022594.041 9  -7010700.79347  23042526.925    23042525.9074   23042530.9254
      3415.513        2661.439
 96 10 10 16  9 59.9990000  0  8  6  3 22 23 26 17 28 21            -0.000034400
   3140402.537 9   2443435.84848  21246485.950    21246485.0704   21246489.3244
     -1617.357       -1260.278
  -2910279.913 9  -2249238.25745  24609999.470    24609998.7344   24610003.8764
      4328.061        3372.515
  -1863579.280 9  -1448384.55246  23493313.926    23493312.3924   23493317.3144
       212.247         165.387
  -5217145.616 9  -4056090.36548  20739885.468    20739884.2694   20739888.3694
      1627.220        1267.964
  -1324844.203 9  -1028004.37348  22261569.142    22261568.5234   22261571.9724
      -112.450         -87.623
  -3062051.477 9  -2380806.27948  20581106.801    20581105.5594   20581109.7104
      1067.914         832.141
  -7977513.930 9  -5978988.490 9  21037798.347    21037797.415    21037801.088
      2745.933        2139.688
  -9124936.057 9  -7090447.79247  23023051.824    23023050.8654   23023055.8854
      3408.243        2655.774
 96 10 10 16 10 29.9990000  0  8  6  3 22 23 26 17 28 21            -0.000049644
   3189095.072 9   2481378.07548  21255751.821    21255750.9794   21255755.2644
     -1628.452       -1268.924
  -3040114.858 8  -2350408.35445  24585292.925    24585292.1914   24585297.2064
      4327.968        3372.443
  -1869739.181 9  -1453184.47546  23492141.568    23492140.1654   23492145.1694
       198.890         154.979
  -5265813.204 9  -4094013.15248  20730624.334    20730623.1264   20730627.2374
      1617.611        1260.476
  -1321223.761 9  -1025183.24548  22262258.032    22262257.4564   22262260.9254
      -128.270         -99.951
  -3094012.423 9  -2405710.90848  20575024.861    20575023.6294   20575027.7514
      1063.227         828.489
  -8059713.167 9  -6043039.843 9  21022156.280    21022155.386    21022159.081
      2734.454        2130.743
  -9227093.041 9  -7170050.62947  23003612.123    23003611.0654   23003616.0334
      3402.729        2651.477
 96 10 10 16 10 59.9990000  0  8  6  3 22 23 26 17 28 21            -0.000064936
   3238136.817 9   2519592.40048  21265084.107    21265083.3414   21265087.6394
     -1640.531       -1278.336
  -3169925.333 8  -2451559.41745  24560590.886    24560590.0194   24560594.8254
      4326.468        3371.274
  -1875490.917 9  -1457666.37947  23491047.278    23491045.8324   23491050.8254
       185.305         144.394
  -5314174.343 9  -4131697.14948  20721421.435    20721420.2704   20721424.3874
      1606.887        1252.120
  -1317129.511 9  -1021992.91448  22263037.033    22263036.5224   22263040.0314
      -144.173        -112.343
  -3125821.084 9  -2430496.88348  20568971.912    20568970.6864   20568974.7554
      1057.951         824.377
  -8141553.768 9  -6106811.743 9  21006582.476    21006581.625    21006585.352
      2722.084        2121.104
  -9329068.292 9  -7249511.82447  22984206.748    22984205.7414   22984210.7774
      3396.193        2646.384
 96 10 10 16 11 29.9990000  0  8  6  3 22 23 26 17 28 21            -0.000080291
   3287530.634 9   2558081.08448  21274483.434    21274482.6724   21274486.9994
     -1653.137       -1288.159
  -3299702.276 9  -2552684.26745  24535895.145    24535894.2214   24535899.0914
      4324.549        3369.778
  -1880871.600 9  -1461859.12647  23490023.568    23490022.1414   23490027.1854
       172.695         134.567
  -5362221.469 9  -4169136.45648  20712278.312    20712277.1834   20712281.2864
      1595.520        1243.262
  -1312574.671 9  -1018443.67948  22263903.760    22263903.2554   22263906.7874
      -160.284        -124.897
  -3157481.442 9  -2455167.28948  20562947.131    20562945.9374   20562950.0224
      1051.897         819.660
  -8223036.246 9  -6170304.575 9  20991076.852    20991076.039    20991079.745
      2709.363        2111.192
  -9430863.884 9  -7328833.04347  22964835.781    22964834.7764   22964839.6874
      3389.687        2641.314
 96 10 10 16 11 59.9990000  0  8  6  3 22 23 26 17 28 21            -0.000095710
   3337297.269 9   2596860.26248  21283953.736    21283952.9644   21283957.2814
     -1664.178       -1296.762
  -3429433.913 9  -2653773.84245  24511208.030    24511206.9094   24511212.0064
      4324.762        3369.944
  -1885881.204 9  -1465762.72547  23489070.451    23489069.0164   23489074.0704
       161.605         125.926
  -5409933.824 9  -4206314.90748  20703198.971    20703197.8164   20703201.9264
      1585.653        1235.574
  -1307542.972 9  -1014522.87048  22264861.238    22264860.7464   22264864.2594
      -174.843        -136.241
  -3188966.202 9  -2479700.87348  20556955.761    20556954.5864   20556958.6784
      1047.637         816.341
  -8304148.001 9  -6233508.540 9  20975641.807    20975640.960    20975644.677
      2698.442        2102.682
  -9532491.863 9  -7408023.66447  22945496.613    22945495.5514   22945500.4704
      3385.889        2638.355
 96 10 10 16 12 29.9990000  0  8  6  3 22 23 26 17 28 21            -0.000111187
   3387442.410 9   2635934.38348  21293496.065    21293495.2624   21293499.6314
     -1678.766       -1308.129
  -3559128.834 9  -2754834.82545  24486527.995    24486526.9464   24486531.8804
      4321.749        3367.597
  -1890515.908 9  -1469374.22447  23488188.499    23488187.1104   23488192.3304
       147.466         114.909
  -5457299.204 9  -4243222.98448  20694185.585    20694184.4594   20694188.5634
      1572.216        1225.103
  -1302025.387 9  -1010223.44648  22265911.213    22265910.6994   22265914.1964
      -192.947        -150.348
  -3220284.113 9  -2504104.44148  20550996.199    20550995.0094   20550999.0884
      1040.416         810.714
  -8384885.371 9  -6296420.774 9  20960277.989    20960277.178    20960280.874
      2684.136        2091.535
  -9633964.491 9  -7487093.22447  22926186.918    22926185.9064   22926190.8664
      3379.069        2633.041
 96 10 10 16 12 59.9990000  0  8  6  3 22 23 26 17 28 21            -0.000126711
   3437970.411 9   2675306.83748  21303111.216    21303110.4534   21303114.8234
     -1689.821       -1316.744
  -3688786.786 9  -2855866.99145  24461854.836    24461853.8204   24461858.5494
      4322.090        3367.862
  -1894779.668 9  -1472696.67747  23487376.988    23487375.5734   23487380.8634
       136.670         106.496
  -5504318.388 9  -4279861.30648  20685238.157    20685237.0154   20685241.1114
      1562.453        1217.496
  -1296001.867 9  -1005529.78948  22267057.421    22267056.9244   22267060.4104
      -208.867        -162.754
  -3251445.450 9  -2528386.01048  20545066.452    20545065.2324   20545069.2914
      1036.903         807.976
  -8465244.143 9  -6359037.993 9  20944986.314    20944985.478    20944989.105
      2673.013        2082.867
  -9735288.420 9  -7566046.92247  22906905.671    22906904.6454   22906909.6744
      3375.675        2630.396
 96 10 10 16 13 29.9990000  0  8  6  3 22 23 26 17 28 21            -0.000142271
   3488863.780 9   2714963.99048  21312795.926    21312795.1464   21312799.5454
     -1702.720       -1326.795
  -3818431.543 9  -2956888.88946  24437184.162    24437183.1684   24437187.9254
      4321.140        3367.122
  -1898670.338 9  -1475728.36946  23486636.395    23486635.0264   23486640.3804
       122.746          95.646
  -5551015.148 9  -4316248.38148  20676352.134    20676350.9284   20676355.0174
      1551.007        1208.577
  -1289453.013 9  -1000426.77948  22268303.683    22268303.1744   22268306.6014
      -227.474        -177.252
  -3282464.008 9  -2552556.31248  20539163.773    20539162.5994   20539166.6394
      1031.227         803.553
  -8545229.677 9  -6421364.386 9  20929765.662    20929764.775    20929768.352
      2659.613        2072.426
  -9836469.525 9  -7644889.31147  22887651.461    22887650.4084   22887655.5044
      3369.973        2625.953
 96 10 10 16 13 59.9990000  0  8  6  3 22 23 26 17 28 21            -0.000157844
   3540120.252 9   2754904.08248  21322549.732    21322548.9474   21322553.3634
     -1714.958       -1336.331
  -3948064.374 9  -3057901.46845  24412515.869    24412515.0404   24412519.7284
      4320.422        3366.562
  -1902139.659 9  -1478431.74546  23485976.203    23485974.7434   23485980.0404
       107.985          84.144
  -5597392.645 9  -4352386.68148  20667526.829    20667525.5734   20667529.6864
      1540.156        1200.121
  -1282356.741 9   -994897.20848  22269654.154    22269653.5694   22269656.9814
      -246.122        -191.783
  -3313333.617 9  -2576610.55348  20533289.470    20533288.2714   20533292.3364
      1026.036         799.509
  -8624828.605 9  -6483389.525 9  20914618.493    20914617.616    20914621.184
      2646.332        2062.077
  -9937492.789 9  -7723608.72947  22868427.450    22868426.3674   22868431.2564
      3363.998        2621.297
 96 10 10 16 14 29.9990000  0  8  6  3 22 23 26 17 28 21            -0.000173432
   3591724.634 9   2795115.27148  21332369.773    21332368.9754   21332373.3614
     -1726.373       -1345.226
  -4077684.212 9  -3158903.93545  24387850.117    24387849.0784   24387853.6514
      4319.746        3366.036
  -1905185.657 9  -1480805.26246  23485396.350    23485394.9194   23485400.2874
        94.177          73.385
  -5643463.649 9  -4388286.15548  20658759.819    20658758.5374   20658762.6664
      1530.247        1192.400
  -1274719.152 9   -988945.83848  22271107.545    22271106.9494   22271110.3644
      -264.032        -205.739
  -3344056.953 9  -2600550.81748  20527442.998    20527441.8064   20527445.8794
      1020.960         795.553
  -8704042.572 9  -6545114.689 9  20899544.542    20899543.702    20899547.275
      2633.483        2052.065
 -10038333.216 9  -7802185.66047  22849238.161    22849237.0614   22849241.9654
      3357.640        2616.343
 96 10 10 16 14 59.9990000  0  8  6  3 22 23 26 17 28 21            -0.000189029
   3643683.907 9   2835603.00248  21342257.333    21342256.5344   21342260.8794
     -1738.435       -1354.625
  -4207267.152 9  -3259877.66046  24363191.482    24363190.3304   24363195.0134
      4318.118        3364.767
  -1907804.114 9  -1482845.63047  23484898.121    23484896.7574   23484902.0584
        79.481          61.933
  -5689223.015 9  -4423942.79248  20650052.076    20650050.8644   20650054.9344
      1519.327        1183.891
  -1266526.271 9   -982561.76548  22272666.554    22272666.0024   22272669.3954
      -282.852        -220.404
  -3374605.182 9  -2624354.62648  20521629.870    20521628.6954   20521632.7564
      1014.587         790.587
  -8782851.368 9  -6606524.140 9  20884547.795    20884546.913    20884550.453
      2619.492        2041.163
 -10138959.577 9  -7880595.78747  22830089.447    22830088.4244   22830093.4354
      3349.902        2610.313
 96 10 10 16 15 29.9990000  0  8  6  3 22 23 26 17 28 21            -0.000204676
   3695953.675 9   2876332.66948  21352203.980    21352203.1824   21352207.5164
     -1748.244       -1362.268
  -4336845.559 9  -3360847.83346  24338533.480    24338532.4234   24338536.9884
      4318.266        3364.883
  -1910030.218 9  -1484580.25947  23484474.588    23484473.2174   23484478.3584
        66.992          52.202
  -5734695.197 9  -4459375.65548  20641399.042    20641397.8084   20641401.8534
      1510.071        1176.679
  -1257835.458 9   -975789.70348  22274320.254    22274319.7764   22274323.2334
      -298.264        -232.413
  -3405005.719 9  -2648043.35948  20515844.896    20515843.6894   20515847.7804
      1010.213         787.179
  -8861285.278 9  -6667641.471 9  20869622.309    20869621.436    20869624.995
      2607.497        2031.816
 -10239401.123 9  -7958861.91047  22810976.031    22810974.9904   22810980.0504
      3344.430        2606.049
 96 10 10 16 15 59.9990000  0  8  6  3 22 23 26 17 28 21            -0.000220360
   3748574.275 9   2917335.71548  21362217.343    21362216.5574   21362220.9294
     -1761.146       -1372.322
  -4466364.031 9  -3461771.33146  24313886.846    24313885.8844   24313890.3034
      4314.962        3362.308
  -1911838.914 9  -1485989.69547  23484130.455    23484129.0824   23484134.3924
        52.445          40.866
  -5779834.366 9  -4494549.02548  20632809.307    20632808.1014   20632812.1284
      1497.847        1167.154
  -1248644.109 9   -968627.61048  22276069.275    22276068.7854   22276072.2774
      -315.696        -245.997
  -3435222.978 9  -2671589.27148  20510094.732    20510093.5564   20510097.6514
      1002.916         781.493
  -8939307.220 9  -6728437.787 9  20854775.254    20854774.373    20854777.917
      2592.707        2020.291
 -10339630.734 9  -8036962.86547  22791902.944    22791901.9184   22791906.9854
      3336.363        2599.763
 96 10 10 16 16 29.9990000  0  8  6  3 22 23 26 17 28 21            -0.000236104
   3801537.703 9   2958605.89748  21372295.875    21372295.1294   21372299.5234
     -1770.697       -1379.764
  -4595824.304 9  -3562649.45246  24289251.459    24289250.5014   24289254.8784
      4314.662        3362.074
  -1913269.683 9  -1487104.53847  23483858.444    23483857.0224   23483861.9264
        41.948          32.687
  -5824642.318 9  -4529464.30448  20624282.644    20624281.4344   20624285.4904
      1488.255        1159.679
  -1238977.616 9   -961095.28048  22277908.782    22277908.2564   22277911.7444
      -329.746        -256.945
  -3465262.169 9  -2694996.43448  20504378.512    20504377.3344   20504381.4044
       998.740         778.239
  -9016929.596 9  -6788922.756 9  20840004.247    20840003.356    20840006.867
      2581.129        2011.269
 -10439669.808 9  -8114915.38547  22772866.216    22772865.1594   22772870.1084
      3332.050        2596.403
 96 10 10 16 16 59.9990000  0  8  6  3 22 23 26 17 28 21            -0.000251906
   3854852.231 9   3000149.65848  21382441.278    21382440.5364   21382444.9784
     -1784.085       -1390.196
  -4725211.399 9  -3663470.59646  24264629.808    24264628.9194   24264633.2694
      4310.815        3359.077
  -1914312.660 9  -1487917.26347  23483659.993    23483658.7574   23483663.7244
        27.145          21.152
  -5869085.111 9  -4564095.04648  20615825.469    20615824.2604   20615828.2804
      1474.219        1148.742
  -1228821.511 9   -953181.43348  22279841.509    22279840.9434   22279844.3974
      -347.671        -270.912
  -3495114.157 9  -2718257.72148  20498697.878    20498696.6794   20498700.7534
       991.166         772.337
  -9094136.374 9  -6849083.880 9  20825312.289    20825311.394    20825314.925
      2565.639        1999.199
 -10539519.470 9  -8192720.29747  22753865.484    22753864.4144   22753869.3154
      3324.353        2590.405
 96 10 10 16 17 29.9990000  0  8  6  3 22 23 26 17 28 21            -0.000267765
   3908516.351 9   3041965.83548  21392653.217    21392652.4624   21392656.9234
     -1794.761       -1398.515
  -4854535.138 9  -3764242.31946  24240020.109    24240019.3344   24240023.8254
      4309.546        3358.088
  -1914968.191 9  -1488428.09647  23483535.262    23483533.8674   23483538.9154
        15.361          11.970
  -5913165.078 9  -4598443.06448  20607437.324    20607436.1164   20607440.1704
      1463.323        1140.252
  -1218188.475 9   -944895.95448  22281864.931    22281864.3604   22281867.7994
      -362.514        -282.478
  -3524802.564 9  -2741391.54648  20493048.357    20493047.1614   20493051.2584
       986.806         768.940
  -9170936.411 9  -6908928.062 9  20810697.742    20810696.830    20810700.388
      2553.133        1989.454
 -10639200.002 9  -8270393.41447  22734896.823    22734895.7794   22734900.7114
      3319.843        2586.891
 96 10 10 16 17 59.9990000  0  8  6  3 22 23 26 17 28 21            -0.000283665
   3962544.558 9   3084065.71748  21402934.392    21402933.7254   21402938.1414
     -1806.481       -1407.648
  -4983777.303 9  -3864950.48546  24215426.259    24215425.3364   24215429.9124
      4307.229        3356.282
  -1915227.285 9  -1488630.03547  23483486.109    23483484.7484   23483489.8584
         2.463           1.919
  -5956873.349 9  -4632501.45448  20599119.889    20599118.7054   20599122.7984
      1451.191        1130.798
  -1207044.906 9   -936212.65948  22283985.448    22283984.8734   22283988.3114
      -380.011        -296.112
  -3554305.130 9  -2764380.55348  20487434.186    20487433.0244   20487437.1084
       980.500         764.026
  -9247312.678 9  -6968442.031 9  20796163.811    20796162.897    20796166.461
      2539.167        1978.572
 -10738692.503 9  -8347920.02847  22715964.108    22715963.0564   22715967.9114
      3313.433        2581.896
 96 10 10 16 18 29.9990000  0  8  6  3 22 23 26 17 28 21            -0.000299618
   4016900.814 9   3126421.21848  21413278.125    21413277.4274   21413281.8034
     -1817.965       -1416.596
  -5112963.136 9  -3965614.80746  24190843.118    24190842.2534   24190846.4444
      4304.510        3354.164
  -1915115.722 9  -1488543.14047  23483507.281    23483506.0054   23483511.0734
       -10.682          -8.324
  -6000233.020 9  -4666288.20748  20590868.823    20590867.6274   20590871.7344
      1438.916        1121.233
  -1195385.434 9   -927127.36348  22286204.158    22286203.6214   22286207.0174
      -397.962        -310.100
  -3583636.984 9  -2787236.53848  20481852.532    20481851.3654   20481855.4434
       974.319         759.210
  -9323287.424 9  -7027643.127 9  20781706.287    20781705.390    20781708.921
      2525.047        1967.569
 -10838011.463 9  -8425311.41447  22697064.279    22697063.2934   22697068.0844
      3307.054        2576.925
 96 10 10 16 18 59.9990000  0  8  6  3 22 23 26 17 28 21            -0.000315593
   4071609.280 9   3169051.17248  21423688.833    21423688.1354   21423692.4694
     -1828.548       -1424.842
  -5242061.197 9  -4066210.72046  24166276.475    24166275.7674   24166279.7124
      4302.817        3352.844
  -1914592.651 9  -1488135.57947  23483606.585    23483605.3824   23483610.7314
       -23.464         -18.284
  -6043234.414 9  -4699795.78048  20582685.864    20582684.7064   20582688.8424
      1428.799        1113.350
  -1183184.660 9   -917620.28048  22288525.837    22288525.3264   22288528.7274
      -414.576        -323.046
  -3612785.254 9  -2809949.47348  20476305.790    20476304.6304   20476308.7154
       969.752         755.651
  -9398830.505 9  -7086507.867 9  20767330.889    20767330.017    20767333.543
      2511.944        1957.359
 -10937133.701 9  -8502549.49147  22678201.879    22678200.8774   22678205.7154
      3301.889        2572.901
 96 10 10 16 19 29.9990000  0  8  6  3 22 23 26 17 28 21            -0.000331591
   4126646.683 9   3211937.44548  21434162.113    21434161.4204   21434165.7724
     -1838.791       -1432.824
  -5371089.517 9  -4166752.23846  24141722.957    24141722.5014   24141726.5254
      4300.695        3351.191
  -1913677.478 9  -1487422.43346  23483780.788    23483779.5504   23483784.5834
       -35.888         -27.965
  -6085929.753 9  -4733064.86548  20574561.205    20574560.0254   20574564.1474
      1419.219        1105.885
  -1170476.307 9   -907717.67648  22290944.210    22290943.6724   22290947.0844
      -430.886        -335.755
  -3641778.131 9  -2832541.32248  20470788.569    20470787.4544   20470791.5634
       964.679         751.698
  -9473968.907 9  -7145057.265 9  20753032.560    20753031.692    20753035.172
      2498.948        1947.232
 -11036090.977 9  -8579659.04647  22659370.990    22659369.9984   22659374.7864
      3296.860        2568.982
 96 10 10 16 19 59.9990000  0  8  6  3 22 23 26 17 28 21            -0.000347601
   4182026.800 9   3255090.75748  21444700.698    21444699.9514   21444704.2694
     -1852.318       -1443.365
  -5500017.908 9  -4267215.87046  24117188.842    24117188.2094   24117192.5484
      4295.448        3347.102
  -1912350.021 9  -1486388.09447  23484033.245    23484032.0494   23484037.1874
       -51.581         -40.193
  -6128300.980 9  -4766081.39548  20566498.182    20566497.0024   20566501.1244
      1406.601        1096.053
  -1157240.005 9   -897403.68348  22293463.028    22293462.4854   22293465.8664
      -450.367        -350.935
  -3670584.867 9  -2854988.12648  20465306.831    20465305.6944   20465309.8204
       956.830         745.582
  -9548679.668 9  -7203273.440 9  20738815.575    20738814.708    20738818.197
      2482.803        1934.652
 -11134861.765 9  -8656623.28947  22640575.482    22640574.4764   22640579.2344
      3288.876        2562.761
 96 10 10 16 20 29.9990000  0  8  6  3 22 23 26 17 28 21            -0.000363614
   4237768.478 9   3298525.81248  21455308.073    21455307.2814   21455311.5584
     -1864.844       -1453.125
  -5628838.846 9  -4367595.79246  24092675.044    24092674.3524   24092678.6714
      4291.494        3344.021
  -1910604.235 9  -1485027.71446  23484365.480    23484364.2314   23484369.0804
       -65.845         -51.308
  -6170346.064 9  -4798843.79148  20558497.236    20558496.0844   20558500.1774
      1395.377        1087.307
  -1143492.427 9   -886691.29948  22296079.127    22296078.5344   22296081.9374
      -467.032        -363.921
  -3699217.744 9  -2877299.45648  20459858.173    20459857.0424   20459861.1844
       950.950         741.000
  -9622958.670 9  -7261153.173 9  20724680.680    20724679.850    20724683.395
      2468.032        1923.142
 -11233452.456 9  -8733447.17048  22621814.211    22621813.2824   22621818.1564
      3282.698        2557.946
 96 10 10 16 20 59.9990000  0  8  6  3 22 23 26 17 28 21            -0.000379644
   4293867.656 9   3342239.43448  21465983.418    21465982.6234   21465986.8914
     -1876.767       -1462.416
  -5757561.026 9  -4467898.80646  24068179.967    24068179.3974   24068183.6214
      4288.274        3341.512
  -1908459.111 9  -1483356.23047  23484773.801    23484772.5794   23484777.5584
       -78.733         -61.350
  -6212079.735 9  -4831363.52148  20550555.570    20550554.4294   20550558.5214
      1385.018        1079.235
  -1129274.862 9   -875612.68648  22298784.611    22298784.0084   22298787.4644
      -482.493        -375.969
  -3727693.808 9  -2899488.59048  20454439.386    20454438.2334   20454442.3604
       945.732         736.934
  -9696816.648 9  -7318704.843 9  20710625.972    20710625.137    20710628.707
      2454.110        1912.293
 -11331870.777 9  -8810136.76647  22603085.900    22603084.9204   22603089.6864
      3276.764        2553.323
 96 10 10 16 21 29.9990000  0  8  6  3 22 23 26 17 28 21            -0.000395703
   4350332.524 9   3386238.00848  21476728.317    21476727.5584   21476731.7974
     -1888.251       -1471.364
  -5886173.187 9  -4568116.05246  24043705.941    24043705.2934   24043709.7004
      4285.144        3339.073
  -1905938.913 9  -1481392.45747  23485253.692    23485252.3244   23485257.1264
       -89.937         -70.081
  -6253481.280 9  -4863624.45748  20542677.144    20542675.9914   20542680.0304
      1374.273        1070.862
  -1114585.974 9   -864166.81648  22301579.776    22301579.2434   22301582.6694
      -497.533        -387.688
  -3755996.868 9  -2921542.91948  20449053.522    20449052.3734   20449056.4504
       940.391         732.772
  -9770248.268 9  -7375924.283 9  20696652.424    20696651.589    20696655.125
      2440.556        1901.732
 -11430096.493 9  -8886676.25347  22584394.123    22584393.1174   22584397.9414
      3270.809        2548.682
 96 10 10 16 21 59.9990000  0  8  6  3 22 23 26 17 28 21            -0.000411803
   4407166.109 9   3430523.90448  21487543.385    21487542.6654   21487546.8924
     -1901.544       -1481.723
  -6014678.681 9  -4668250.16846  24019252.218    24019251.5154   24019256.0094
      4280.938        3335.796
  -1903064.322 9  -1479152.53847  23485800.634    23485799.2824   23485804.4964
      -102.510         -79.878
  -6294539.252 9  -4895617.66848  20534864.093    20534862.9524   20534866.9844
      1362.072        1061.355
  -1099427.002 9   -852354.63648  22304464.455    22304463.9244   22304467.3724
      -513.889        -400.433
  -3784123.180 9  -2943459.52348  20443701.232    20443700.1084   20443704.2104
       933.773         727.615
  -9843251.416 9  -7432809.849 9  20682760.427    20682759.569    20682763.076
      2425.399        1889.921
 -11528117.591 9  -8963056.32548  22565741.394    22565740.4404   22565745.1024
      3262.928        2542.541
 96 10 10 16 22 29.9990000  0  8  6  3 22 23 26 17 28 21            -0.000427950
   4464368.536 9   3475097.20648  21498428.721    21498427.9694   21498432.1904
     -1913.802       -1491.274
  -6143076.525 9  -4768300.45446  23994818.905    23994818.1084   23994822.5764
      4276.956        3332.693
  -1899843.147 9  -1476642.54946  23486413.418    23486412.1164   23486417.2454
      -114.396         -89.140
  -6335255.054 9  -4927344.25348  20527116.184    20527115.0364   20527119.0664
      1350.278        1052.165
  -1083804.243 9   -840181.06948  22307437.445    22307436.8094   22307440.3134
      -529.737        -412.782
  -3812063.479 9  -2965231.18648  20438384.433    20438383.2434   20438387.3694
       926.942         722.292
  -9915820.697 9  -7489357.339 9  20668951.000    20668950.107    20668953.584
      2410.495        1878.308
 -11625915.682 9  -9039262.61148  22547130.998    22547130.0034   22547134.8254
      3254.984        2536.351
 96 10 10 16 22 59.9990000  0  8  6  3 22 23 26 17 28 21            -0.000444146
   4521914.241 9   3519937.98448  21509379.325    21509378.5834   21509382.7894
     -1923.467       -1498.805
  -6271379.378 9  -4868276.68846  23970403.696    23970402.8534   23970407.4254
      4275.774        3331.772
  -1896275.846 9  -1473862.86047  23487092.245    23487090.8724   23487096.2894
      -124.438         -96.965
  -6375640.150 9  -4958813.15148  20519431.196    20519430.0144   20519434.0644
      1341.109        1045.020
  -1067709.061 9   -827639.37848  22310500.224    22310499.6484   22310503.1474
      -544.368        -424.183
  -3839815.967 9  -2986856.49548  20433103.276    20433102.1314   20433106.2554
       922.388         718.744
  -9987958.320 9  -7545568.468 9  20655223.592    20655222.743    20655226.253
      2397.756        1868.381
 -11723491.295 9  -9115295.53347  22528562.816    22528561.8984   22528566.8154
      3249.239        2531.874
 96 10 10 16 23 29.9990000  0  8  6  3 22 23 26 17 28 21            -0.000460378
   4579803.918 9   3565046.79448  21520395.295    21520394.6274   21520398.8294
     -1933.239       -1506.420
  -6399591.156 9  -4968181.91946  23946005.755    23946004.9174   23946009.7924
      4274.330        3330.647
  -1892338.573 9  -1470794.89047  23487841.450    23487840.2294   23487845.5134
      -135.617        -105.675
  -6415691.963 9  -4990022.35048  20511809.580    20511808.3714   20511812.4544
      1331.706        1037.693
  -1051105.789 9   -814701.77548  22313659.747    22313659.1934   22313662.6654
      -559.868        -436.261
  -3867371.001 9  -3008327.95348  20427859.705    20427858.5724   20427862.6804
       917.273         714.758
 -10059650.316 9  -7601432.360 9  20641581.048    20641580.218    20641583.721
      2384.308        1857.902
 -11820839.719 9  -9191151.44248  22510038.158    22510037.2124   22510041.9794
      3243.397        2527.322
 96 10 10 16 23 59.9990000  0  8  6  3 22 23 26 17 28 21            -0.000476656
   4638001.401 9   3610395.46248  21531469.908    21531469.2414   21531473.4574
     -1944.332       -1515.064
  -6527748.374 9  -5068044.70046  23921618.289    23921617.4394   23921622.1414
      4271.625        3328.539
  -1888039.120 9  -1467444.62147  23488659.616    23488658.4104   23488663.5784
      -148.629        -115.815
  -6455450.265 9  -5021002.83748  20504243.771    20504242.5974   20504246.6774
      1321.061        1029.398
  -1034022.939 9   -801390.47048  22316910.442    22316909.9714   22316913.4194
      -576.640        -449.330
  -3894760.120 9  -3029670.12048  20422647.685    20422646.6004   20422650.6904
       910.963         709.841
 -10130919.022 9  -7656966.407 9  20628019.079    20628018.256    20628021.750
      2369.191        1846.123
 -11918001.805 9  -9266862.14147  22491548.899    22491547.8374   22491552.6494
      3236.423        2521.888
 96 10 10 16 24 29.9990000  0  8  6  3 22 23 26 17 28 21            -0.000492958
   4696535.811 9   3656006.67348  21542608.634    21542607.9944   21542612.2184
     -1955.726       -1523.942
  -6655814.322 9  -5167836.34946  23897247.932    23897247.2614   23897251.8784
      4268.303        3325.950
  -1883341.082 9  -1463783.84247  23489553.660    23489552.4264   23489557.7174
      -162.336        -126.496
  -6494870.929 9  -5051720.23048  20496742.162    20496741.0624   20496745.1624
      1309.161        1020.125
  -1016421.885 9   -787675.37348  22320259.776    22320259.3114   22320262.7474
      -594.589        -463.316
  -3921954.990 9  -3050860.93348  20417472.680    20417471.5844   20417475.6874
       904.463         704.776
 -10201724.990 9  -7712139.880 9  20614545.155    20614544.353    20614547.793
      2353.421        1833.835
 -12014959.768 9  -9342413.77348  22473098.334    22473097.3504   22473102.2684
      3229.731        2516.674
 96 10 10 16 24 59.9990000  0  8  6  3 22 23 26 17 28 21            -0.000509307
   4755363.380 9   3701846.30747  21553803.135    21553802.5264   21553806.7254
     -1966.395       -1532.256
  -6783826.456 9  -5267586.06546  23872888.138    23872887.4294   23872892.0624
      4265.376        3323.670
  -1878286.579 9  -1459845.26947  23490515.491    23490514.1984   23490519.6224
      -174.732        -136.155
  -6533982.481 9  -5082196.75548  20489299.419    20489298.3334   20489302.4644
      1297.994        1011.424
   -998326.542 9   -773575.10348  22323703.241    22323702.7894   22323706.1474
      -611.860        -476.774
  -3949012.221 9  -3071944.48848  20412323.846    20412322.7804   20412326.8864
       899.088         700.588
 -10272105.998 9  -7766982.216 9  20601152.063    20601151.271    20601154.733
      2338.428        1822.152
 -12111771.291 9  -9417851.32847  22454675.718    22454674.7144   22454679.5694
      3224.050        2512.247
 96 10 10 16 25 29.9990000  0  8  6  3 22 23 26 17 28 21            -0.000525670
   4814540.855 9   3747958.60347  21565064.363    21565063.6744   21565067.8844
     -1977.936       -1541.249
  -6911699.655 9  -5367227.47646  23848554.659    23848553.9014   23848558.7244
      4260.355        3319.757
  -1872836.316 9  -1455598.36647  23491552.636    23491551.4034   23491556.8894
      -187.675        -146.240
  -6572722.434 9  -5112383.72348  20481927.458    20481926.3554   20481930.4724
      1285.486        1001.677
   -979697.282 9   -759058.80247  22327248.240    22327247.7844   22327251.1364
      -628.982        -490.116
  -3975875.317 9  -3092876.78148  20407211.978    20407210.9264   20407214.9914
       892.700         695.610
 -10342005.830 9  -7821449.611 9  20587850.559    20587849.780    20587853.246
      2322.461        1809.710
 -12208382.786 9  -9493132.98048  22436291.149    22436290.1804   22436295.0554
      3217.633        2507.246
 96 10 10 16 25 59.9990000  0  8  6  3 22 23 26 17 28 21            -0.000542094
   4874017.362 9   3794303.90647  21576382.434    21576381.6834   21576385.9434
     -1987.520       -1548.717
  -7039470.443 9  -5466789.10946  23824240.662    23824239.8794   23824244.5534
      4257.303        3317.379
  -1867058.315 9  -1451096.02546  23492652.111    23492650.8344   23492656.2054
      -197.995        -154.282
  -6611131.380 9  -5142312.76948  20474618.498    20474617.3344   20474621.4654
      1274.698         993.271
   -960612.547 9   -744187.57947  22330879.861    22330879.4864   22330882.8044
      -643.809        -501.669
  -4002602.211 9  -3113702.92648  20402126.078    20402124.9964   20402129.0274
       888.612         692.425
 -10411478.907 9  -7875584.467 9  20574630.264    20574629.484    20574632.953
      2308.665        1798.960
 -12304854.725 9  -9568305.88848  22417933.201    22417932.2004   22417937.0994
      3213.245        2503.827
 96 10 10 16 26 29.9990000  0  8  6  3 22 23 26 17 28 21            -0.000558540
   4933842.320 9   3840920.72447  21587766.661    21587765.9844   21587770.2714
     -1999.935       -1558.391
  -7167079.882 9  -5566225.03846  23799957.317    23799956.6434   23799961.2404
      4250.912        3312.399
  -1860901.816 9  -1446298.82647  23493823.630    23493822.3304   23493827.8954
      -211.775        -165.019
  -6649152.013 9  -5171939.22548  20467383.439    20467382.2494   20467386.3584
      1261.008         982.604
   -941009.315 9   -728912.33247  22334610.200    22334609.8464   22334613.1344
      -662.143        -515.956
  -4029140.201 9  -3134381.88248  20397076.128    20397075.0044   20397079.0174
       881.415         686.817
 -10480474.099 9  -7929346.954 9  20561500.909    20561500.111    20561503.583
      2291.832        1785.843
 -12401117.138 9  -9643315.54648  22399615.022    22399614.0144   22399618.8834
      3205.025        2497.422
 96 10 10 16 26 59.9990000  0  8  6  3 22 23 26 17 28 21            -0.000575005
   4994003.484 9   3887799.51947  21599214.839    21599214.2454   21599218.5844
     -2010.829       -1566.880
  -7294528.872 9  -5665535.94746  23775704.567    23775703.9094   23775708.4454
      4245.734        3308.364
  -1854365.967 9  -1441205.92546  23495067.437    23495066.1514   23495071.5444
      -224.069        -174.599
  -6686813.253 9  -5201285.64648  20460216.700    20460215.5614   20460219.6854
      1249.771         973.848
   -920905.431 9   -713246.97047  22338435.836    22338435.4694   22338438.7654
      -678.046        -528.348
  -4055488.622 9  -3154913.12348  20392062.153    20392061.0774   20392065.0814
       875.037         681.847
 -10549001.737 9  -7982745.110 9  20548460.494    20548459.711    20548463.209
      2276.601        1773.975
 -12497158.025 9  -9718152.59648  22381339.019    22381338.0564   22381342.9034
      3197.617        2491.650
 96 10 10 16 27 29.9990000  0  8  6  3 22 23 26 17 28 21            -0.000591507
   5054484.117 9   3934927.26947  21610723.994    21610723.3844   21610727.7184
     -2021.522       -1575.212
  -7421846.376 9  -5764744.38446  23751476.895    23751476.1554   23751480.8574
      4242.055        3305.497
  -1847464.793 9  -1435828.38447  23496380.719    23496379.5204   23496384.8534
      -236.215        -184.064
  -6724149.662 9  -5230378.93748  20453111.828    20453110.6564   20453114.7914
      1239.000         965.455
   -900342.645 9   -697224.00247  22342348.846    22342348.4234   22342351.7804
      -693.215        -540.168
  -4081654.282 9  -3175301.94848  20387082.968    20387081.9194   20387085.9624
       869.009         677.150
 -10617080.250 9  -8035793.294 9  20535505.489    20535504.765    20535508.275
      2261.626        1762.306
 -12592981.703 9  -9792820.36048  22363104.345    22363103.3614   22363108.3474
      3190.294        2485.943
 96 10 10 16 27 59.9990000  0  8  6  3 22 23 26 17 28 21            -0.000608046
   5115286.093 9   3982305.40147  21622294.279    21622293.6524   21622297.9964
     -2032.262       -1583.581
  -7549062.600 9  -5863873.86746  23727268.453    23727267.6674   23727272.5514
      4238.712        3302.892
  -1840206.174 9  -1430172.32646  23497762.307    23497760.9554   23497766.0864
      -248.030        -193.270
  -6761168.483 9  -5259224.77048  20446067.317    20446066.2114   20446070.3244
      1228.649         957.389
   -879306.921 9   -680832.52747  22346351.862    22346351.3664   22346354.7484
      -709.607        -552.941
  -4107631.363 9  -3195543.83348  20382139.729    20382138.6434   20382142.6944
       862.364         671.972
 -10684706.966 9  -8088489.437 9  20522636.532    20522635.791    20522639.333
      2246.421        1750.458
 -12688577.905 9  -9867310.88748  22344912.960    22344911.9844   22344916.8754
      3182.336        2479.742
 96 10 10 16 28 29.9990000  0  8  6  3 22 23 26 17 28 21            -0.000624618
   5176411.007 9   4029935.17847  21633925.989    21633925.4074   21633929.7394
     -2042.293       -1591.397
  -7676180.757 9  -5962926.96246  23703078.459    23703077.8314   23703082.7844
      4236.228        3300.957
  -1832586.596 9  -1424235.01547  23499212.253    23499210.9264   23499215.8644
      -259.436        -202.158
  -6797880.591 9  -5287831.59948  20439081.254    20439080.1474   20439084.2594
      1219.221         950.042
   -857780.939 9   -664059.02347  22350448.148    22350447.6524   22350451.0524
      -724.904        -564.860
  -4133402.791 9  -3215625.47348  20377235.569    20377234.4944   20377238.5394
       856.109         667.098
 -10751873.727 9  -8140827.169 9  20509855.135    20509854.397    20509857.940
      2231.720        1739.003
 -12783932.490 9  -9941613.14748  22326767.612    22326766.6224   22326771.5374
      3175.203        2474.184
 96 10 10 16 28 59.9990000  0  8  6  3 22 23 26 17 28 21            -0.000641218
   5237875.389 9   4077829.48547  21645622.368    21645621.7364   21645626.0864
     -2055.344       -1601.567
  -7803193.428 9  -6061897.86446  23678908.805    23678908.0744   23678913.0824
      4231.203        3297.041
  -1824590.921 9  -1418004.68746  23500733.584    23500732.2314   23500737.5124
      -273.666        -213.246
  -6834281.167 9  -5316195.68048  20432154.414    20432153.3054   20432157.4534
      1207.232         940.700
   -835767.611 9   -646905.77047  22354637.116    22354636.6384   22354640.0884
      -742.902        -578.885
  -4158941.268 9  -3235525.57648  20372375.740    20372374.6744   20372378.7034
       846.447         659.569
 -10818557.907 9  -8192788.863 9  20497165.574    20497164.824    20497168.386
      2213.703        1724.963
 -12879042.966 9 -10015725.16848  22308668.657    22308667.6674   22308672.6384
      3165.429        2466.568
 96 10 10 16 29 29.9990000  0  8  6  3 22 23 26 17 28 21            -0.000657842
   5299692.217 9   4125998.41647  21657385.706    21657385.1044   21657389.4934
     -2066.347       -1610.140
  -7930097.647 9  -6160784.25346  23654759.759    23654759.0304   23654764.0014
      4228.320        3294.795
  -1816208.120 9  -1411472.60247  23502328.344    23502327.2314   23502332.5214
      -285.765        -222.674
  -6870345.446 9  -5344297.71148  20425291.577    20425290.5004   20425294.6594
      1196.400         932.260
   -813246.407 9   -629356.77047  22358922.840    22358922.3024   22358925.7714
      -759.246        -591.620
  -4184233.607 9  -3255233.89448  20367562.793    20367561.7074   20367565.7454
       839.013         653.776
 -10884739.450 9  -8244358.887 9  20484571.669    20484570.909    20484574.470
      2197.754        1712.536
 -12973907.714 9 -10089645.75348  22290616.525    22290615.5724   22290620.3524
      3158.250        2460.974
 96 10 10 16 29 59.9990000  0  8  6  3 22 23 26 17 28 21            -0.000674491
   5361847.810 9   4174431.32447  21669213.565    21669212.9404   21669217.3474
     -2077.092       -1618.513
  -8056886.965 9  -6259581.11546  23630632.701    23630631.9204   23630636.7894
      4224.402        3291.742
  -1807447.833 9  -1404646.41746  23503995.772    23503994.4764   23503999.6634
      -298.130        -232.309
  -6906073.001 9  -5372137.35948  20418492.848    20418491.7524   20418495.9114
      1185.681         923.907
   -790216.010 9   -611410.99847  22363305.399    22363304.8774   22363308.3194
      -775.670        -604.418
  -4209281.668 9  -3274751.87048  20362796.325    20362795.2494   20362799.2524
       831.333         647.792
 -10950427.157 9  -8295544.116 9  20472071.795    20472070.966    20472074.519
      2181.724        1700.045
 -13068548.946 9 -10163392.12548  22272606.859    22272605.8654   22272610.7634
      3151.487        2455.704
 96 10 10 16 30 29.9990000  0  8  6  3 22 23 26 17 28 21            -0.000691166
   5424331.957 9   4223120.24247  21681103.905    21681103.3124   21681107.7244
     -2088.440       -1627.356
  -8183547.286 9  -6358277.45546  23606530.162    23606529.3214   23606534.1014
      4219.397        3287.842
  -1798301.148 9  -1397519.09647  23505736.091    23505734.9794   23505740.2684
      -311.561        -242.775
  -6941464.736 9  -5399715.32848  20411758.040    20411756.9164   20411761.0664
      1173.910         914.735
   -766701.502 9   -593088.00247  22367780.129    22367779.6044   22367783.0084
      -791.856        -617.031
  -4234104.213 9  -3294094.10948  20358072.766    20358071.6974   20358075.6954
       823.549         641.726
 -11015628.682 9  -8346350.495 9  20459664.339    20459663.544    20459667.115
      2164.995        1687.009
 -13162989.543 9 -10236982.17948  22254635.451    22254634.4474   22254639.3094
      3144.652        2450.378
 96 10 10 16 30 59.9990000  0  8  6  3 22 23 26 17 28 21            -0.000707864
   5487143.724 9   4272064.45747  21693056.606    21693055.9914   21693060.4504
     -2099.014       -1635.595
  -8310053.894 9  -6456854.02546  23582456.745    23582455.9594   23582460.7054
      4214.165        3283.765
  -1788771.851 9  -1390093.73747  23507549.512    23507548.3274   23507553.7874
      -323.638        -252.185
  -6976514.628 9  -5427026.92148  20405088.275    20405087.1424   20405091.2854
      1162.624         905.941
   -742705.204 9   -574389.58347  22372346.438    22372345.9504   22372349.3364
      -807.931        -629.557
  -4258708.157 9  -3313266.01348  20353390.802    20353389.7324   20353393.7474
       816.925         636.565
 -11080341.067 9  -8396775.729 9  20447350.021    20447349.212    20447352.732
      2149.195        1674.697
 -13257238.328 9 -10310422.78048  22236700.456    22236699.4604   22236704.3074
      3138.530        2445.608
 96 10 10 16 31 29.9990000  0  8  6  3 22 23 26 17 28 21            -0.000724570
   5550295.819 9   4321273.85547  21705074.029    21705073.4154   21705077.9004
     -2111.011       -1644.944
  -8436372.776 9  -6555284.29946  23558419.016    23558418.2404   23558422.9524
      4206.964        3278.154
  -1778870.073 9  -1382378.09047  23509433.742    23509432.5574   23509437.9974
      -336.361        -262.099
  -7011200.690 9  -5454055.01648  20398487.751    20398486.6404   20398490.7504
      1149.963         896.075
   -718206.961 9   -555300.03947  22377008.310    22377007.8204   22377011.1684
      -825.116        -642.947
  -4283105.372 9  -3332276.83448  20348748.151    20348747.0954   20348751.0964
       809.588         630.848
 -11144563.034 9  -8446818.818 9  20435128.949    20435128.166    20435131.684
      2132.339        1661.563
 -13351284.916 9 -10383705.80748  22218803.945    22218803.0014   22218807.8974
      3131.164        2439.868
 96 10 10 16 31 59.9990000  0  8  6  3 22 23 26 17 28 21            -0.000741277
   5613791.115 9   4370750.68047  21717156.737    21717156.1904   21717160.6494
     -2121.818       -1653.365
  -8562477.720 9  -6653547.88946  23534421.919    23534421.2524   23534425.8864
      4200.294        3272.956
  -1768608.498 9  -1374382.03547  23511386.613    23511385.3794   23511390.4904
      -347.592        -270.851
  -7045531.624 9  -5480806.38948  20391954.866    20391953.7124   20391957.7804
      1138.989         887.524
   -693207.453 9   -535819.90447  22381765.519    22381765.0424   22381768.4074
      -841.240        -655.512
  -4307301.014 9  -3351130.58148  20344143.888    20344142.8134   20344146.8234
       803.846         626.374
 -11208292.246 9  -8496477.943 9  20423001.630    20423000.896    20423004.425
      2116.413        1649.153
 -13445117.596 9 -10456822.16848  22200948.147    22200947.1984   22200952.0364
      3124.536        2434.703
 96 10 10 16 32 29.9990000  0  8  6  3 22 23 26 17 28 21            -0.000757973
   5677633.179 9   4420497.72247  21729305.536    21729304.9004   21729309.4274
     -2133.690       -1662.616
  -8688358.377 9  -6751636.72046  23510467.546    23510466.9824   23510471.5584
      4192.380        3266.790
  -1757982.900 9  -1366102.41446  23513408.786    23513407.4534   23513412.6354
      -360.177        -280.657
  -7079514.298 9  -5507286.38248  20385488.173    20385487.0244   20385491.0934
      1127.243         878.371
   -667703.574 9   -515946.75347  22386618.689    22386618.2454   22386621.6114
      -858.619        -669.054
  -4331305.526 9  -3369835.39348  20339575.963    20339574.9134   20339578.9484
       796.817         620.896
 -11271518.218 9  -8545744.931 9  20410970.209    20410969.433    20410972.930
      2099.161        1635.710
 -13538724.263 9 -10529762.42048  22183135.443    22183134.4494   22183139.1574
      3116.394        2428.359
 96 10 10 16 32 59.9990000  0  8  6  3 22 23 26 17 28 21            -0.000774654
   5741821.877 9   4470514.86647  21741520.178    21741519.6014   21741524.1674
     -2144.946       -1671.386
  -8814010.786 9  -6849547.63846  23486556.586    23486556.0104   23486560.6934
      4185.016        3261.051
  -1746987.123 9  -1357534.26846  23515501.164    23515499.8834   23515504.9464
      -372.531        -290.284
  -7113149.841 9  -5533495.89048  20379087.481    20379086.3494   20379090.4714
      1115.612         869.308
   -641673.108 9   -495663.27947  22391571.973    22391571.6754   22391575.0424
      -876.230        -682.777
  -4355097.334 9  -3388374.46748  20335048.558    20335047.4814   20335051.5334
       789.898         615.505
 -11334230.861 9  -8594611.929 9  20399036.365    20399035.599    20399039.104
      2082.160        1622.462
 -13632085.223 9 -10602511.19748  22165369.448    22165368.4384   22165373.1954
      3108.088        2421.887
 96 10 10 16 33 29.9990000  0  8  6  3 22 23 26 17 28 21            -0.000791327
   5806337.605 9   4520786.83647  21753797.153    21753796.5394   21753801.1244
     -2155.904       -1679.925
  -8939453.496 9  -6947295.15546  23462685.478    23462684.9284   23462689.6784
      4177.989        3255.576
  -1735611.535 9  -1348670.21746  23517665.754    23517664.4754   23517669.7504
      -385.783        -300.610
  -7146443.917 9  -5559439.32248  20372751.802    20372750.6894   20372754.7824
      1104.005         860.264
   -615128.867 9   -474979.46447  22396623.209    22396622.8994   22396626.2694
      -893.122        -695.939
  -4378680.176 9  -3406750.70348  20330560.894    20330559.8414   20330563.8674
       782.289         609.576
 -11396433.582 9  -8643081.580 9  20387199.586    20387198.825    20387202.329
      2064.722        1608.874
 -13725194.705 9 -10675064.02048  22147651.217    22147650.2674   22147655.0814
      3099.458        2415.162
 96 10 10 16 33 59.9990000  0  8  6  3 22 23 26 17 28 21            -0.000808013
   5871149.129 9   4571289.30047  21766130.474    21766129.8034   21766134.3724
     -2165.373       -1687.304
  -9064717.397 9  -7044903.38346  23438848.653    23438848.0214   23438852.7704
      4172.523        3251.317
  -1723854.174 9  -1339508.58647  23519903.244    23519901.9024   23519907.1894
      -398.511        -310.528
  -7179412.213 9  -5585128.89248  20366478.115    20366477.0044   20366481.1124
      1093.182         851.830
   -588096.941 9   -453915.63147  22401767.132    22401766.8814   22401770.2834
      -909.329        -708.568
  -4402053.759 9  -3424963.88548  20326113.100    20326111.9964   20326116.0374
       775.437         604.237
 -11458130.867 9  -8691157.388 9  20375458.953    20375458.208    20375461.710
      2047.932        1595.791
 -13818073.043 9 -10747436.74948  22129977.115    22129976.1104   22129980.8744
      3091.969        2409.326
 96 10 10 16 34 29.9990000  0  8  6  3 22 23 26 17 28 21            -0.000824726
   5936243.831 9   4622012.42147  21778517.670    21778516.9984   21778521.5064
     -2174.808       -1694.656
  -9189816.154 9  -7142382.90646  23415043.168    23415042.5544   23415047.3564
      4166.946        3246.971
  -1711709.525 9  -1330045.26846  23522214.416    23522213.0274   23522218.5104
      -411.453        -320.613
  -7212038.534 9  -5610551.98948  20360269.518    20360268.4004   20360272.5234
      1081.350         842.610
   -560583.203 9   -432476.36147  22407002.814    22407002.5644   22407005.9664
      -925.451        -721.131
  -4425203.081 9  -3443002.31248  20321707.953    20321706.8414   20321710.8804
       767.311         597.905
 -11519319.057 9  -8738836.497 9  20363815.226    20363814.483    20363817.959
      2030.778        1582.424
 -13910723.043 9 -10819631.52248  22112346.362    22112345.3994   22112350.2284
      3084.151        2403.235
 96 10 10 16 34 59.9990000  0  8  6  3 22 23 26 17 28 21            -0.000841481
   6001614.423 9   4672950.52447  21790957.363    21790956.6234   21790961.1314
     -2183.642       -1701.539
  -9314754.610 9  -7239737.50946  23391268.152    23391267.5544   23391272.4174
      4162.145        3243.230
  -1699193.363 9  -1320292.41047  23524596.172    23524594.8164   23524600.3304
      -423.161        -329.736
  -7244313.069 9  -5635700.97148  20354127.891    20354126.7704   20354130.8724
      1070.090         833.836
   -532590.235 9   -410663.67847  22412329.712    22412329.4364   22412332.8434
      -940.745        -733.048
  -4448119.836 9  -3460859.52948  20317347.085    20317345.9534   20317349.9834
       760.308         592.448
 -11579998.019 9  -8786118.807 9  20352268.441    20352267.682    20352271.108
      2014.191        1569.499
 -14003140.191 9 -10891644.87048  22094760.003    22094759.0094   22094763.7624
      3076.808        2397.513
 96 10 10 16 35 29.9990000  0  8  6  3 22 23 26 17 28 21            -0.000858284
   6067272.178 9   4724112.39147  21803451.613    21803450.9074   21803455.4074
     -2194.151       -1709.728
  -9439548.901 9  -7336979.78146  23367520.574    23367520.0204   23367524.9514
      4156.825        3239.084
  -1686324.103 9  -1310264.49546  23527045.214    23527043.7464   23527049.1824
      -435.094        -339.034
  -7276245.774 9  -5660583.58948  20348051.283    20348050.2004   20348054.2644
      1058.172         824.550
   -504139.563 9   -388494.33447  22417743.767    22417743.4954   22417746.8574
      -956.448        -745.284
  -4470817.757 9  -3478546.21748  20313027.829    20313026.7114   20313030.7184
       752.292         586.202
 -11640167.666 9  -8833004.243 9  20340818.573    20340817.774    20340821.191
      1996.570        1555.769
 -14095332.763 9 -10963483.21848  22077216.280    22077215.2934   22077220.0744
      3068.898        2391.349
 96 10 10 16 35 59.9990000  0  8  6  3 22 23 26 17 28 21            -0.000875129
   6133238.179 9   4775514.44447  21816004.525    21816003.7974   21816008.3284
     -2204.088       -1717.471
  -9564196.500 9  -7434107.76846  23343800.954    23343800.4014   23343805.3204
      4152.576        3235.774
  -1673123.847 9  -1299978.58646  23529557.106    23529555.7114   23529560.9834
      -445.314        -346.998
  -7307841.998 9  -5685204.01448  20342038.731    20342037.6214   20342041.7064
      1047.962         816.594
   -475226.800 9   -365964.92647  22423245.769    22423245.4794   22423248.8264
      -971.379        -756.919
  -4493292.569 9  -3496059.05348  20308750.991    20308749.9074   20308753.8934
       745.651         581.027
 -11699821.521 9  -8879487.764 9  20329466.772    20329466.003    20329469.466
      1980.004        1542.860
 -14187292.970 9 -11035140.50948  22059716.861    22059715.8774   22059720.5824
      3061.337        2385.457
 96 10 10 16 36 29.9990000  0  9  1  6  3 22 23 26 17 28 21         -0.000891996
   -728292.68118   -538903.73355  24880447.841    24880447.5615   24880453.8805
      4550.308        3545.695
   6199538.275 9   4827176.82647  21828621.062    21828620.3214   21828624.8444
     -2216.227       -1726.930
  -9688682.302 9  -7531109.65646  23320112.043    23320111.4354   23320116.3984
      4146.146        3230.763
  -1659596.619 9  -1289437.87046  23532131.290    23532129.9234   23532134.9494
      -456.978        -356.087
  -7339118.547 9  -5709575.34148  20336087.091    20336085.9124   20336089.9844
      1036.880         807.958
   -445844.134 9   -343069.36647  22428837.213    22428836.8444   22428840.2044
      -987.814        -769.725
  -4515548.952 9  -3513401.68948  20304515.797    20304514.6704   20304518.6574
       737.830         574.932
 -11758958.827 9  -8925568.779 9  20318213.294    20318212.545    20318216.035
      1962.109        1528.916
 -14279005.822 9 -11106605.04648  22042264.403    22042263.4714   22042268.1554
      3052.531        2378.595
 96 10 10 16 36 59.9990000  0  9  1  6  3 22 23 26 17 28 21         -0.000908863
   -864849.508 8   -645311.62845  24854461.995    24854461.8644   24854467.8314
      4553.894        3548.489
   6266187.793 9   4879111.49147  21841303.996    21841303.3234   21841307.8834
     -2226.921       -1735.263
  -9812993.252 9  -7627975.31446  23296456.349    23296455.7434   23296460.8164
      4141.322        3227.004
  -1645731.225 9  -1278633.70547  23534769.822    23534768.5704   23534773.6054
      -467.310        -364.138
  -7370091.189 9  -5733709.86648  20330193.176    20330192.0064   20330196.0954
      1028.072         801.095
   -415984.117 9   -319801.83347  22434519.440    22434519.0234   22434522.3874
     -1002.507        -781.174
  -4537593.503 9  -3530579.26048  20300320.869    20300319.7144   20300323.7034
       731.896         570.308
 -11817574.708 9  -8971243.497 9  20307059.107    20307058.335    20307061.809
      1945.796        1516.205
 -14370472.494 9 -11177877.76148  22024858.974    22024857.9664   22024862.6614
      3045.589        2373.186
 96 10 10 16 37 29.9990000  0  9  1  6  3 22 23 26 17 28 21         -0.000925727
  -1001489.067 8   -751784.00245  24828460.300    24828459.9064   24828466.1064
      4556.010        3550.138
   6333187.814 9   4931319.27247  21854053.650    21854053.0174   21854057.6124
     -2238.981       -1744.661
  -9937118.728 9  -7724696.41946  23272835.851    23272835.3984   23272840.5034
      4133.974        3221.278
  -1631523.619 9  -1267562.84446  23537473.623    23537472.2534   23537477.2214
      -479.259        -373.449
  -7400761.662 9  -5757608.92948  20324356.768    20324355.6204   20324359.7114
      1017.059         792.514
   -385657.075 9   -296170.39947  22440290.492    22440290.0054   22440293.4184
     -1018.788        -793.861
  -4559421.647 9  -3547588.19948  20296167.096    20296165.9504   20296169.9524
       723.806         564.005
 -11875670.898 9  -9016513.252 9  20296003.758    20296002.993    20296006.476
      1927.800        1502.182
 -14461699.582 9 -11248963.78348  22007498.933    22007497.9974   22007502.7314
      3036.692        2366.254
 96 10 10 16 37 59.9990000  0  9  1  6  3 22 23 26 17 28 21         -0.000942584
  -1138210.323 8   -858319.99245  24802442.977    24802442.4034   24802448.8774
      4558.784        3552.299
   6400526.327 9   4983790.82447  21866867.780    21866867.1064   21866871.7254
     -2250.126       -1753.345
 -10061025.417 9  -7821247.08246  23249257.258    23249256.8604   23249261.7604
      4126.393        3215.371
  -1616971.402 9  -1256223.47346  23540242.771    23540241.3934   23540246.5034
      -490.972        -382.576
  -7431119.430 9  -5781264.32748  20318579.878    20318578.7224   20318582.8064
      1006.740         784.473
   -354854.666 9   -272168.55047  22446151.976    22446151.4784   22446154.9444
     -1034.672        -806.238
  -4581022.035 9  -3564419.67148  20292056.647    20292055.5254   20292059.5264
       716.182         558.064
 -11933244.692 9  -9061375.948 9  20285047.847    20285047.061    20285050.559
      1910.485        1488.690
 -14552670.287 9 -11319850.03848  21990187.872    21990186.8794   21990191.6204
      3028.177        2359.618
 96 10 10 16 38 29.9990000  0  9  1  6  3 22 23 26 17 28 21         -0.000959428
  -1275013.852 8   -964920.07945  24776409.997    24776409.2854   24776416.0044
      4561.646        3554.529
   6468194.997 9   5036519.63047  21879744.744    21879744.0414   21879748.6764
     -2260.818       -1761.676
 -10184690.918 9  -7917609.79646  23225724.647    23225724.0874   23225728.9574
      4118.128        3208.931
  -1602058.799 9  -1244603.32946  23543080.466    23543079.1034   23543084.3964
      -502.963        -391.919
  -7461148.312 9  -5804663.45348  20312865.523    20312864.4074   20312868.4684
       995.206         775.485
   -323567.311 9   -247788.80947  22452105.689    22452105.2764   22452108.7664
     -1050.884        -818.871
  -4602381.043 9  -3581063.05548  20287992.110    20287991.0204   20287995.0504
       707.887         551.600
 -11990290.818 9  -9105827.474 9  20274192.359    20274191.574    20274195.051
      1892.672        1474.809
 -14643390.035 9 -11390540.72348  21972924.294    21972923.3994   21972928.2294
      3019.927        2353.190
 96 10 10 16 38 59.9990000  0  9  1  6  3 22 23 26 17 28 21         -0.000976289
  -1411915.769 9  -1071596.84545  24750358.361    24750357.6634   24750364.3454
      4565.246        3557.335
   6536159.141 9   5089478.67847  21892677.880    21892677.2044   21892681.8594
     -2270.261       -1769.034
 -10308120.370 9  -8013788.54346  23202236.903    23202236.2444   23202241.2044
      4110.469        3202.963
  -1586806.269 9  -1232718.22146  23545982.788    23545981.5004   23545986.7744
      -513.820        -400.379
  -7490836.690 9  -5827797.24848  20307215.898    20307214.8154   20307218.9454
       983.918         766.689
   -291812.409 9   -223044.76347  22458148.442    22458147.9884   22458151.5174
     -1066.108        -830.734
  -4623496.063 9  -3597516.31948  20283974.041    20283972.9474   20283976.9494
       699.735         545.248
 -12046810.234 9  -9149868.577 9  20263437.111    20263436.319    20263439.772
      1875.254        1461.237
 -14733867.050 9 -11461042.27948  21955707.109    21955706.1734   21955711.0024
      3011.804        2346.860
 96 10 10 16 39 29.9990000  0  9  1  6  3 22 23 26 17 28 21         -0.000993175
  -1548935.982 8  -1178365.82546  24724284.187    24724283.5154   24724290.1394
      4569.647        3560.764
   6604414.080 9   5142664.32247  21905666.368    21905665.7034   21905670.3344
     -2279.658       -1776.357
 -10431310.473 9  -8109780.77646  23178794.731    23178793.9824   23178798.9504
      4102.735        3196.936
  -1571234.582 9  -1220584.46147  23548946.046    23548944.7624   23548950.1024
      -523.925        -408.253
  -7520176.980 9  -5850659.81048  20301632.594    20301631.5294   20301635.6584
       972.583         757.857
   -259596.643 9   -197941.58647  22464278.801    22464278.3774   22464281.9394
     -1081.278        -842.554
  -4644365.626 9  -3613778.31748  20280002.705    20280001.6074   20280005.6204
       691.946         539.179
 -12102801.174 9  -9193497.880 9  20252782.383    20252781.599    20252785.077
      1857.835        1447.664
 -14824091.455 9 -11531346.98548  21938537.912    21938536.9914   21938541.9014
      3003.526        2340.410
 96 10 10 16 39 59.9990000  0  9  1  6  3 22 23 26 17 28 21         -0.001010088
  -1686066.881 8  -1285221.03245  24698188.873    24698188.2384   24698194.9104
      4572.937        3563.328
   6672955.873 9   5196073.49347  21918709.500    21918708.8374   21918713.4014
     -2289.219       -1783.807
 -10554272.588 9  -8205595.42846  23155395.810    23155395.2164   23155399.9834
      4095.359        3191.189
  -1555352.950 9  -1208209.16046  23551968.290    23551966.9924   23551972.2774
      -534.316        -416.350
  -7549181.770 9  -5873260.93548  20296113.166    20296112.1384   20296116.2274
       961.501         749.221
   -226919.718 9   -172479.07347  22470497.068    22470496.6084   22470500.1894
     -1096.579        -854.477
  -4664999.032 9  -3629856.29748  20276076.321    20276075.1954   20276079.2154
       684.266         533.194
 -12158262.938 9  -9236714.840 9  20242228.317    20242227.561    20242231.064
      1840.209        1433.929
 -14914070.683 9 -11601460.65248  21921415.379    21921414.4504   21921419.3784
      2995.877        2334.450
 96 10 10 16 40 29.9980000  0  9  1  6  3 22 23 26 17 28 21         -0.001027036
  -1823287.389 8  -1392146.02945  24672076.459    24672075.7444   24672082.6884
      4575.580        3565.387
   6741772.855 9   5249697.07847  21931804.937    21931804.2744   21931808.8294
     -2298.551       -1791.079
 -10677014.388 9  -8301238.37146  23132038.834    23132038.1334   23132042.9564
      4087.981        3185.440
  -1539163.771 9  -1195594.18446  23555049.115    23555047.8544   23555053.0604
      -544.765        -424.492
  -7577841.578 9  -5895593.24348  20290659.353    20290658.3384   20290662.4284
       949.541         739.902
   -193788.161 9   -146662.29947  22476801.805    22476801.3764   22476804.9334
     -1111.890        -866.408
  -4685407.789 9  -3645759.22548  20272192.641    20272191.5504   20272195.5764
       676.606         527.225
 -12213192.318 9  -9279516.956 9  20231775.579    20231774.857    20231778.374
      1822.067        1419.792
 -15003821.831 9 -11671396.59148  21904336.260    21904335.3484   21904340.2884
      2987.910        2328.242
 96 10 10 16 40 59.9980000  0  9  1  6  3 22 23 26 17 28 21         -0.001044029
  -1960594.076 9  -1499138.23545  24645947.712    24645947.1564   24645954.1034
      4578.558        3567.707
   6810863.994 9   5303534.30147  21944952.551    21944951.9044   21944956.4674
     -2307.303       -1797.898
 -10799560.984 9  -8396729.17846  23108718.890    23108718.1684   23108723.0984
      4082.149        3180.895
  -1522670.748 9  -1182742.57946  23558187.528    23558186.2814   23558191.7544
      -554.473        -432.057
  -7606165.366 9  -5917663.73048  20285269.563    20285268.4944   20285272.5824
       939.167         731.818
   -160215.953 9   -120502.16547  22483190.426    22483190.0164   22483193.5364
     -1126.047        -877.439
  -4705599.274 9  -3661492.85148  20268350.348    20268349.2624   20268353.2734
       669.904         522.003
 -12267596.432 9  -9321909.778 9  20221422.828    20221422.093    20221425.599
      1805.264        1406.699
 -15093352.150 9 -11741160.46348  21887299.189    21887298.2734   21887303.1774
      2981.113        2322.945
 96 10 10 16 41 29.9980000  0  9  1  6  3 22 23 26 17 28 21         -0.001061046
  -2097958.763 8  -1606175.63546  24619808.112    24619807.5594   24619814.4604
      4579.554        3568.484
   6880247.767 9   5357599.54747  21958155.861    21958155.1964   21958159.7984
     -2317.553       -1805.885
 -10921905.659 9  -8492062.68147  23085437.540    23085436.8034   23085441.5994
      4074.790        3175.161
  -1505857.852 9  -1169641.62546  23561386.849    23561385.5424   23561391.0774
      -565.816        -440.896
  -7634153.327 9  -5939472.52348  20279943.607    20279942.5434   20279946.6584
       927.348         722.609
   -126182.230 9    -93982.40247  22489666.832    22489666.4524   22489669.9724
     -1142.138        -889.978
  -4725572.349 9  -3677056.28848  20264549.644    20264548.5254   20264552.5304
       662.170         515.977
 -12321471.876 9  -9363890.641 9  20211170.662    20211169.917    20211173.459
      1787.059        1392.514
 -15182657.172 9 -11810748.77348  21870305.021    21870304.1144   21870308.9394
      2973.147        2316.738
 96 10 10 16 41 59.9980000  0  9  1  6  3 22 23 26 17 28 21         -0.001078086
  -2235357.342 8  -1713239.38246  24593662.107    24593661.5564   24593668.3534
      4580.870        3569.509
   6949910.573 9   5411882.23447  21971412.248    21971411.6144   21971416.2314
     -2326.439       -1812.810
 -11044050.254 9  -8587240.27247  23062194.172    23062193.4214   23062198.2214
      4068.296        3170.101
  -1488709.636 9  -1156279.41747  23564649.965    23564648.6464   23564654.3734
      -577.146        -449.724
  -7661801.901 9  -5961016.86448  20274682.261    20274681.2044   20274685.3004
       916.084         713.832
    -91687.656 9    -67103.53847  22496230.993    22496230.6084   22496234.0954
     -1157.336        -901.820
  -4745328.429 9  -3692450.63848  20260790.182    20260789.0874   20260793.0954
       655.176         510.527
 -12374818.829 9  -9405459.698 9  20201019.090    20201018.343    20201021.888
      1769.614        1378.920
 -15271746.528 9 -11880169.03648  21853351.857    21853350.9584   21853355.7834
      2966.345        2311.438
 96 10 10 16 42 29.9980000  0  9  1  6  3 22 23 26 17 28 21         -0.001095149
  -2372805.417 8  -1820341.72346  24567506.836    24567506.1474   24567512.8404
      4583.120        3571.262
   7019838.754 9   5466371.69547  21984719.157    21984718.5814   21984723.1994
     -2334.841       -1819.357
 -11165995.686 9  -8682262.65846  23038988.385    23038987.8014   23038992.8044
      4062.052        3165.235
  -1471220.975 9  -1142651.94547  23567978.000    23567976.6694   23567982.4324
      -588.036        -458.210
  -7689112.119 9  -5982297.54848  20269485.219    20269484.2044   20269488.3114
       905.467         705.559
    -56726.921 9    -39861.43847  22502883.862    22502883.5104   22502886.9204
     -1172.655        -913.757
  -4764871.561 9  -3707679.05948  20257071.199    20257070.1304   20257074.1734
       648.193         505.085
 -12427639.875 9  -9446618.962 9  20190967.641    20190966.874    20190970.383
      1752.415        1365.518
 -15360629.799 9 -11949428.71148  21836437.986    21836437.1104   21836441.8234
      2959.766        2306.311
 96 10 10 16 42 59.9980000  0  9  1  6  3 22 23 26 17 28 21         -0.001112223
  -2510308.357 9  -1927486.86145  24541341.081    24541340.1354   24541346.9024
      4584.294        3572.177
   7090043.932 9   5521076.98947  21998078.865    21998078.2224   21998082.7824
     -2344.933       -1827.221
 -11287734.269 9  -8777123.87447  23015822.321    23015821.7404   23015826.6994
      4054.184        3159.104
  -1453393.897 9  -1128760.72446  23571370.382    23571369.0954   23571374.7894
      -599.870        -467.431
  -7716099.502 9  -6003326.67848  20264349.748    20264348.6764   20264352.7944
       894.099         696.701
    -21288.709 9    -12247.26747  22509627.540    22509627.2094   22509630.6374
     -1189.413        -926.815
  -4784184.132 9  -3722727.81748  20253396.151    20253395.1104   20253399.1504
       639.892         498.617
 -12479928.497 9  -9487363.346 9  20181017.439    20181016.671    20181020.198
      1733.956        1351.135
 -15449299.959 9 -12018522.32148  21819564.613    21819563.6644   21819568.4704
      2951.982        2300.246
 96 10 10 16 43 29.9980000  0  9  1  6  3 22 23 26 17 28 21         -0.001129305
  -2647871.109 8  -2034678.60946  24515163.950    24515162.8874   24515169.4364
      4586.908        3574.214
   7160522.903 9   5575995.63747  22011490.545    22011489.9494   22011494.5204
     -2353.322       -1833.757
 -11409244.112 9  -8871806.83047  22992699.998    22992699.2364   22992704.1564
      4046.743        3153.306
  -1435239.295 9  -1114614.27246  23574825.317    23574823.9474   23574829.4834
      -610.239        -475.511
  -7742759.777 9  -6024100.90848  20259276.413    20259275.3864   20259279.4994
       883.516         688.454
     14628.683 9     15740.29147  22516462.462    22516462.0794   22516465.4934
     -1204.656        -938.693
  -4803276.318 9  -3737604.84848  20249763.042    20249761.9914   20249766.0484
       633.077         493.307
 -12531677.682 9  -9527687.389 9  20171169.895    20171169.135    20171172.650
      1716.207        1337.304
 -15537751.840 9 -12087445.85548  21802732.805    21802731.8654   21802736.6094
      2944.993        2294.800
 96 10 10 16 43 59.9980000  0  9  1  6  3 22 23 26 17 28 21         -0.001146415
  -2785518.930 9  -2141936.55846  24488970.347    24488969.2984   24488975.7934
      4589.445        3576.191
   7231248.544 9   5631106.48747  22024949.294    22024948.6074   22024953.2154
     -2362.189       -1840.667
 -11530532.789 9  -8966317.45947  22969619.529    22969618.8604   22969623.6524
      4038.791        3147.110
  -1416775.206 9  -1100226.71246  23578338.905    23578337.5164   23578342.9314
      -620.868        -483.793
  -7769105.524 9  -6044630.06448  20254263.061    20254261.9934   20254266.0614
       872.635         679.975
     50994.250 9     44077.06947  22523382.631    22523382.2094   22523385.6804
     -1220.045        -950.684
  -4822157.409 9  -3752317.39348  20246170.093    20246169.0544   20246173.1074
       625.424         487.343
 -12582894.013 9  -9567596.222 9  20161423.776    20161423.027    20161426.527
      1697.911        1323.048
 -15625987.896 9 -12156201.20748  21785941.929    21785941.0454   21785945.7974
      2937.068        2288.624
 96 10 10 16 44 29.9980000  0  9  1  6  3 22 23 26 17 28 21         -0.001163543
  -2923248.752 9  -2249258.48846  24462761.361    24462760.3154   24462766.6294
      4592.488        3578.562
   7302238.645 9   5686423.41347  22038458.260    22038457.5874   22038462.2314
     -2370.465       -1847.116
 -11651583.251 9  -9060642.48647  22946584.499    22946583.8514   22946588.4794
      4031.339        3141.303
  -1398010.708 9  -1085605.03546  23581909.627    23581908.2634   23581913.4664
      -629.914        -490.842
  -7795140.024 9  -6064916.67848  20249308.829    20249307.7814   20249311.8694
       863.080         672.530
     87811.139 9     72765.53047  22530388.628    22530388.2474   22530391.7224
     -1233.985        -961.547
  -4840816.010 9  -3766856.56748  20242619.547    20242618.4854   20242622.4874
       618.546         481.984
 -12633567.887 9  -9607082.353 9  20151780.853    20151780.127    20151783.587
      1680.445        1309.438
 -15713984.719 9 -12224770.13648  21769196.645    21769195.7774   21769200.5774
      2929.342        2282.604
 96 10 10 16 44 59.9980000  0  9  1  6  3 22 23 26 17 28 21         -0.001180695
  -3061045.196 9  -2356632.28046  24436539.648    24436538.6064   24436544.8104
      4594.204        3579.899
   7373500.601 9   5741952.17747  22052018.848    22052018.3254   22052022.9844
     -2379.839       -1854.420
 -11772386.210 9  -9154774.61347  22923596.435    22923595.7554   22923600.3884
      4022.531        3134.440
  -1378957.446 9  -1070758.36046  23585535.367    23585533.9364   23585539.1134
      -640.054        -498.743
  -7820867.861 9  -6084964.34348  20244412.994    20244411.9304   20244416.0534
       852.421         664.224
    125049.818 9    101782.66247  22537474.835    22537474.5004   22537477.9884
     -1248.331        -972.725
  -4859252.607 9  -3781222.75148  20239111.139    20239110.0924   20239114.0954
       610.941         476.058
 -12683700.615 9  -9646146.819 9  20142240.933    20142240.195    20142243.639
      1662.038        1295.095
 -15801721.242 9 -12293136.24848  21752500.974    21752500.0884   21752504.8264
      2920.122        2275.420
 96 10 10 16 45 29.9980000  0  9  1  6  3 22 23 26 17 28 21         -0.001197867
  -3198898.302 9  -2464050.25246  24410307.222    24410306.0524   24410312.3274
      4596.533        3581.714
   7445029.622 9   5797689.05147  22065630.409    22065629.8684   22065634.5344
     -2388.331       -1861.037
 -11892940.005 9  -9248712.63447  22900655.714    22900655.1804   22900659.6184
      4014.875        3128.474
  -1359603.402 9  -1055677.33046  23589218.204    23589216.8704   23589222.2474
      -649.826        -506.358
  -7846285.861 9  -6104770.57148  20239576.099    20239575.0054   20239579.1634
       842.661         656.619
    162709.604 9    131127.93047  22544641.277    22544640.9484   22544644.4064
     -1261.918        -983.313
  -4877468.139 9  -3795416.67848  20235644.868    20235643.8094   20235647.8134
       603.723         470.434
 -12733289.511 9  -9684787.516 9  20132804.482    20132803.737    20132807.187
      1644.293        1281.267
 -15889187.225 9 -12361291.53348  21735856.776    21735855.8494   21735860.6244
      2911.491        2268.694
 96 10 10 16 45 59.9980000  0  9  1  6  3 22 23 26 17 28 21         -0.001215053
  -3336802.328 9  -2571507.86246  24384064.858    24384063.6954   24384069.9814
      4597.873        3582.758
   7516839.349 9   5853644.63947  22079295.424    22079294.8134   22079299.5394
     -2398.078       -1868.632
 -12013255.738 9  -9342465.13447  22877760.389    22877759.7934   22877764.2104
      4006.825        3122.201
  -1339944.140 9  -1040358.44447  23592959.303    23592957.9854   23592963.2344
      -659.912        -514.217
  -7871405.389 9  -6124344.23148  20234796.022    20234794.8794   20234799.0734
       832.760         648.904
    200794.983 9    160804.83047  22551888.629    22551888.3724   22551891.8434
     -1276.316        -994.532
  -4895441.374 9  -3809421.80248  20232224.704    20232223.6484   20232227.6454
       595.426         463.968
 -12782334.260 9  -9723004.203 9  20123471.555    20123470.839    20123474.299
      1626.144        1267.125
 -15976385.019 9 -12429237.85448  21719263.520    21719262.6474   21719267.3864
      2902.688        2261.835
 96 10 10 16 46 29.9980000  0  9  1  6  3 22 23 26 17 28 21         -0.001232242
  -3474738.087 8  -2678990.20446  24357816.488    24357815.2494   24357821.4794
      4598.606        3583.329
   7588943.839 9   5909829.92847  22093016.559    22093015.8124   22093020.6324
     -2408.019       -1876.378
 -12133318.886 9  -9436020.81747  22854913.084    22854912.5594   22854916.9524
      3998.181        3115.466
  -1319979.120 9  -1024801.31947  23596758.532    23596757.2224   23596762.5804
      -670.310        -522.319
  -7896227.502 9  -6143686.13348  20230072.432    20230071.3784   20230075.5514
       822.620         641.003
    239311.105 9    190817.37047  22559218.104    22559217.7674   22559221.2564
     -1290.794       -1005.814
  -4913165.144 9  -3823232.53348  20228851.913    20228850.9114   20228854.9044
       586.827         457.268
 -12830831.644 9  -9760794.371 9  20114242.827    20114242.102    20114245.548
      1607.751        1252.793
 -16063329.772 9 -12496986.98648  21702718.501    21702717.5764   21702722.3414
      2894.418        2255.391
 96 10 10 16 46 59.9980000  0  9  1  6  3 22 23 26 17 28 21         -0.001249439
  -3612708.021 9  -2786499.19346  24331561.642    24331560.4864   24331566.7174
      4599.312        3583.879
   7661335.630 9   5966239.07947  22106792.202    22106791.5334   22106796.4114
     -2417.956       -1884.122
 -12253137.880 9  -9529386.23847  22832112.314    22832111.7104   22832116.1944
      3989.646        3108.815
  -1299711.951 9  -1009008.77046  23600615.292    23600613.9964   23600619.4494
      -680.969        -530.625
  -7920744.591 9  -6162790.35548  20225407.048    20225405.9484   20225410.1234
       811.849         632.610
    278262.977 9    221169.46047  22566630.445    22566630.1074   22566633.5614
     -1306.208       -1017.824
  -4930633.655 9  -3836844.36548  20225527.769    20225526.7604   20225530.7724
       577.728         450.178
 -12878784.176 9  -9798159.982 9  20105117.747    20105117.030    20105120.495
      1588.999        1238.181
 -16150043.782 9 -12564556.33248  21686217.426    21686216.5224   21686221.1764
      2886.537        2249.250
 96 10 10 16 47 29.9980000  0  9  1  6  3 22 23 26 17 28 21         -0.001266642
  -3750719.885 9  -2894040.83946  24305298.668    24305297.6754   24305303.7974
      4601.009        3585.202
   7734008.167 9   6022866.99747  22120621.279    22120620.6514   22120625.5644
     -2427.473       -1891.537
 -12372713.753 9  -9622562.20947  22809357.765    22809357.1654   22809361.7124
      3981.495        3102.464
  -1279139.904 9   -992978.65246  23604530.093    23604528.7824   23604534.2644
      -690.928        -538.385
  -7944954.408 9  -6181655.14548  20220800.038    20220798.9614   20220803.1374
       801.508         624.552
    317663.561 9    251871.19347  22574128.189    22574127.8414   22574131.2494
     -1320.932       -1029.298
  -4947848.112 9  -3850258.23548  20222251.980    20222250.9584   20222254.9654
       569.283         443.597
 -12926188.076 9  -9835098.086 9  20096097.034    20096096.352    20096099.834
      1570.712        1223.931
 -16236537.444 9 -12631953.97348  21669758.250    21669757.3424   21669761.9844
      2879.132        2243.479
 96 10 10 16 47 59.9980000  0  9  1  6  3 22 23 26 17 28 21         -0.001283851
  -3888783.995 9  -3001623.20046  24279026.026    24279024.8974   24279031.0244
      4602.671        3586.497
   7806969.794 9   6079720.17447  22134505.380    22134504.7414   22134509.7614
     -2437.065       -1899.012
 -12492032.761 9  -9715538.04047  22786652.189    22786651.5214   22786656.0504
      3972.450        3095.416
  -1258265.475 9   -976712.89046  23608502.151    23608500.8284   23608506.3454
      -701.190        -546.382
  -7968845.005 9  -6200271.18648  20216253.781    20216252.7154   20216256.8884
       790.633         616.078
    357504.045 9    282915.70547  22581709.676    22581709.2684   22581712.6624
     -1335.559       -1040.695
  -4964802.363 9  -3863469.34248  20219025.707    20219024.6604   20219028.6734
       560.616         436.844
 -12973038.533 9  -9871604.936 9  20087181.739    20087181.044    20087184.495
      1552.142        1209.461
 -16322804.475 9 -12699175.01448  21653342.157    21653341.2104   21653345.9094
      2871.409        2237.461
 96 10 10 16 48 29.9980000  0  9  1  6  3 22 23 26 17 28 21         -0.001301067
  -4026902.292 9  -3109247.78046  24252743.062    24252741.9344   24252747.9014
      4605.114        3588.401
   7880206.825 9   6136787.96147  22148441.901    22148441.2544   22148446.3364
     -2445.349       -1905.467
 -12611077.518 9  -9808300.15647  22763998.706    22763998.0724   22764002.5924
      3963.904        3088.756
  -1237082.202 9   -960206.48646  23612533.172    23612531.8194   23612537.3644
      -710.966        -553.999
  -7992410.246 9  -6218633.70448  20211769.504    20211768.4114   20211772.5744
       780.284         608.014
    397779.568 9    314299.20847  22589373.902    22589373.5074   22589376.8854
     -1349.546       -1051.594
  -4981511.295 9  -3876489.29248  20215846.123    20215845.0864   20215849.0864
       553.257         431.109
 -13019331.228 9  -9907677.168 9  20078372.603    20078371.848    20078375.298
      1533.993        1195.319
 -16408832.922 9 -12766210.14948  21636971.455    21636970.5304   21636975.2094
      2863.621        2231.393
 96 10 10 16 48 59.9980000  0  9  1  6  3 22 23 26 17 28 21         -0.001318296
  -4165086.638 9  -3216923.84546  24226447.408    24226446.2664   24226452.2364
      4607.084        3589.936
   7953700.901 9   6194056.03947  22162427.218    22162426.7104   22162431.7934
     -2454.042       -1912.241
 -12729855.697 9  -9900854.56047  22741395.955    22741395.2844   22741399.7454
      3954.582        3081.492
  -1215596.510 9   -943464.35746  23616621.805    23616620.5135   23616625.9404
      -721.357        -562.096
  -8015650.406 9  -6236742.91648  20207347.000    20207345.9354   20207350.1274
       769.315         599.466
    438487.471 9    346019.62547  22597120.328    22597119.9694   22597123.3084
     -1364.071       -1062.912
  -4997990.589 9  -3889330.30348  20212710.209    20212709.1954   20212713.2094
       545.472         425.043
 -13065065.916 9  -9943314.588 9  20069669.515    20069668.794    20069672.290
      1515.040        1180.551
 -16494606.448 9 -12833046.63948  21620649.291    21620648.3594   21620653.0124
      2854.648        2224.401
 96 10 10 16 49 29.9980000  0  9  1  6  3 22 23 26 17 28 21         -0.001335553
  -4303337.843 8  -3324651.99646  24200138.887    24200137.9094   24200143.8374
      4608.855        3591.316
   8027437.660 9   6251513.21747  22176458.689    22176458.3324   22176463.4604
     -2462.608       -1918.915
 -12848357.824 9  -9993193.85147  22718845.711    22718845.0474   22718849.4124
      3944.850        3073.909
  -1193810.265 9   -926488.03446  23620767.626    23620766.3514   23620771.9424
      -731.705        -570.160
  -8038576.768 9  -6254607.61048  20202984.267    20202983.2024   20202987.3964
       758.333         590.909
    479617.912 9    378069.30247  22604947.067    22604946.7994   22604950.1704
     -1378.633       -1074.259
  -5014247.526 9  -3901998.05148  20209616.619    20209615.6024   20209619.6154
       537.469         418.807
 -13110243.424 9  -9978517.842 9  20061072.536    20061071.807    20061075.286
      1496.042        1165.747
 -16580119.905 9 -12899680.48448  21604376.530    21604375.6614   21604380.3574
      2845.667        2217.403
 96 10 10 16 49 59.9980000  0  9  1  6  3 22 23 26 17 28 21         -0.001352826
  -4441646.097 8  -3432424.62346  24173819.541    24173818.7644   24173824.6544
      4611.039        3593.017
   8101411.548 9   6309155.17247  22190535.637    22190535.1244   22190540.2714
     -2469.329       -1924.152
 -12966581.640 9 -10085316.31947  22696348.395    22696347.8424   22696352.1694
      3936.428        3067.346
  -1171725.835 9   -909279.41647  23624970.328    23624969.0424   23624974.5244
      -740.850        -577.286
  -8061191.856 9  -6272229.75448  20198680.745    20198679.7214   20198683.8734
       749.079         583.698
    521172.648 9    410449.59447  22612854.686    22612854.3924   22612857.7784
     -1392.091       -1084.746
  -5030270.617 9  -3914483.57748  20206567.512    20206566.5214   20206570.5404
       530.533         413.402
 -13154863.704 9 -10013286.895 9  20052581.566    20052580.828    20052584.299
      1478.308        1151.928
 -16665386.294 9 -12966121.80448  21588150.859    21588150.0074   21588154.6994
      2838.449        2211.778
 96 10 10 16 50 29.9980000  0  9  1  6  3 22 23 26 17 28 21         -0.001370114
  -4579984.289 9  -3540220.58346  24147494.591    24147493.7434   24147499.6594
      4611.242        3593.176
   8175604.860 9   6366968.10447  22204654.244    22204653.6364   22204658.8334
     -2477.004       -1930.133
 -13084536.605 9 -10177229.21947  22673902.129    22673901.5944   22673906.1384
      3927.197        3060.154
  -1149356.827 9   -891849.11547  23629226.945    23629225.7034   23629231.3254
      -750.536        -584.833
  -8083510.534 9  -6289620.92448  20194433.652    20194432.6194   20194436.7714
       738.664         575.582
    563157.069 9    443164.71747  22620844.156    22620843.7594   22620847.1864
     -1407.028       -1096.385
  -5046070.517 9  -3926795.19148  20203560.894    20203559.9074   20203563.9154
       522.449         407.103
 -13198931.677 9 -10047625.575 9  20044195.706    20044194.978    20044198.462
      1459.355        1137.160
 -16750419.470 9 -13032381.40048  21571969.576    21571968.6684   21571973.4274
      2830.244        2205.385
 96 10 10 16 50 59.9980000  0  9  1  6  3 22 23 26 17 28 21         -0.001387414
  -4718331.669 9  -3648023.65446  24121168.025    24121167.0544   24121173.0104
      4611.027        3593.008
   8250022.309 9   6424955.69447  22218815.444    22218814.8874   22218820.0164
     -2484.903       -1936.288
 -13202225.342 9 -10268934.71247  22651506.777    22651506.2414   22651510.7704
      3917.873        3052.888
  -1126709.749 9   -874202.06646  23633536.597    23633535.3004   23633540.8894
      -760.130        -592.309
  -8105528.011 9  -6306777.39448  20190243.864    20190242.7954   20190246.9874
       728.441         567.616
    605582.438 9    476223.42847  22628917.409    22628917.0414   22628920.5044
     -1421.965       -1108.025
  -5061620.173 9  -3938911.80648  20200601.886    20200600.8934   20200604.8944
       513.395         400.048
 -13242440.353 9 -10081528.435 9  20035916.310    20035915.549    20035919.049
      1440.384        1122.377
 -16835220.645 9 -13098460.21848  21555832.376    21555831.5564   21555836.2984
      2822.400        2199.273
 96 10 10 16 51 29.9980000  0  9  1  6  3 22 23 26 17 28 21         -0.001404721
  -4856678.594 8  -3755826.46546  24094841.522    24094840.4754   24094846.3264
      4611.337        3593.250
   8324668.799 9   6483121.76047  22233020.254    22233019.6694   22233024.7944
     -2492.442       -1942.163
 -13319647.038 9 -10360432.10447  22629162.183    22629161.6274   22629166.1824
      3909.490        3046.356
  -1103782.151 8   -856336.43846  23637899.450    23637898.2274   23637903.9014
      -769.250        -599.416
  -8127253.901 9  -6323706.65048  20186109.490    20186108.4664   20186112.6914
       719.084         560.325
    648444.745 9    509622.61247  22637073.793    22637073.4174   22637076.9324
     -1436.080       -1119.023
  -5076907.609 9  -3950824.09948  20197692.784    20197691.8104   20197695.8074
       505.080         393.569
 -13285390.523 9 -10114996.102 9  20027743.143    20027742.404    20027745.921
      1422.156        1108.174
 -16919796.554 9 -13164363.50648  21539738.090    21539737.2214   21539741.9834
      2815.150        2193.623
 96 10 10 16 51 59.9980000  0  9  1  6  3 22 23 26 17 28 21         -0.001422035
  -4995014.329 8  -3863620.46846  24068516.881    24068515.9164   24068521.9704
      4610.834        3592.858
   8399556.120 9   6541475.49047  22247270.725    22247270.3034   22247275.4014
     -2500.441       -1948.396
 -13436807.914 9 -10451726.28447  22606867.195    22606866.6374   22606871.1354
      3900.934        3039.689
  -1080566.077 9   -838246.04046  23642317.208    23642316.0604   23642321.9084
      -778.634        -606.728
  -8148686.114 9  -6340407.06848  20182031.002    20182030.0084   20182034.2794
       709.281         552.686
    691733.941 9    543354.43647  22645311.508    22645311.0724   22645314.5924
     -1450.048       -1129.908
  -5091937.567 9  -3962535.75748  20194832.691    20194831.7124   20194835.7124
       496.832         387.142
 -13327777.761 9 -10148025.117 9  20019677.149    20019676.401    20019679.903
      1403.355        1093.523
 -17004131.354 9 -13230078.91148  21523689.666    21523688.8224   21523693.6034
      2806.692        2187.033
 96 10 10 16 52 29.9980000  0  9  1  6  3 22 23 26 17 28 21         -0.001439366
  -5133335.400 9  -3971403.04246  24042195.187    24042194.2454   24042200.3834
      4610.969        3592.963
   8474689.525 9   6600020.96447  22261568.184    22261567.7824   22261572.8844
     -2508.360       -1954.566
 -13553709.758 9 -10542818.59347  22584621.381    22584620.8884   22584625.4354
      3892.635        3033.222
  -1057074.824 9   -819941.18746  23646787.557    23646786.3294   23646792.1244
      -787.293        -613.475
  -8169812.019 9  -6356868.80448  20178010.906    20178009.9014   20178014.1264
       699.325         544.928
    735437.729 9    577409.33847  22653628.181    22653627.6614   22653631.1984
     -1463.175       -1140.136
  -5106720.764 9  -3974055.13048  20192019.560    20192018.5484   20192022.5794
       488.814         380.894
 -13369599.417 9 -10180613.419 9  20011718.808    20011718.042    20011721.498
      1384.964        1079.193
 -17088200.895 9 -13295587.62248  21507691.798    21507690.9714   21507695.6774
      2798.142        2180.370
 96 10 10 16 52 59.9980000  0  9  1  6  3 22 23 26 17 28 21         -0.001456715
  -5271658.746 8  -4079187.38246  24015873.013    24015872.0634   24015878.3474
      4610.690        3592.745
   8550076.534 9   6658764.05247  22275913.951    22275913.4504   22275918.5704
     -2517.345       -1961.568
 -13670344.595 9 -10633702.85347  22562426.601    22562425.9594   22562430.5604
      3882.963        3025.685
  -1033306.301 9   -801420.21146  23651310.613    23651309.3674   23651315.1084
      -797.330        -621.296
  -8190630.300 9  -6373090.83648  20174049.328    20174048.2904   20174052.5434
       688.605         536.575
    779539.998 9    611774.73047  22662020.522    22662020.0444   22662023.6244
     -1476.847       -1150.790
  -5121250.138 9  -3985376.72348  20189254.679    20189253.7104   20189257.7344
       480.127         374.125
 -13410856.866 9 -10212762.081 9  20003867.741    20003867.001    20003870.473
      1365.627        1064.125
 -17172003.571 9 -13360888.37848  21491744.691    21491743.8184   21491748.5654
      2788.775        2173.071
 96 10 10 16 53 29.9980000  0  9  1  6  3 22 23 26 17 28 21         -0.001474083
  -5409988.633 9  -4186976.82346  23989549.640    23989548.5664   23989555.0064
      4611.162        3593.113
   8625718.866 9   6717706.08847  22290308.297    22290307.7064   22290312.8364
     -2525.737       -1968.107
 -13786700.166 9 -10724369.50247  22540284.820    22540284.2104   22540288.8664
      3873.762        3018.516
  -1009251.490 9   -782676.23246  23655888.153    23655886.8634   23655892.6744
      -806.449        -628.402
  -8211137.546 9  -6389070.49548  20170146.906    20170145.9074   20170150.1574
       678.298         528.544
    824032.676 9    646444.33847  22670487.126    22670486.7184   22670490.3164
     -1489.585       -1160.716
  -5135543.412 9  -3996514.34248  20186534.807    20186533.7974   20186537.8124
       472.477         368.164
 -13451549.483 9 -10244470.612 9  19996124.147    19996123.437    19996126.936
      1346.956        1049.576
 -17255540.736 9 -13425982.26248  21475848.156    21475847.2644   21475851.9204
      2780.198        2166.388
 96 10 10 16 53 59.9980000  0  9  1  6  3 22 23 26 17 28 21         -0.001491474
  -5548326.664 9  -4294772.63946  23963224.915    23963223.6774   23963230.0934
      4611.736        3593.561
   8701612.479 9   6776843.93947  22304750.277    22304749.7804   22304754.9394
     -2533.498       -1974.154
 -13902771.352 9 -10814814.55447  22518197.124    22518196.5324   22518201.2554
      3864.385        3011.209
   -984933.646 9   -763727.29346  23660515.765    23660514.5264   23660520.1254
      -814.314        -634.530
  -8231328.345 9  -6404803.58748  20166304.736    20166303.7024   20166307.9594
       668.115         520.609
    868910.289 9    681413.89947  22679026.928    22679026.6554   22679030.2564
     -1502.091       -1170.461
  -5149600.984 9  -4007468.29348  20183859.716    20183858.7374   20183862.7754
       464.850         362.221
 -13491678.978 9 -10275740.350 9  19988487.777    19988487.077    19988490.535
      1328.590        1035.265
 -17338823.279 9 -13490877.71548  21459999.983    21459999.0684   21460003.8094
      2772.253        2160.197
 96 10 10 16 54 29.9980000  0  9  1  6  3 22 23 26 17 28 21         -0.001508883
  -5686673.454 9  -4402575.23846  23936898.407    23936897.1484   23936903.6694
      4610.910        3592.917
   8777754.419 9   6836175.28447  22319239.497    22319239.0774   22319244.3394
     -2543.207       -1981.720
 -14018531.281 9 -10905017.06247  22496168.767    22496168.0964   22496172.8474
      3852.246        3001.750
   -960372.275 9   -744588.60946  23665189.657    23665188.3984   23665194.1004
      -823.848        -641.959
  -8251205.131 9  -6420291.98648  20162522.277    20162521.2744   20162525.5194
       656.650         511.675
    914180.428 9    716689.32347  22687641.639    22687641.3194   22687644.8964
     -1516.667       -1181.818
  -5163409.493 9  -4018228.17548  20181232.067    20181231.0804   20181235.1174
       455.011         354.554
 -13531243.476 9 -10306569.832 9  19980958.926    19980958.210    19980961.654
      1308.429        1019.555
 -17421866.032 9 -13555586.33848  21444197.480    21444196.5604   21444201.2464
      2763.366        2153.272
 96 10 10 16 54 59.9980000  0  9  1  6  3 22 23 26 17 28 21         -0.001526299
  -5825047.353 8  -4510399.00846  23910566.796    23910565.5494   23910571.8504
      4613.146        3594.659
   8854132.083 9   6895690.31047  22333773.708    22333773.2894   22333778.5494
     -2549.558       -1986.668
 -14133966.643 9 -10994966.67547  22474202.079    22474201.5394   22474206.1954
      3842.668        2994.287
   -935569.083 9   -725261.47246  23669909.522    23669908.3794   23669913.9374
      -830.567        -647.195
  -8270796.356 9  -6435557.87348  20158794.233    20158793.1954   20158797.4324
       648.595         505.399
    959854.962 9    752279.86447  22696333.294    22696332.9164   22696336.4604
     -1529.090       -1191.499
  -5176966.929 9  -4028792.41348  20178652.143    20178651.1444   20178655.2244
       448.055         349.134
 -13570245.991 9 -10336961.403 9  19973536.937    19973536.250    19973539.709
      1290.910        1005.904
 -17504690.424 9 -13620124.80948  21428436.512    21428435.6104   21428440.2784
      2757.367        2148.598
 96 10 10 16 55 29.9980000  0  9  1  6  3 22 23 26 17 28 21         -0.001543722
  -5963444.026 8  -4618240.47946  23884230.590    23884229.4434   23884235.7224
      4613.412        3594.866
   8930744.650 9   6955388.38846  22348352.683    22348352.1794   22348357.4674
     -2557.881       -1993.154
 -14249080.206 9 -11084665.51947  22452296.541    22452296.0204   22452300.7514
      3831.732        2985.765
   -910528.144 9   -705749.06646  23674674.801    23674673.5954   23674679.1424
      -838.635        -653.482
  -8290102.707 9  -6450601.77748  20155120.302    20155119.2764   20155123.5414
       638.675         497.669
   1005941.233 9    788191.23247  22705103.287    22705102.9224   22705106.4094
     -1543.128       -1202.437
  -5190270.956 9  -4039159.18948  20176120.498    20176119.4784   20176123.5604
       438.940         342.031
 -13608679.419 9 -10366909.526 9  19966223.324    19966222.632    19966226.071
      1271.470         990.756
 -17587287.789 9 -13684486.36648  21412718.701    21412717.8394   21412722.4994
      2749.185        2142.222
 96 10 10 16 55 59.9980000  0  9  1  6  3 22 23 26 17 28 21         -0.001561155
  -6101860.541 8  -4726097.39946  23857890.546    23857889.4454   23857895.9194
      4614.069        3595.378
   9007588.863 9   7015266.96447  22362975.715    22362975.1874   22362980.4324
     -2565.399       -1999.012
 -14363879.932 9 -11174119.83147  22430450.901    22430450.3174   22430455.0534
      3821.324        2977.655
   -885257.312 9   -686057.59646  23679483.697    23679482.4734   23679488.1324
      -846.573        -659.667
  -8309125.912 9  -6465425.04448  20151500.251    20151499.3004   20151503.5004
       629.243         490.319
   1052437.262 9    824421.89747  22713951.306    22713950.8874   22713954.3294
     -1556.832       -1213.116
  -5203313.621 9  -4049322.30348  20173638.578    20173637.5544   20173641.6154
       430.296         335.296
 -13646545.076 9 -10396415.231 9  19959017.682    19959017.012    19959020.467
      1252.573         976.031
 -17669653.159 9 -13748667.15448  21397045.021    21397044.2324   21397048.8864
      2741.447        2136.192
 96 10 10 16 56 29.9980000  0  9  1  6  3 22 23 26 17 28 21         -0.001578600
  -6240305.974 8  -4833976.87946  23831545.106    23831543.9634   23831550.3424
      4615.533        3596.519
   9084659.965 9   7075322.32547  22377641.947    22377641.3574   22377646.6044
     -2572.757       -2004.746
 -14478375.968 9 -11263337.50347  22408662.922    22408662.3924   22408667.1734
      3811.876        2970.293
   -859735.996 9   -666170.86546  23684340.131    23684339.0984   23684344.6244
      -854.996        -666.231
  -8327869.161 9  -6480030.17648  20147933.590    20147932.5904   20147936.7604
       620.353         483.392
   1099340.652 9    860969.97547  22722876.708    22722876.2964   22722879.7724
     -1570.104       -1223.458
  -5216098.065 9  -4059284.21548  20171205.809    20171204.7874   20171208.8284
       422.041         328.863
 -13683841.317 9 -10425477.246 9  19951920.445    19951919.759    19951923.247
      1233.837         961.431
 -17751786.233 9 -13812666.92548  21381415.623    21381414.8434   21381419.5114
      2733.956        2130.355
 96 10 10 16 56 59.9980000  0  9  1  6  3 22 23 26 17 28 21         -0.001596060
  -6378773.626 9  -4941873.70946  23805195.525    23805194.4934   23805200.7884
      4615.430        3596.439
   9161953.080 9   7135550.69046  22392350.435    22392349.8874   22392354.9984
     -2580.288       -2010.614
 -14592592.389 9 -11352337.27347  22386928.208    22386927.6354   22386932.4664
      3802.451        2962.949
   -833947.321 9   -646075.77746  23689247.652    23689246.5154   23689252.0284
      -864.316        -673.493
  -8346336.269 9  -6494420.12348  20144419.407    20144418.4254   20144422.5934
       610.565         475.765
   1146646.804 9    897831.90347  22731878.719    22731878.3614   22731881.7714
     -1583.514       -1233.907
  -5228631.341 9  -4069050.40248  20168820.847    20168819.8134   20168823.8284
       413.579         322.269
 -13720565.698 9 -10454093.642 9  19944932.060    19944931.362    19944934.826
      1214.413         946.296
 -17833675.708 9 -13876476.89048  21365832.584    21365831.7664   21365836.3784
      2725.193        2123.527
 96 10 10 16 57 29.9980000  0  9  1  6  3 22 23 26 17 28 21         -0.001613546
  -6517244.895 9  -5049773.32546  23778845.458    23778844.3934   23778850.5984
      4615.362        3596.386
   9239468.386 9   7195952.19947  22407101.378    22407100.6624   22407105.7124
     -2587.697       -2016.387
 -14706538.062 9 -11441126.09647  22365245.158    22365244.5894   22365249.2964
      3793.286        2955.807
   -807885.902 9   -625768.16346  23694207.010    23694205.8434   23694211.2914
      -873.471        -680.627
  -8364513.708 9  -6508584.35948  20140960.393    20140959.3784   20140963.5574
       600.758         468.123
   1194321.217 9    934980.78147  22740950.832    22740950.4994   22740953.9024
     -1595.397       -1243.166
  -5240931.248 9  -4078634.74848  20166480.240    20166479.2104   20166483.2394
       405.929         316.308
 -13756720.591 9 -10482266.285 9  19938052.013    19938051.312    19938054.782
      1195.444         931.515
 -17915314.150 9 -13940091.23248  21350297.283    21350296.4084   21350301.0634
      2716.972        2117.121
 96 10 10 16 57 59.9980000  0  9  1  6  3 22 23 26 17 28 21         -0.001631057
  -6655706.536 9  -5157665.46246  23752497.247    23752496.1964   23752502.2044
      4615.600        3596.571
   9317199.350 9   7256521.75147  22421893.181    22421892.4854   22421897.4424
     -2594.282       -2021.518
 -14820195.013 9 -11529689.92547  22343616.963    22343616.3694   22343621.1094
      3784.035        2948.599
   -781549.233 9   -605246.12246  23699218.656    23699217.4544   23699223.0084
      -882.045        -687.308
  -8382391.715 9  -6522515.26948  20137558.340    20137557.3204   20137561.5114
       591.375         460.812
   1242362.556 9    972415.57447  22750092.745    22750092.4214   22750095.8684
     -1607.174       -1252.343
  -5253002.348 9  -4088040.79848  20164183.157    20164182.1524   20164186.1864
       399.008         310.915
 -13792302.207 9 -10509992.219 9  19931281.017    19931280.329    19931283.839
      1176.796         916.984
 -17996706.965 9 -14003514.19348  21334808.723    21334807.8584   21334812.5194
      2709.359        2111.189
 96 10 10 16 58 29.9980000  0  9  1  6  3 22 23 26 17 28 21         -0.001648589
  -6794153.394 9  -5265546.09046  23726151.645    23726150.5524   23726156.3944
      4614.554        3595.756
   9395141.167 9   7317255.60146  22436725.129    22436724.4294   22436729.2804
     -2601.409       -2027.072
 -14933551.387 9 -11618019.54947  22322045.906    22322045.3014   22322050.1614
      3773.504        2940.393
   -754943.831 8   -584514.71246  23704281.520    23704280.3824   23704285.9894
      -891.016        -694.298
  -8399978.770 9  -6536219.46548  20134211.672    20134210.6464   20134214.8174
       581.538         453.146
   1290771.539 9   1010136.84747  22759304.539    22759304.3104   22759307.7404
     -1619.730       -1262.127
  -5264855.269 9  -4097276.84248  20161927.631    20161926.6154   20161930.6594
       391.634         305.169
 -13827307.584 9 -10537269.136 9  19924619.678    19924618.995    19924622.560
      1157.354         901.834
 -18077854.135 9 -14066745.73048  21319366.875    21319366.0544   21319370.6854
      2700.815        2104.531
 96 10 10 16 58 59.9980000  0  9  1  6  3 22 23 26 17 28 21         -0.001666141
  -6932561.851 9  -5373396.78746  23699813.017    23699812.1044   23699818.0394
      4612.708        3594.318
   9473282.446 9   7378144.87846  22451594.941    22451594.2234   22451599.1674
     -2608.053       -2032.249
 -15046595.624 9 -11706105.94247  22300534.307    22300533.7084   22300538.5334
      3762.708        2931.980
   -728085.831 9   -563586.41046  23709392.360    23709391.3394   23709396.8414
      -899.471        -700.886
  -8417270.480 9  -6549693.52248  20130921.122    20130920.1514   20130924.3074
       571.147         445.050
   1339548.705 9   1048145.00047  22768586.458    22768586.2754   22768589.8064
     -1632.207       -1271.850
  -5276497.347 9  -4106348.58948  20159712.171    20159711.2214   20159715.2554
       384.380         299.517
 -13861737.805 9 -10564097.876 9  19918067.792    19918067.129    19918070.710
      1137.929         886.698
 -18158752.082 9 -14129783.07148  21303972.528    21303971.6414   21303976.2944
      2692.357        2097.941
 96 10 10 16 59 29.9980000  0  9  1  6  3 22 23 26 17 28 21         -0.001683712
  -7070927.025 9  -5481213.77946  23673483.052    23673482.1784   23673488.0674
      4611.187        3593.133
   9551614.887 9   7439183.10746  22466501.129    22466500.3604   22466505.3284
     -2614.480       -2037.257
 -15159322.969 9 -11793945.40647  22279083.025    22279082.4474   22279087.2114
      3751.969        2923.612
   -700990.184 9   -542472.94346  23714548.571    23714547.4544   23714553.0574
      -907.341        -707.019
  -8434255.769 9  -6562928.80248  20127688.899    20127687.9374   20127692.1004
       560.812         436.996
   1388701.779 9   1086446.08347  22777940.038    22777939.8264   22777943.3494
     -1645.217       -1281.987
  -5287918.766 9  -4115248.39648  20157538.756    20157537.7774   20157541.8184
       376.333         293.246
 -13895594.948 9 -10590480.061 9  19911625.014    19911624.335    19911627.909
      1118.737         871.743
 -18239415.008 9 -14192637.28148  21288622.878    21288622.0104   21288626.6534
      2684.740        2092.005
 96 10 10 16 59 59.9980000  0  9  1  6  3 22 23 26 17 28 21         -0.001701295
  -7209245.163 9  -5588994.11646  23647161.835    23647160.8904   23647167.0184
      4610.355        3592.484
   9630138.855 9   7500370.57146  22481443.675    22481442.9584   22481448.0194
     -2620.307       -2041.798
 -15271726.920 9 -11881532.89047  22257693.294    22257692.7254   22257697.4754
      3741.862        2915.737
   -673663.473 9   -521179.43346  23719748.717    23719747.5054   23719753.1764
      -914.347        -712.478
  -8450940.346 9  -6575929.77148  20124513.911    20124512.9764   20124517.1264
       551.719         429.911
   1438256.225 9   1125059.91047  22787369.939    22787369.7134   22787373.2404
     -1658.195       -1292.100
  -5299084.886 9  -4123949.27148  20155413.877    20155412.9284   20155416.9844
       368.189         286.901
 -13928874.080 9 -10616411.857 9  19905292.215    19905291.535    19905295.108
      1100.072         857.199
 -18319842.305 9 -14255307.88848  21273318.095    21273317.1664   21273321.7704
      2677.200        2086.130
 96 10 10 17  0 29.9980000  0  9  1  6  3 22 23 26 17 28 21         -0.001718890
  -7347524.974 9  -5696744.59446  23620847.872    23620847.0514   23620853.1434
      4609.143        3591.540
   9708850.581 9   7561704.35646  22496421.976    22496421.3004   22496426.3734
     -2626.345       -2046.503
 -15383814.373 9 -11968873.73447  22236363.731    22236363.2334   22236367.9924
      3731.495        2907.658
   -646119.042 9   -499716.28846  23724990.291    23724989.0724   23724994.7204
      -921.095        -717.736
  -8467339.499 9  -6588708.32548  20121393.271    20121392.3244   20121396.5124
       542.376         422.631
   1488206.380 9   1163982.07747  22796875.124    22796874.8334   22796878.4634
     -1670.902       -1302.002
  -5309982.618 9  -4132441.00848  20153340.138    20153339.1784   20153343.2054
       359.080         279.803
 -13961579.735 9 -10641896.783 9  19899068.591    19899067.892    19899071.438
      1081.175         842.474
 -18400029.464 9 -14317791.36548  21258059.018    21258058.0574   21258062.7084
      2669.414        2080.063
 96 10 10 17  0 59.9980000  0  9  1  6  3 22 23 26 17 28 21         -0.001736503
  -7485763.367 9  -5804462.76346  23594541.702    23594541.0734   23594547.3914
      4608.053        3590.691
   9787749.410 9   7623183.91846  22511435.795    22511435.2954   22511440.3564
     -2632.602       -2051.378
 -15495591.320 9 -12055972.61847  22215093.278    22215092.7484   22215097.5324
      3721.292        2899.708
   -618368.112 9   -478092.23646  23730271.215    23730269.9614   23730275.6914
      -927.935        -723.066
  -8483455.226 9  -6601266.03348  20118326.545    20118325.5864   20118329.7884
       533.222         415.498
   1538543.248 9   1203205.58147  22806454.022    22806453.6394   22806457.3144
     -1683.723       -1311.992
  -5320590.482 9  -4140706.87648  20151321.560    20151320.5754   20151324.6064
       349.221         272.120
 -13993711.964 9 -10666934.883 9  19892954.049    19892953.361    19892956.899
      1062.085         827.599
 -18479977.253 9 -14380088.32448  21242845.385    21242844.4904   21242849.1164
      2661.574        2073.954
 96 10 10 17  1 29.9980000  0  9  1  6  3 22 23 26 17 28 21         -0.001754126
  -7623975.383 9  -5912160.36646  23568240.536    23568240.0424   23568246.4584
      4606.410        3589.410
   9866850.428 9   7684821.05446  22526488.233    22526487.7694   22526492.7984
     -2640.341       -2057.409
 -15607044.117 9 -12142818.93247  22193884.557    22193883.9774   22193888.7134
      3709.230        2890.309
   -590407.243 8   -456304.58346  23735591.878    23735590.7254   23735596.6094
      -935.684        -729.104
  -8499302.775 9  -6613614.76548  20115310.889    20115309.9074   20115314.0774
       523.620         408.016
   1589263.471 9   1242727.80947  22816105.735    22816105.4034   22816109.0834
     -1697.013       -1322.348
  -5330889.314 9  -4148731.93648  20149361.721    20149360.7764   20149364.7904
       337.813         263.231
 -14025268.497 9 -10691524.387 9  19886949.054    19886948.378    19886951.899
      1042.031         811.972
 -18559684.141 9 -14442197.57048  21227677.620    21227676.7524   21227681.3634
      2652.529        2066.906
 96 10 10 17  1 59.9980000  0  9  1  6  3 22 23 26 17 28 21         -0.001771764
  -7762168.923 9  -6019843.60546  23541943.214    23541942.7584   23541949.0284
      4606.419        3589.417
   9946149.542 9   7746612.52446  22541578.533    22541577.9804   22541582.9834
     -2646.307       -2062.057
 -15718159.424 9 -12229402.26447  22172739.997    22172739.4444   22172744.1494
      3698.441        2881.902
   -562242.637 9   -434358.15545  23740951.442    23740950.2514   23740955.9604
      -941.888        -733.939
  -8514887.504 9  -6625758.70148  20112345.162    20112344.2104   20112348.3924
       515.266         401.506
   1640348.397 9   1282534.21147  22825826.848    22825826.5724   22825830.2614
     -1708.615       -1331.388
  -5340880.213 9  -4156517.05548  20147460.542    20147459.5724   20147463.5854
       328.374         255.876
 -14056246.161 9 -10715662.828 9  19881054.208    19881053.531    19881057.018
      1023.099         797.220
 -18639135.275 9 -14504107.52248  21212558.586    21212557.7014   21212562.3484
      2644.279        2060.477
 96 10 10 17  2 29.9980000  0  9  1  6  3 22 23 26 17 28 21         -0.001789428
  -7900358.061 9  -6127523.37846  23515646.592    23515646.2024   23515652.4774
      4605.833        3588.961
  10025634.550 9   7808548.85446  22556704.095    22556703.5744   22556708.4924
     -2652.776       -2067.098
 -15828943.966 9 -12315727.85947  22151658.332    22151657.8264   22151662.5464
      3687.042        2873.020
   -533882.811 9   -412259.56746  23746348.286    23746347.0174   23746352.6224
      -948.922        -739.420
  -8530211.553 9  -6637699.51648  20109429.078    20109428.1104   20109432.3004
       506.148         394.401
   1691781.175 9   1322611.67147  22835614.221    22835613.9694   22835617.6354
     -1720.357       -1340.538
  -5350588.310 9  -4164081.80848  20145613.162    20145612.1864   20145616.2004
       318.845         248.451
 -14086650.335 9 -10739354.390 9  19875268.484    19875267.803    19875271.288
      1003.692         782.098
 -18718344.575 9 -14565829.02948  21197485.593    21197484.6674   21197489.2554
      2636.101        2054.105
 96 10 10 17  2 59.9980000  0 10  1  9  6  3 22 23 26 17 28 21      -0.001807113
  -8038535.185 9  -6235193.78746  23489352.402    23489351.9954   23489358.2014
      4606.011        3589.099
  -3893999.97019  -3015439.84856  24543761.448    24543760.8125   24543766.3415
      3082.680        2402.088
  10105304.011 9   7870628.90646  22571864.668    22571864.2624   22571869.1944
     -2658.499       -2071.558
 -15939393.583 9 -12401792.47447  22130640.480    22130639.9164   22130644.6794
      3676.037        2864.444
   -505311.460 9   -389996.18846  23751785.262    23751784.0184   23751789.5974
      -955.899        -744.856
  -8545265.058 9  -6649429.51148  20106564.483    20106563.5134   20106567.6874
       497.349         387.545
   1743563.253 9   1362961.30647  22845468.113    22845467.8574   22845471.4774
     -1731.804       -1349.458
  -5360029.792 9  -4171438.80848  20143816.568    20143815.5454   20143819.5304
       310.618         242.040
 -14116479.678 9 -10762598.033 9  19869592.129    19869591.494    19869594.959
       984.910         767.462
 -18797314.587 9 -14627364.09048  21182458.094    21182457.1534   21182461.7844
      2628.543        2048.215
 96 10 10 17  3 29.9980000  0 10  1  9  6  3 22 23 26 17 28 21      -0.001824819
  -8176710.526 9  -6342862.80646  23463058.611    23463058.1194   23463064.1824
      4605.719        3588.872
  -3986459.739 9  -3087486.37146  24526166.958    24526166.2534   24526171.7784
      3081.483        2401.156
  10185152.861 9   7932848.75446  22587059.401    22587059.0214   22587063.9554
     -2664.361       -2076.125
 -16049488.048 9 -12487580.34247  22109690.094    22109689.5574   22109694.2894
      3663.946        2855.023
   -476516.057 9   -367558.25346  23757264.880    23757263.6784   23757269.1124
      -963.454        -750.743
  -8560036.825 9  -6660939.97048  20103753.530    20103752.5554   20103756.7004
       487.584         379.935
   1795696.066 9   1403584.25247  22855388.707    22855388.4774   22855392.0334
     -1743.536       -1358.599
  -5369219.123 9  -4178599.32448  20142067.890    20142066.8894   20142070.8804
       302.398         235.635
 -14145734.011 9 -10785393.616 9  19864025.260    19864024.579    19864028.059
       965.624         752.434
 -18876045.224 9 -14688712.61048  21167475.989    21167475.1754   21167479.7854
      2620.437        2041.899
 96 10 10 17  3 59.9980000  0 10  1  9  6  3 22 23 26 17 28 21      -0.001842548
  -8314878.543 9  -6450526.13446  23436766.268    23436765.6404   23436771.5224
      4604.757        3588.122
  -4078887.544 8  -3159508.00046  24508578.509    24508577.7244   24508583.3344
      3079.745        2399.801
  10265165.669 9   7995196.35746  22602285.421    22602284.9514   22602289.9104
     -2670.490       -2080.901
 -16159235.884 9 -12573098.10647  22088805.704    22088805.1814   22088809.8304
      3652.006        2845.719
   -447501.856 9   -344949.82946  23762786.236    23762784.9804   23762790.4764
      -971.298        -756.856
  -8574520.757 9  -6672226.14548  20100997.258    20100996.3644   20101000.4804
       477.604         372.159
   1848182.225 9   1444482.54047  22865376.522    22865376.3564   22865379.8364
     -1756.078       -1368.372
  -5378183.450 9  -4185584.51348  20140362.017    20140361.0154   20140365.0204
       294.736         229.664
 -14174413.573 9 -10807741.324 9  19858567.677    19858567.021    19858570.504
       945.869         737.041
 -18954536.887 9 -14749874.91748  21152539.459    21152538.7164   21152543.3204
      2611.936        2035.275
 96 10 10 17  4 29.9980000  0 10  1  9  6  3 22 23 26 17 28 21      -0.001860288
  -8453006.985 9  -6558158.60146  23410481.173    23410480.5434   23410486.4234
      4602.997        3586.751
  -4171261.566 8  -3231487.68846  24491000.126    24490999.3784   24491005.0724
      3077.551        2398.092
  10345358.966 9   8057684.59946  22617545.724    22617545.2004   22617550.2344
     -2676.470       -2085.561
 -16268631.205 9 -12658341.20447  22067988.448    22067987.9244   22067992.5064
      3640.126        2836.462
   -418257.036 9   -322161.67446  23768351.341    23768350.2024   23768355.6624
      -979.088        -762.926
  -8588719.916 9  -6683290.42048  20098295.283    20098294.3364   20098298.4964
       468.066         364.727
   1901034.229 9   1485665.88747  22875434.005    22875433.7584   22875437.2944
     -1768.220       -1377.834
  -5386922.914 9  -4192394.49048  20138698.908    20138697.9204   20138701.9684
       287.118         223.728
 -14202512.253 9 -10829636.398 9  19853220.653    19853219.994    19853223.479
       926.520         721.964
 -19032783.091 9 -14810845.96848  21137649.777    21137648.9144   21137653.5444
      2603.587        2028.769
 96 10 10 17  4 59.9980000  0 10  1  9  6  3 22 23 26 17 28 21      -0.001878033
  -8591069.345 9  -6665739.59446  23384208.752    23384208.1774   23384213.9114
      4601.155        3585.316
  -4263549.562 8  -3303400.34846  24473438.136    24473437.4454   24473443.0914
      3074.739        2395.901
  10425733.986 9   8120314.43546  22632840.650    22632840.0344   22632845.0864
     -2682.037       -2089.899
 -16377661.822 9 -12743300.09847  22047240.541    22047240.0154   22047244.6454
      3628.395        2827.321
   -388783.654 9   -299195.40946  23773959.960    23773958.8404   23773964.3984
      -985.998        -768.310
  -8602627.048 9  -6694127.14348  20095648.890    20095647.9254   20095652.0594
       459.104         357.743
   1954252.749 9   1527134.83047  22885561.188    22885560.9384   22885564.5474
     -1779.841       -1386.889
  -5395429.354 9  -4199022.88848  20137080.179    20137079.1804   20137083.2564
       279.661         217.918
 -14230025.157 9 -10851075.023 9  19847985.097    19847984.450    19847987.924
       907.476         707.124
 -19110770.447 9 -14871615.31148  21122809.147    21122808.4684   21122813.0584
      2595.456        2022.433
 96 10 10 17  5 29.9980000  0 10  1  9  6  3 22 23 26 17 28 21      -0.001895783
  -8729063.617 9  -6773267.50946  23357949.367    23357948.7314   23357954.4864
      4598.139        3582.965
  -4355725.558 8  -3375225.75446  24455897.473    24455896.9034   24455902.3904
      3070.247        2392.400
  10506287.189 9   8183083.12546  22648169.465    22648168.7924   22648173.9034
     -2688.421       -2094.874
 -16486330.253 9 -12827976.75947  22026561.538    22026561.0224   22026565.7524
      3616.206        2817.823
   -359094.295 9   -276060.84146  23779609.749    23779608.5474   23779614.0474
      -993.386        -774.067
  -8616267.862 9  -6704756.34448  20093053.138    20093052.1414   20093056.3104
       450.286         350.872
   2007825.704 9   1568879.96547  22895755.807    22895755.5594   22895759.1824
     -1791.807       -1396.213
  -5403695.634 9  -4205464.14548  20135507.092    20135506.1614   20135510.2124
       271.217         211.338
 -14256953.200 9 -10872057.911 9  19842860.891    19842860.230    19842863.667
       887.599         691.635
 -19188504.418 9 -14932187.22448  21108016.983    21108016.1944   21108020.7644
      2586.698        2015.609
 96 10 10 17  5 59.9980000  0 10  1  9  6  3 22 23 26 17 28 21      -0.001913541
  -8866974.230 9  -6880730.24546  23331705.834    23331705.2074   23331710.8894
      4595.372        3580.809
  -4447780.701 8  -3446956.97146  24438379.855    24438379.2204   24438384.8634
      3066.321        2389.341
  10587020.095 9   8245991.84646  22663532.413    22663531.8184   22663536.9254
     -2694.396       -2099.529
 -16594659.613 9 -12912389.22147  22005947.168    22005946.6864   22005951.3924
      3605.085        2809.157
   -329194.751 8   -252762.52746  23785299.373    23785298.1084   23785303.7664
     -1000.359        -779.500
  -8629667.425 9  -6715197.55548  20090503.251    20090502.2554   20090506.4304
       442.390         344.719
   2061738.475 9   1610889.87847  22906015.085    22906014.8074   22906018.4094
     -1802.811       -1404.788
  -5411714.641 9  -4211712.72548  20133981.129    20133980.2164   20133984.2404
       262.708         204.708
 -14283301.453 9 -10892589.018 9  19837846.944    19837846.324    19837849.767
       868.421         676.692
 -19265992.696 9 -14992567.66948  21093271.355    21093270.6234   21093275.2004
      2578.787        2009.444
 96 10 10 17  6 29.9980000  0 10  1  9  6  3 22 23 26 17 28 21      -0.001931300
  -9004792.124 9  -6988120.76446  23305480.142    23305479.3934   23305484.9174
      4592.733        3578.753
  -4539705.322 9  -3518586.49846  24420887.072    24420886.5384   24420892.1514
      3061.961        2385.944
  10667945.570 9   8309050.61146  22678931.954    22678931.4544   22678936.5694
     -2700.650       -2104.403
 -16702635.382 9 -12996526.16147  21985400.203    21985399.6604   21985404.2534
      3593.128        2799.840
   -299078.378 8   -229295.29146  23791030.294    23791029.1344   23791034.8564
     -1007.473        -785.044
  -8642818.111 9  -6725444.83348  20088000.728    20087999.7514   20088003.9614
       434.137         338.288
   2115990.505 9   1653164.17847  22916338.907    22916338.5954   22916342.2114
     -1814.093       -1413.579
  -5419455.291 9  -4217744.40248  20132508.189    20132507.2524   20132511.2644
       253.326         197.397
 -14309063.939 9 -10912663.682 9  19832944.500    19832943.876    19832947.336
       848.967         661.533
 -19343239.102 9 -15052759.64948  21078572.046    21078571.1204   21078575.6984
      2570.873        2003.278
 96 10 10 17  6 59.9980000  0 10  1  9  6  3 22 23 26 17 28 21      -0.001949061
  -9142543.734 9  -7095459.59946  23279266.932    23279266.0984   23279271.6894
      4591.108        3577.487
  -4631496.633 9  -3590112.13746  24403419.742    24403419.2194   24403424.7274
      3057.802        2382.703
  10749063.431 9   8372259.28746  22694368.112    22694367.7074   22694372.8964
     -2707.038       -2109.380
 -16810247.227 9 -13080379.52347  21964922.383    21964921.8414   21964926.3824
      3581.190        2790.538
   -268744.846 9   -205658.83246  23796802.562    23796801.3904   23796807.1324
     -1014.438        -790.471
  -8655725.145 9  -6735502.26348  20085544.645    20085543.6554   20085547.8014
       426.672         332.472
   2170585.566 9   1695705.75947  22926727.880    22926727.6734   22926731.3684
     -1825.371       -1422.367
  -5426914.392 9  -4223556.69548  20131088.804    20131087.8334   20131091.8444
       244.106         190.212
 -14334240.151 9 -10932281.514 9  19828153.637    19828152.981    19828156.450
       829.669         646.495
 -19420252.958 9 -15112770.42748  21063916.764    21063915.8604   21063920.3894
      2563.495        1997.529
 96 10 10 17  7 29.9980000  0 10  1  9  6  3 22 23 26 17 28 21      -0.001966815
  -9280245.300 9  -7202759.46746  23253063.253    23253062.3814   23253067.9064
      4588.910        3575.774
  -4723159.219 8  -3661537.47646  24385977.063    24385976.4874   24385981.9074
      3053.197        2379.115
  10830390.576 9   8435631.04146  22709844.154    22709843.8234   22709848.9804
     -2714.809       -2115.436
 -16917488.293 9 -13163943.95647  21944515.033    21944514.4784   21944519.0924
      3568.275        2780.474
   -238196.408 9   -181854.88046  23802615.739    23802614.5884   23802620.3294
     -1021.898        -796.284
  -8668395.688 9  -6745375.41248  20083133.554    20083132.5134   20083136.6974
       417.697         325.478
   2225536.074 9   1738524.30947  22937184.632    22937184.4114   22937188.1904
     -1837.873       -1432.109
  -5434080.796 9  -4229140.90748  20129725.095    20129724.1534   20129728.1484
       233.711         182.112
 -14358826.648 9 -10951439.822 9  19823474.980    19823474.308    19823477.799
       809.433         630.727
 -19497026.819 9 -15172594.19248  21049307.192    21049306.2694   21049310.7684
      2554.724        1990.694
 96 10 10 17  7 59.9980000  0 10  1  9  6  3 22 23 26 17 28 21      -0.001984574
  -9417903.327 9  -7310025.40846  23226867.711    23226866.8384   23226872.3354
      4588.184        3575.208
  -4814717.498 9  -3732881.52946  24368554.107    24368553.4864   24368559.0064
      3050.546        2377.049
  10911929.727 9   8499167.99246  22725360.664    22725360.2174   22725365.3814
     -2721.060       -2120.306
 -17024363.473 9 -13247223.31147  21924177.274    21924176.7774   21924181.3884
      3556.532        2771.324
   -207456.046 9   -157901.34746  23808465.410    23808464.3844   23808470.1164
     -1027.392        -800.565
  -8680796.227 9  -6755038.16448  20080773.751    20080772.7754   20080776.9354
       408.849         318.584
   2280841.505 9   1781619.42747  22947709.019    22947708.6814   22947712.4904
     -1849.191       -1440.928
  -5440954.604 9  -4234497.12748  20128417.093    20128416.1424   20128420.1074
       224.580         174.997
 -14382825.171 9 -10970139.975 9  19818908.182    19818907.525    19818911.036
       790.372         615.874
 -19573554.740 9 -15232226.31748  21034744.542    21034743.4854   21034747.9764
      2547.017        1984.689
 96 10 10 17  8 29.9980000  0 10  1  9  6  3 22 23 26 17 28 21      -0.002002348
  -9555525.961 9  -7417263.75946  23200678.965    23200678.0644   23200683.4574
      4586.499        3573.895
  -4906182.175 8  -3804152.62746  24351148.931    24351148.2974   24351153.7484
      3047.185        2374.430
  10993659.797 9   8562853.72646  22740913.499    22740912.9514   22740918.1424
     -2727.493       -2125.319
 -17130871.259 9 -13330216.35547  21903909.534    21903908.9504   21903913.6114
      3544.016        2761.571
   -176547.459 9   -133816.71446  23814347.138    23814346.0544   23814351.7424
     -1033.259        -805.137
  -8692917.886 9  -6764483.61148  20078467.155    20078466.1434   20078470.2874
       399.449         311.259
   2336507.164 9   1824995.24547  22958301.867    22958301.5424   22958305.3264
     -1861.742       -1450.708
  -5447542.963 9  -4239630.92148  20127163.439    20127162.4444   20127166.3854
       214.790         167.369
 -14406236.258 9 -10988382.383 9  19814453.202    19814452.557    19814456.073
       770.399         600.311
 -19649833.266 9 -15291664.10748  21020229.148    21020228.1454   21020232.5954
      2538.187        1977.808
 96 10 10 17  8 59.9970000  0 10  1  9  6  3 22 23 26 17 28 21      -0.002020140
  -9693100.528 9  -7524464.65846  23174499.303    23174498.4724   23174503.8914
      4584.950        3572.688
  -4997553.241 8  -3875350.78546  24333761.531    24333760.8974   24333766.2974
      3044.381        2372.245
  11075563.947 9   8626675.07846  22756499.375    22756498.7584   22756504.0234
     -2732.996       -2129.607
 -17237016.889 9 -13412927.21647  21883710.563    21883709.9974   21883714.7344
      3532.469        2752.573
   -145479.620 8   -109608.02246  23820259.073    23820258.0774   23820263.8024
     -1038.138        -808.939
  -8704764.533 9  -6773714.76348  20076212.812    20076211.8074   20076215.9454
       390.114         303.985
   2392528.820 9   1868648.45347  22968962.424    22968962.0614   22968965.8904
     -1873.114       -1459.569
  -5453850.815 9  -4244546.13548  20125963.078    20125962.1004   20125966.0544
       205.534         160.156
 -14429058.281 9 -11006165.777 9  19810110.341    19810109.663    19810113.212
       750.939         585.147
 -19725851.192 9 -15350898.83548  21005763.382    21005762.4234   21005766.8904
      2529.582        1971.103
 96 10 10 17  9 29.9970000  0 10  1  9  6  3 22 23 26 17 28 21      -0.002037968
  -9830611.687 9  -7631616.15646  23148331.862    23148330.9814   23148336.4584
      4582.266        3570.597
  -5088841.891 9  -3946484.74146  24316389.802    24316389.2604   24316394.6544
      3041.499        2369.999
  11157624.669 9   8690618.46146  22772115.064    22772114.4694   22772119.5974
     -2737.508       -2133.123
 -17342814.740 9 -13495367.05947  21863577.737    21863577.2544   21863582.0804
      3520.649        2743.363
   -114261.034 8    -85281.86546  23826199.794    23826198.9184   23826204.5424
     -1043.166        -812.857
  -8716312.835 9  -6782713.42948  20074015.218    20074014.2534   20074018.3854
       379.775         295.929
   2448884.423 9   1912561.88647  22979686.416    22979686.1034   22979689.9504
     -1883.757       -1467.863
  -5459876.508 9  -4249241.48948  20124816.404    20124815.4644   20124819.4044
       196.325         152.981
 -14451291.724 9 -11023490.542 9  19805879.434    19805878.795    19805882.311
       731.346         569.880
 -19801609.691 9 -15409931.41348  20991346.861    20991346.0184   20991350.5074
      2521.243        1964.605
 96 10 10 17  9 59.9970000  0 10  1  9  6  3 22 23 26 17 28 21      -0.002055833
  -9968030.131 9  -7738695.38546  23122181.973    23122181.0224   23122186.5934
      4579.242        3568.241
  -5180038.863 9  -4017547.25946  24299035.580    24299035.0204   24299040.3304
      3038.244        2367.463
  11239809.578 9   8754658.61046  22787754.362    22787753.6974   22787758.8324
     -2741.078       -2135.905
 -17448253.338 9 -13577526.99947  21843513.640    21843513.0444   21843517.7824
      3508.690        2734.044
    -82880.107 8    -60829.23145  23832171.302    23832170.3394   23832176.3244
     -1048.824        -817.265
  -8727557.616 9  -6791475.59448  20071875.427    20071874.4594   20071878.5604
       370.426         288.644
   2505554.349 9   1956720.26047  22990470.461    22990470.1034   22990473.8674
     -1893.893       -1475.761
  -5465630.327 9  -4253724.99448  20123721.502    20123720.5574   20123724.5084
       187.705         146.264
 -14472935.261 9 -11040355.639 9  19801760.859    19801760.190    19801763.697
       711.866         554.701
 -19877125.641 9 -15468774.98948  20976976.584    20976975.8194   20976980.2824
      2513.443        1958.527
 96 10 10 17 10 29.9970000  0 10  1  9  6  3 22 23 26 17 28 21      -0.002073720
 -10105341.212 9  -7845690.98846  23096052.392    23096051.5414   23096057.0214
      4575.291        3565.162
  -5271115.785 8  -4088516.21746  24281704.116    24281703.5524   24281708.8864
      3033.914        2364.089
  11322106.692 9   8818786.17946  22803414.989    22803414.3864   22803419.5124
     -2745.052       -2139.002
 -17553306.345 9 -13659386.46147  21823522.709    21823522.0714   21823526.8414
      3495.224        2723.551
    -51301.118 8    -36222.27346  23838180.454    23838179.5524   23838185.5144
     -1055.921        -822.796
  -8738520.686 9  -6800018.24748  20069789.158    20069788.2094   20069792.3334
       360.877         281.203
   2562535.332 9   2001120.98847  23001313.570    23001313.2184   23001317.0374
     -1904.292       -1483.864
  -5471122.247 9  -4258004.42148  20122676.409    20122675.4614   20122679.4244
       178.851         139.364
 -14493985.235 9 -11056758.216 9  19797755.168    19797754.532    19797758.040
       691.924         539.162
 -19952398.996 9 -15527429.53048  20962652.466    20962651.7604   20962656.2444
      2505.246        1952.140
 96 10 10 17 10 59.9970000  0 10  1  9  6  3 22 23 26 17 28 21      -0.002091625
 -10242543.114 9  -7952601.49946  23069943.460    23069942.7104   23069948.2614
      4571.878        3562.502
  -5362058.910 8  -4159380.92846  24264398.019    24264397.6324   24264402.9754
      3029.224        2360.434
  11404522.394 9   8883006.15246  22819098.292    22819097.6104   22819102.7094
     -2748.977       -2142.060
 -17657953.337 9 -13740929.55347  21803608.924    21803608.4424   21803613.1224
      3481.528        2712.879
    -19517.471 8    -11455.84446  23844228.679    23844227.7894   23844233.7064
     -1062.622        -828.017
  -8749196.007 9  -6808336.68048  20067757.740    20067756.7514   20067760.8914
       351.222         273.679
   2619812.183 9   2045752.29147  23012213.058    23012212.6924   23012216.4774
     -1913.752       -1491.235
  -5476361.184 9  -4262086.71548  20121679.525    20121678.5274   20121682.5164
       170.656         132.979
 -14514445.362 9 -11072701.178 9  19793861.744    19793861.091    19793864.621
       672.411         523.957
 -20027432.444 9 -15585897.13148  20948374.002    20948373.3244   20948377.7914
      2497.318        1945.962
 96 10 10 17 11 29.9970000  0 10  1  9  6  3 22 23 26 17 28 21      -0.002109541
 -10379640.118 9  -8059430.27246  23043854.663    23043853.9604   23043859.4994
      4567.968        3559.456
  -5452854.135 9  -4230130.38946  24247120.293    24247119.7354   24247125.1054
      3023.652        2356.092
  11487062.041 9   8947322.72146  22834805.139    22834804.4714   22834809.4244
     -2753.930       -2145.919
 -17762175.810 9 -13822141.85347  21783776.114    21783775.5774   21783780.2084
      3466.579        2701.230
     12477.946 9     13475.59946  23850317.308    23850316.3324   23850322.2704
     -1070.431        -834.102
  -8759586.969 9  -6816433.53148  20065780.403    20065779.4194   20065783.5504
       341.592         266.175
   2677382.566 9   2090612.30647  23023168.435    23023168.0364   23023171.7624
     -1924.594       -1499.684
  -5481346.055 9  -4265971.03848  20120730.946    20120729.9424   20120733.9424
       161.577         125.904
 -14534316.091 9 -11088184.867 9  19790080.441    19790079.794    19790083.347
       652.189         508.199
 -20102225.181 9 -15644177.16548  20934141.343    20934140.7204   20934145.2124
      2488.739        1939.277
 96 10 10 17 11 59.9970000  0 10  1  9  6  3 22 23 26 17 28 21      -0.002127457
 -10516652.593 9  -8166193.14946  23017782.087    23017781.3414   23017786.9434
      4565.966        3557.896
  -5543495.621 9  -4300760.08146  24229871.791    24229871.2154   24229876.6544
      3018.907        2352.395
  11569743.127 9   9011749.47846  22850538.741    22850538.1844   22850543.2304
     -2758.493       -2149.475
 -17865975.328 9 -13903024.56647  21764023.793    21764023.2604   21764027.8174
      3453.259        2690.851
     44684.198 8     38571.34846  23856445.927    23856444.9474   23856450.8834
     -1076.727        -839.008
  -8769723.827 9  -6824332.38548  20063851.451    20063850.4564   20063854.5794
       334.023         260.278
   2735265.214 9   2135715.63547  23034183.000    23034182.6824   23034186.4744
     -1934.519       -1507.417
  -5486077.681 9  -4269658.02648  20119830.504    20119829.5424   20119833.5724
       153.535         119.638
 -14553600.419 9 -11103211.624 9  19786410.764    19786410.109    19786413.642
       633.194         493.398
 -20176769.903 9 -15702263.94448  20919955.924    20919955.3054   20919959.7554
      2480.648        1932.972
 96 10 10 17 12 29.9970000  0 10  1  9  6  3 22 23 26 17 28 21      -0.002145366
 -10653579.655 9  -8272889.52946  22991725.625    22991724.8734   22991730.3794
      4562.712        3555.360
  -5633972.143 9  -4371261.24046  24212654.831    24212654.2344   24212659.6114
      3013.109        2347.877
  11652591.574 9   9076306.64946  22866304.402    22866303.7234   22866308.8934
     -2764.629       -2154.256
 -17969355.237 9 -13983580.32747  21744351.367    21744350.7824   21744355.2704
      3439.078        2679.801
     77087.824 9     63820.90146  23862612.129    23862611.2104   23862617.0184
     -1083.132        -843.999
  -8779604.466 9  -6832031.57948  20061971.204    20061970.2544   20061974.3684
       324.949         253.207
   2793479.220 9   2181077.17947  23045260.861    23045260.5034   23045264.2704
     -1946.240       -1516.551
  -5490538.096 9  -4273133.68048  20118981.703    20118980.7514   20118984.7844
       143.781         112.037
 -14572291.200 9 -11117775.874 9  19782854.023    19782853.375    19782856.905
       613.015         477.674
 -20251050.295 9 -15760144.74548  20905820.813    20905820.2014   20905824.6624
      2471.623        1925.940
 96 10 10 17 12 59.9970000  0 10  1  9  6  3 22 23 26 17 28 21      -0.002163276
 -10790432.361 9  -8379527.90546  22965683.218    22965682.5044   22965688.1184
      4560.671        3553.770
  -5724289.196 9  -4441638.16346  24195468.035    24195467.4154   24195472.7854
      3008.062        2343.944
  11735615.513 9   9141000.59846  22882103.398    22882102.7084   22882107.8174
     -2770.190       -2158.590
 -18072336.198 9 -14063825.20547  21724754.712    21724754.1744   21724758.6154
      3426.324        2669.863
    109658.250 9     89200.42446  23868810.067    23868809.1514   23868814.9974
     -1088.301        -848.027
  -8789236.556 9  -6839537.09948  20060138.250    20060137.3114   20060141.4254
       317.297         247.244
   2852031.833 9   2226702.56647  23056403.100    23056402.7964   23056406.4424
     -1957.328       -1525.191
  -5494712.270 9  -4276386.28748  20118187.392    20118186.4374   20118190.4944
       134.505         104.809
 -14590388.989 9 -11131878.057 9  19779410.143    19779409.493    19779413.012
       593.488         462.458
 -20325077.963 9 -15817828.62148  20891733.773    20891733.1824   20891737.6634
      2463.704        1919.769
 96 10 10 17 13 29.9970000  0 10  1  9  6  3 22 23 26 17 28 21      -0.002181191
 -10927216.605 9  -8486112.97546  22939654.025    22939653.2164   22939658.9004
      4558.238        3551.874
  -5814459.922 8  -4511901.06546  24178309.012    24178308.4704   24178313.8404
      3003.223        2340.174
  11818800.873 9   9205820.31646  22897933.024    22897932.4854   22897937.4154
     -2775.636       -2162.833
 -18174939.627 9 -14143775.91047  21705229.938    21705229.3544   21705233.8164
      3413.914        2660.193
    142390.255 8    114705.86946  23875038.847    23875037.8134   23875043.6714
     -1093.629        -852.178
  -8798645.147 9  -6846868.47048  20058347.890    20058346.9264   20058351.0104
       309.902         241.482
   2910927.750 9   2272595.45447  23067610.774    23067610.4064   23067613.9644
     -1968.996       -1534.283
  -5498601.044 9  -4279416.50548  20117447.422    20117446.4274   20117450.4834
       124.954          97.367
 -14607896.959 9 -11145520.633 9  19776078.532    19776077.883    19776081.345
       573.729         447.062
 -20398876.310 9 -15875333.81948  20877690.531    20877689.7954   20877694.2924
      2456.143        1913.878
 96 10 10 17 13 59.9970000  0 10  1  9  6  3 22 23 26 17 28 21      -0.002199108
 -11063916.014 9  -8592631.95246  22913640.996    22913640.2194   22913645.8374
      4555.348        3549.622
  -5904475.743 8  -4582043.26046  24161179.358    24161178.8624   24161184.2784
      2998.257        2336.304
  11902154.508 9   9270771.13846  22913794.816    22913794.1154   22913799.1254
     -2780.734       -2166.806
 -18277170.837 9 -14223436.57247  21685775.915    21685775.3274   21685779.9534
      3401.806        2650.758
    175280.411 9    140334.54046  23881297.722    23881296.6244   23881302.5174
     -1098.627        -856.073
  -8807821.196 9  -6854018.64148  20056601.759    20056600.7934   20056604.8564
       302.172         235.459
   2970173.675 9   2318761.07747  23078885.045    23078884.5524   23078888.1294
     -1980.179       -1542.997
  -5502206.596 9  -4282226.03448  20116761.290    20116760.3354   20116764.3904
       115.783          90.221
 -14624809.701 9 -11158699.401 9  19772860.174    19772859.510    19772862.988
       554.206         431.849
 -20472445.993 9 -15932660.82448  20863690.661    20863689.9714   20863694.4504
      2448.966        1908.285
 96 10 10 17 14 29.9970000  0 10  1  9  6  3 22 23 26 17 28 21      -0.002217032
 -11200514.494 9  -8699072.22946  22887647.199    22887646.3304   22887652.0914
      4552.073        3547.070
  -5994337.974 8  -4652065.75046  24144079.180    24144078.6424   24144084.0974
      2993.265        2332.414
  11985657.214 9   9335838.14046  22929684.941    22929684.2094   22929689.2074
     -2785.181       -2170.271
 -18379025.493 9 -14302803.81747  21666393.715    21666393.1074   21666397.6744
      3389.274        2640.993
    208326.687 8    166084.85046  23887586.381    23887585.1494   23887591.1154
     -1103.751        -860.066
  -8816755.174 9  -6860980.18248  20054901.701    20054900.7164   20054904.7924
       294.300         229.325
   3029760.076 9   2365192.00547  23090223.986    23090223.5334   23090227.0624
     -1991.286       -1551.651
  -5505531.252 9  -4284816.67648  20116128.658    20116127.6934   20116131.7224
       106.637          83.094
 -14641130.435 9 -11171416.864 9  19769754.474    19769753.797    19769757.279
       534.640         416.603
 -20545798.957 9 -15989818.95848  20849732.002    20849731.3524   20849735.8394
      2441.786        1902.690
 96 10 10 17 14 59.9970000  0 10  1  9  6  3 22 23 26 17 28 21      -0.002234963
 -11337005.920 9  -8805429.15646  22861673.680    22861672.8584   22861678.4464
      4547.245        3543.308
  -6084034.502 8  -4721959.12146  24127010.441    24127009.9234   24127015.4454
      2986.677        2327.281
  12069294.160 9   9401009.72946  22945600.396    22945599.7904   22945604.8254
     -2790.423       -2174.356
 -18480496.718 9 -14381872.28747  21647084.424    21647083.8064   21647088.3044
      3375.363        2630.153
    241542.338 8    191967.14945  23893907.169    23893906.0084   23893911.8884
     -1110.460        -865.293
  -8825449.866 9  -6867755.26248  20053247.169    20053246.2044   20053250.2404
       285.347         222.348
   3089673.251 9   2411877.55946  23101625.172    23101624.6554   23101628.2434
     -2002.746       -1560.581
  -5508575.786 9  -4287189.04648  20115549.305    20115548.3274   20115552.3604
        96.530          75.218
 -14656858.934 9 -11183672.841 9  19766761.467    19766760.776    19766764.271
       514.065         400.570
 -20618920.812 9 -16046797.01648  20835817.407    20835816.7084   20835821.1764
      2433.108        1895.928
 96 10 10 17 15 29.9970000  0 10  1  9  6  3 22 23 26 17 28 21      -0.002252905
 -11473370.159 9  -8911686.94346  22835724.425    22835723.5944   22835729.1304
      4542.693        3539.761
  -6173565.441 8  -4791723.47046  24109973.285    24109972.7124   24109978.2354
      2980.922        2322.796
  12153055.302 9   9466278.08346  22961539.499    22961539.0124   22961544.2234
     -2794.741       -2177.720
 -18581574.766 9 -14460634.38847  21627849.767    21627849.1724   21627853.7204
      3362.115        2619.830
    274927.687 8    217981.67445  23900260.194    23900259.0684   23900264.9644
     -1116.077        -869.670
  -8833897.002 9  -6874337.44248  20051639.771    20051638.7644   20051642.8054
       276.801         215.689
   3149892.070 9   2458801.27546  23113084.448    23113083.9394   23113087.5344
     -2012.777       -1568.398
  -5511348.059 9  -4289349.26548  20115021.767    20115020.8094   20115024.8554
        87.271          68.003
 -14672000.126 9 -11195471.180 9  19763880.212    19763879.516    19763883.006
       494.393         385.241
 -20691799.679 9 -16103585.71648  20821949.090    20821948.3294   20821952.8174
      2424.291        1889.058
 96 10 10 17 15 59.9970000  0 10  1  9  6  3 22 23 26 17 28 21      -0.002270853
 -11609590.949 9  -9017832.98546  22809802.522    22809801.6874   22809807.0714
      4537.687        3535.860
  -6262920.014 8  -4861350.38446  24092969.729    24092969.1454   24092974.6434
      2975.175        2318.318
  12236948.934 9   9531649.68446  22977504.009    22977503.4324   22977508.6904
     -2798.994       -2181.034
 -18682247.114 9 -14539080.35747  21608692.377    21608691.7704   21608696.3364
      3348.313        2609.075
    308475.807 8    244123.05245  23906644.222    23906643.2304   23906648.8504
     -1121.511        -873.905
  -8842090.915 9  -6880722.30948  20050080.491    20050079.5044   20050083.5734
       268.494         209.216
   3210406.684 9   2505955.47646  23124599.978    23124599.4614   23124603.0764
     -2022.603       -1576.054
  -5513838.536 9  -4291289.90248  20114547.857    20114546.9084   20114550.9584
        77.703          60.548
 -14686552.279 9 -11206810.523 9  19761111.038    19761110.331    19761113.821
       474.701         369.897
 -20764404.415 9 -16160160.82048  20808132.876    20808132.1114   20808136.5064
      2415.096        1881.893
 96 10 10 17 16 29.9970000  0 10  1  9  6  3 22 23 26 17 28 21      -0.002288813
 -11745670.986 9  -9123869.30746  22783907.124    22783906.3944   22783911.9394
      4533.533        3532.623
  -6352107.198 8  -4930846.86346  24075997.929    24075997.3634   24076002.7884
      2969.915        2314.219
  12320955.272 9   9597109.12346  22993489.898    22993489.3624   22993494.7394
     -2802.193       -2183.527
 -18782505.035 9 -14617203.39547  21589613.976    21589613.3604   21589617.8864
      3334.748        2598.505
    342177.017 8    270383.71145  23913057.578    23913056.3314   23913061.8414
     -1126.040        -877.434
  -8850042.013 9  -6886917.96948  20048567.479    20048566.4794   20048570.5484
       260.802         203.222
   3271203.436 9   2553329.53847  23136169.048    23136168.7344   23136172.3754
     -2031.278       -1582.814
  -5516049.784 9  -4293012.95848  20114127.056    20114126.1264   20114130.1534
        69.053          53.808
 -14700516.833 9 -11217692.004 9  19758453.673    19758452.967    19758456.442
       455.482         354.921
 -20836736.816 9 -16216523.71648  20794368.522    20794367.6964   20794372.1214
      2406.357        1875.083
 96 10 10 17 16 59.9970000  0 10  1  9  6  3 22 23 26 17 28 21      -0.002306787
 -11881612.427 9  -9229797.66946  22758038.321    22758037.4934   22758043.0504
      4528.976        3529.072
  -6441122.925 8  -5000209.73046  24059058.836    24059058.2424   24059063.6094
      2964.351        2309.884
  12405082.197 8   9662662.51446  23009498.697    23009498.2274   23009503.6394
     -2806.675       -2187.019
 -18882337.584 9 -14694994.97847  21570616.528    21570615.9124   21570620.3324
      3320.289        2587.238
    376020.290 8    296755.06445  23919497.760    23919496.6714   23919502.0044
     -1130.467        -880.883
  -8857744.665 9  -6892920.03348  20047101.676    20047100.6954   20047104.7724
       252.291         196.590
   3332275.146 9   2600917.83847  23147790.539    23147790.2914   23147794.0074
     -2040.601       -1590.079
  -5517986.970 9  -4294522.46848  20113758.403    20113757.4884   20113761.5164
        59.787          46.587
 -14713890.576 9 -11228113.114 9  19755908.715    19755908.011    19755911.532
       435.691         339.499
 -20908805.158 9 -16272680.85248  20780654.303    20780653.5374   20780657.9184
      2397.969        1868.547
 96 10 10 17 17 29.9970000  0 10  1  9  6  3 22 23 26 17 28 21      -0.002324775
 -12017433.523 9  -9335632.25246  22732192.310    22732191.5624   22732197.0314
      4526.284        3526.975
  -6529981.276 8  -5069449.97846  24042149.625    24042149.0334   24042154.3594
      2959.882        2306.401
  12489339.869 9   9728317.78146  23025532.382    23025531.9304   23025537.3424
     -2810.065       -2189.661
 -18981739.036 9 -14772450.63947  21551700.957    21551700.3684   21551704.8494
      3306.982        2576.869
    409988.726 8    323223.97045  23925961.745    23925961.0014   23925965.8364
     -1133.728        -883.424
  -8865196.079 9  -6898726.32248  20045683.705    20045682.7574   20045686.8044
       244.968         190.884
   3393627.478 9   2648724.80647  23159465.515    23159465.2864   23159469.0464
     -2049.210       -1596.787
  -5519654.299 9  -4295821.69248  20113441.115    20113440.1844   20113444.2514
        51.721          40.302
 -14726674.567 9 -11238074.670 9  19753475.941    19753475.267    19753478.850
       416.969         324.911
 -20980624.329 9 -16328643.82548  20766987.622    20766986.8054   20766991.1744
      2390.367        1862.624
 96 10 10 17 17 59.9970000  0 10  1  9  6  3 22 23 26 17 28 21      -0.002342781
 -12153157.723 9  -9441391.31646  22706364.819    22706364.1184   22706369.5114
      4522.129        3523.737
  -6618682.063 8  -5138567.42446  24025270.435    24025269.9684   24025275.2884
      2953.541        2301.461
  12573717.895 8   9794066.82946  23041589.007    23041588.6004   23041593.9344
     -2814.928       -2193.450
 -19080718.813 9 -14849577.72447  21532865.583    21532865.0024   21532869.6044
      3291.830        2565.062
    444078.862 8    349787.68245  23932448.791    23932448.1064   23932453.3704
     -1138.969        -887.508
  -8872409.685 9  -6904347.31548  20044311.047    20044310.0674   20044314.0684
       235.989         183.888
   3455261.819 9   2696751.51547  23171194.095    23171193.9084   23171197.7814
     -2059.575       -1604.864
  -5521058.191 9  -4296915.64148  20113173.942    20113173.0334   20113177.0944
        41.954          32.691
 -14738875.951 9 -11247582.245 9  19751154.077    19751153.435    19751157.016
       396.528         308.983
 -21052205.665 9 -16384421.47848  20753366.165    20753365.3134   20753369.6694
      2381.932        1856.051
 96 10 10 17 18 29.9970000  0 10  1  9  6  3 22 23 26 17 28 21      -0.002360807
 -12288795.524 9  -9547083.08046  22680553.844    22680553.0544   22680558.3664
      4519.982        3522.064
  -6707221.186 8  -5207558.89646  24008422.017    24008421.4434   24008426.8274
      2948.531        2297.557
  12658208.094 9   9859903.29246  23057666.969    23057666.5994   23057672.0454
     -2818.264       -2196.050
 -19179273.958 9 -14926373.93247  21514110.978    21514110.5164   21514115.1874
      3278.170        2554.418
    478305.041 7    376457.41645  23938961.871    23938960.8904   23938966.4544
     -1143.375        -890.942
  -8879372.765 9  -6909773.08948  20042985.983    20042985.0254   20042989.0534
       227.882         177.570
   3517177.402 9   2744997.39546  23182976.286    23182976.0794   23182979.9844
     -2068.514       -1611.829
  -5522195.687 9  -4297802.00648  20112957.491    20112956.5754   20112960.6644
        33.385          26.014
 -14750493.138 9 -11256634.603 9  19748943.377    19748942.733    19748946.312
       377.564         294.206
 -21123562.591 9 -16440024.26548  20739787.445    20739786.5644   20739790.8894
      2374.737        1850.444
 96 10 10 17 18 59.9970000  0 10  1  9  6  3 22 23 26 17 28 21      -0.002378851
 -12424358.193 9  -9652716.28346  22654757.193    22654756.2754   22654761.7714
      4517.627        3520.229
  -6795596.688 8  -5276422.86946  23991604.724    23991604.0914   23991609.5404
      2943.241        2293.435
  12742821.750 8   9925835.94346  23073768.177    23073767.9054   23073773.5424
     -2822.397       -2199.270
 -19277413.584 9 -15002846.35147  21495435.741    21495435.2364   21495439.8304
      3264.673        2543.901
    512669.774 8    403235.09245  23945501.366    23945500.4494   23945505.7504
     -1147.804        -894.393
  -8886090.788 9  -6915007.91348  20041707.553    20041706.6224   20041710.6684
       220.207         171.590
   3579376.833 9   2793464.43346  23194812.654    23194812.2674   23194816.1554
     -2077.838       -1619.095
  -5523051.044 9  -4298468.52848  20112794.704    20112793.8044   20112797.8964
        23.696          18.464
 -14761531.495 9 -11265235.930 9  19746842.803    19746842.177    19746845.764
       358.442         279.305
 -21194690.931 9 -16495448.93048  20726252.132    20726251.3074   20726255.6474
      2367.070        1844.470
 96 10 10 17 19 29.9970000  0 10  1  9  6  3 22 23 26 17 28 21      -0.002396915
 -12559839.057 9  -9758285.75546  22628975.948    22628975.0344   22628980.6754
      4514.402        3517.716
  -6883805.234 8  -5345156.75946  23974818.911    23974818.4714   23974824.0614
      2937.474        2288.941
  12827551.848 8   9991859.32846  23089891.764    23089891.4684   23089897.1334
     -2825.949       -2202.038
 -19375150.957 9 -15079005.32747  21476836.945    21476836.4474   21476841.0164
      3251.307        2533.486
    547181.723 7    430127.48845  23952068.865    23952067.0674   23952072.9794
     -1152.985        -898.430
  -8892578.522 9  -6920063.29348  20040473.029    20040472.0664   20040476.0864
       212.606         165.667
   3641851.039 9   2842145.59246  23206701.223    23206700.7194   23206704.6394
     -2086.758       -1626.045
  -5523607.942 9  -4298902.48248  20112688.819    20112687.8584   20112691.9104
        13.692          10.669
 -14771992.615 9 -11273387.456 9  19744852.109    19744851.499    19744855.071
       339.156         264.277
 -21265568.979 9 -16550678.56448  20712764.464    20712763.6184   20712767.9964
      2358.397        1837.712
 96 10 10 17 19 59.9970000  0 10  1  9  6  3 22 23 26 17 28 21      -0.002414998
 -12695207.898 9  -9863767.94446  22603216.037    22603215.2284   22603220.7564
      4509.905        3514.212
  -6971837.976 8  -5413753.66246  23958066.679    23958066.1234   23958071.8884
      2931.084        2283.961
  12912381.612 8  10057960.39246  23106034.618    23106034.1284   23106039.6354
     -2829.529       -2204.828
 -19472480.401 9 -15154846.42947  21458315.783    21458315.2534   21458319.8184
      3236.911        2522.268
    581852.463 7    457143.58755  23958666.327    23958664.7294          0.0005
     -1158.400        -902.649
  -8898837.670 9  -6924940.55648  20039281.983    20039281.0064   20039285.0344
       204.375         159.253
   3704586.360 9   2891030.21346  23218639.250    23218638.7944   23218642.7924
     -2095.801       -1633.092
  -5523861.613 9  -4299100.15548  20112640.538    20112639.5724   20112643.6434
         3.033           2.363
 -14781874.273 9 -11281087.453 9  19742971.747    19742971.122    19742974.683
       319.325         248.825
 -21336197.330 9 -16605713.62448  20699324.235    20699323.4464   20699327.8594
      2349.904        1831.094
 96 10 10 17 20 29.9970000  0 10  1  9  6  3 22 23 26 17 28 21      -0.002433099
 -12830453.646 9  -9969154.20046  22577479.392    22577478.7594   22577484.3754
      4505.587        3510.847
  -7059696.189 8  -5482214.55846  23941347.735    23941347.0594   23941352.9224
      2925.472        2279.589
  12997314.928 9  10124142.11446  23122197.066    23122196.5124   23122202.0164
     -2833.389       -2207.836
 -19569388.450 9 -15230359.19647  21439874.797    21439874.2844   21439878.8434
      3222.924        2511.369
    616662.62417    484268.38154  23965290.468    23965289.5184          0.0005
     -1162.610        -905.930
  -8904863.141 9  -6929635.72048  20038135.382    20038134.4184   20038138.4324
       196.692         153.266
   3767583.504 9   2940118.85146  23230627.144    23230626.7794   23230630.8494
     -2104.747       -1640.062
  -5523808.917 9  -4299059.09648  20112650.563    20112649.6024   20112653.6804
        -7.181          -5.596
 -14791171.591 9 -11288332.120 9  19741202.523    19741201.894    19741205.440
       299.803         233.613
 -21406578.433 9 -16660556.03648  20685931.202    20685930.3334   20685934.7594
      2341.474        1824.525
 96 10 10 17 20 59.9970000  0 10  1  9  6  3 22 23 26 17 28 21      -0.002451212
 -12965551.753 9 -10074425.42647  22551771.086    22551770.4034   22551775.9854
      4501.099        3507.350
  -7147379.565 8  -5550539.19446  23924661.878    23924661.4724   23924667.1914
      2920.268        2275.534
  13082365.641 8  10190415.34446  23138381.913    23138381.1484   23138386.5914
     -2836.348       -2210.141
 -19665878.148 9 -15305545.95547  21421513.404    21421512.9194   21421517.4424
      3209.756        2501.109
    651584.13417    511479.96554  23971936.038           0.0005          0.0005
     -1165.192        -907.942
  -8910664.971 9  -6934156.63048  20037031.336    20037030.3594   20037034.3514
       190.201         148.209
   3830847.828 9   2989415.67546  23242665.936    23242665.6334   23242669.7044
     -2112.577       -1646.164
  -5523452.664 9  -4298781.50648  20112718.319    20112717.4054   20112721.4834
       -16.185         -12.612
 -14799882.550 9 -11295119.889 9  19739544.874    19739544.274    19739547.756
       281.109         219.046
 -21476711.389 9 -16715205.07748  20672585.222    20672584.4514   20672588.9204
      2334.277        1818.917
 96 10 10 17 21 29.9970000  0 10  1  9  6  3 22 23 26 17 28 21      -0.002469340
 -13100480.052 9 -10179564.30746  22526095.018    22526094.3164   22526099.9364
      4494.248        3502.011
  -7234879.271 8  -5618720.74346  23908011.347    23908010.8334   23908016.5474
      2913.069        2269.924
  13167520.531 8  10256769.72745  23154586.324    23154585.7394   23154591.0634
     -2840.524       -2213.395
 -19761935.098 9 -15380395.51447  21403234.386    21403233.8884   21403238.4354
      3194.088        2488.900
    686604.74017    538768.66754  23978600.120           0.0005          0.0005
     -1169.459        -911.267
  -8916240.577 9  -6938501.25848  20035970.245    20035969.3184   20035973.3714
       181.543         141.462
   3894367.423 9   3038911.41846  23254753.256    23254753.0594   23254757.1784
     -2122.090       -1653.577
  -5522817.402 9  -4298286.50148  20112839.221    20112838.3194   20112842.3824
       -26.046         -20.296
 -14808008.737 9 -11301451.989 9  19737998.590    19737997.947    19738001.397
       260.696         203.140
 -21546612.899 9 -16769673.77548  20659283.331    20659282.6504   20659287.0924
      2326.071        1812.523
 96 10 10 17 21 59.9970000  0 10  1  9  6  3 22 23 26 17 28 21      -0.002487480
 -13235239.330 9 -10284571.51846  22500451.218    22500450.4994   22500456.0004
      4489.808        3498.552
  -7322197.592 8  -5686760.95246  23891395.196    23891394.6124   23891400.4074
      2908.202        2266.131
  13252768.383 8  10323196.54146  23170808.461    23170807.9294   23170813.3264
     -2842.669       -2215.067
 -19857548.995 9 -15454899.84247  21385039.670    21385039.1714   21385043.7394
      3180.245        2478.113
    721707.68117     15281.59352  23985279.979           0.0005          0.0005
     -1170.809        -912.319
  -8921591.391 9  -6942670.73048  20034952.005    20034951.0564   20034955.1554
       175.137         136.470
   3958150.674 9   3088612.60346  23266890.732    23266890.6144   23266894.7754
     -2130.173       -1659.875
  -5521921.575 9  -4297588.45848  20113009.711    20113008.8044   20113012.8574
       -33.756         -26.303
 -14815556.082 9 -11307333.045 9  19736562.431    19736561.751    19736565.221
       242.474         188.941
 -21616311.819 9 -16823984.60748  20646020.152    20646019.3834   20646023.8024
      2320.477        1808.164
 96 10 10 17 22 29.9970000  0 10  1  9  6  3 22 23 26 17 28 21      -0.002505623
 -13369829.136 9 -10389446.64747  22474839.565    22474838.8544   22474844.3594
      4482.978        3493.230
  -7409327.473 8  -5754654.32145  23874814.827    23874814.3824   23874820.1934
      2900.567        2260.182
  13338127.761 8  10389710.28746  23187051.980    23187051.4244   23187056.7374
     -2847.576       -2218.890
 -19952717.824 9 -15529057.35547  21366929.623    21366929.0984   21366933.7124
      3164.531        2465.868
    756894.05117     42760.16154  23991975.599           0.0004          0.0005
     -1174.844        -915.463
  -8926715.457 9  -6946663.51448  20033976.915    20033975.9814   20033980.0844
       166.671         129.874
   4022215.806 9   3138533.43846  23279081.934    23279081.7954   23279085.9934
     -2140.528       -1667.944
  -5520749.753 9  -4296675.36048  20113232.738    20113231.7804   20113235.8664
       -44.262         -34.490
 -14822519.299 9 -11312758.936 9  19735237.369    19735236.715    19735240.181
       221.950         172.948
 -21685797.472 9 -16878129.25848  20632797.434    20632796.7034   20632801.1434
      2312.057        1801.603
 96 10 10 17 22 59.9970000  0 10  1  9  6  3 22 23 26 17 28 21      -0.002523765
 -13504238.929 9 -10494181.50847  22449262.394    22449261.5634   22449267.0424
      4477.632        3489.064
  -7496241.923 8  -5822379.81446  23858275.594    23858275.1504   23858280.7614
      2893.464        2254.647
  13423587.904 8  10456302.51645  23203314.531    23203313.9354   23203319.3364
     -2849.718       -2220.559
 -20047434.165 9 -15602862.28547  21348905.701    21348905.2164   21348909.7374
      3149.606        2454.238
    792191.32616     70349.13754  23998692.220           0.0004          0.0005
     -1178.502        -918.313
  -8931616.049 9  -6950482.15448  20033044.355    20033043.4674   20033047.5174
       159.707         124.447
   4086554.128 9   3188667.15946  23291325.149    23291325.0424   23291329.1354
     -2148.916       -1674.480
  -5519289.108 9  -4295537.20048  20113510.655    20113509.7314   20113513.8094
       -53.414         -41.621
 -14828896.406 9 -11317728.112 9  19734023.835    19734023.212    19734026.654
       202.958         158.149
 -21755062.525 9 -16932102.01248  20619616.685    20619616.0114   20619620.4184
      2305.280        1796.322
 96 10 10 17 23 29.9970000  0 10  1  9  6  3 22 23 26 17 28 21      -0.002541912
 -13638486.494 9 -10598789.95847  22423715.805    22423715.0354   22423720.5154
      4471.783        3484.506
  -7582929.431 8  -5889928.48645  23841779.844    23841778.9884   23841784.5354
      2885.230        2248.231
  13509116.795 8  10522948.33845  23219590.290    23219589.4384   23219595.0114
     -2852.850       -2223.000
 -20141686.717 9 -15676305.81847  21330970.059    21330969.6114   21330974.0004
      3133.351        2441.572
    827613.21116     13125.03752  24005432.799           0.0005          0.0005
     -1183.169        -921.950
  -8936285.263 9  -6954120.50048  20032155.889    20032155.0054   20032159.0094
       150.983         117.649
   4151155.139 9   3239005.56746  23303618.356    23303618.2434   23303622.2514
     -2158.556       -1681.992
  -5517537.037 9  -4294171.95748  20113844.009    20113843.1454   20113847.2284
       -64.054         -49.912
 -14834693.106 9 -11322245.029 9  19732920.761    19732920.131    19732923.596
       182.874         142.499
 -21824104.852 9 -16985901.20948  20606478.356    20606477.7124   20606482.0784
      2296.802        1789.716
 96 10 10 17 23 59.9970000  0 10  1  9  6  3 22 23 26 17 28 21      -0.002560062
 -13772584.359 9 -10703281.75047  22398197.902    22398197.1144   22398202.4984
      4467.901        3481.481
  -7669391.465 8  -5957301.44245  23825326.519    23825325.6384   23825331.3644
      2878.712        2243.152
  13594720.325 8  10589652.30245  23235880.298    23235879.4294   23235884.9634
     -2854.410       -2224.216
 -20235474.286 9 -15749387.03547  21313122.893    21313122.3844   21313126.7704
      3118.922        2430.329
    863163.36516     40853.52854  24012197.855           0.0004          0.0005
     -1186.754        -924.743
  -8940711.307 9  -6957569.37148  20031313.652    20031312.7574   20031316.7524
       143.716         111.986
   4216033.144 9   3289559.81446  23315964.247    23315964.1754   23315968.0984
     -2166.765       -1688.388
  -5515476.793 9  -4292566.58048  20114236.124    20114235.1934   20114239.2814
       -73.510         -57.281
 -14839905.101 9 -11326306.330 9  19731928.919    19731928.295    19731931.816
       164.363         128.075
 -21892900.374 9 -17039508.10248  20593387.110    20593386.3174   20593390.6574
      2289.232        1783.817
 96 10 10 17 24 29.9970000  0  9  1  9  6  3 23 26 17 28 21         -0.002578236
 -13906546.254 9 -10807667.60147  22372705.864    22372704.9984   22372710.3484
      4462.827        3477.528
  -7755630.167 8  -6024500.36945  23808915.557    23808914.8944   23808920.6234
      2870.662        2236.879
  13680395.322 8  10656411.96745  23252183.719    23252182.9184   23252188.4174
     -2857.168       -2226.365
 -20328805.679 9 -15822112.78347  21295362.460    21295361.9864   21295366.4094
      3103.125        2418.019
  -8944894.465 9  -6960828.97548  20030517.615    20030516.7304   20030520.7074
       135.119         105.288
   4281171.675 9   3340317.05746  23328359.712    23328359.6194   23328363.5974
     -2175.687       -1695.341
  -5513112.675 9  -4290724.42348  20114686.029    20114685.0694   20114689.1634
       -83.988         -65.445
 -14844540.094 9 -11329918.021 9  19731046.896    19731046.280    19731049.848
       144.608         112.681
 -21961432.545 9 -17092909.77848  20580345.858    20580345.0944   20580349.4314
      2279.581        1776.297
 96 10 10 17 24 59.9970000  0  9  1  9  6  3 23 26 17 28 21         -0.002596414
 -14040365.657 9 -10911942.40547  22347240.829    22347239.9184   22347245.4314
      4458.024        3473.785
  -7841635.530 8  -6091517.48145  23792549.058    23792548.6084   23792554.4364
      2862.709        2230.682
  13766132.911 8  10723220.38545  23268499.100    23268498.2864   23268504.0174
     -2859.384       -2228.091
 -20421670.149 9 -15894474.70447  21277690.878    21277690.3764   21277694.8384
      3087.371        2405.744
  -8948820.907 9  -6963888.54848  20029770.451    20029769.5604   20029773.5104
       126.145          98.295
   4346566.610 9   3391274.09446  23340804.120    23340803.8814   23340807.9524
     -2184.562       -1702.256
  -5510456.116 9  -4288654.38548  20115191.578    20115190.6244   20115194.7224
       -93.637         -72.964
 -14848592.919 9 -11333076.072 9  19730275.628    19730275.044    19730278.654
       125.044          97.437
 -22029685.843 9 -17146094.15548  20567357.658    20567356.8894   20567361.2114
      2270.116        1768.922
 96 10 10 17 25 29.9970000  0  9  1  9  6  3 23 26 17 28 21         -0.002614623
 -14174045.059 9 -11016108.12847  22321802.497    22321801.6144   22321807.0964
      4453.954        3470.614
  -7927421.378 8  -6158363.55145  23776224.657    23776224.2034   23776229.7664
      2856.457        2225.811
  13851956.226 8  10790095.61645  23284830.724    23284829.9864   23284835.5964
     -2862.194       -2230.281
 -20514067.188 9 -15966472.39847  21260108.175    21260107.7414   21260112.2674
      3072.593        2394.228
  -8952482.846 9  -6966742.01048  20029073.609    20029072.7214   20029076.6944
       118.252          92.144
   4412231.469 9   3442441.46746  23353299.785    23353299.5564   23353303.6414
     -2192.954       -1708.795
  -5507516.574 9  -4286363.83948  20115750.940    20115750.0234   20115754.0984
      -102.189         -79.628
 -14852060.445 9 -11335778.048 9  19729615.775    19729615.176    19729618.776
       106.194          82.749
 -22097655.797 9 -17199057.74448  20554423.298    20554422.6194   20554426.9544
      2261.472        1762.186
 96 10 10 17 25 59.9970000  0  9  1  9  6  3 23 26 17 28 21         -0.002632826
 -14307584.052 9 -11120164.44947  22296390.903    22296390.0434   22296395.5134
      4448.840        3466.629
  -8013012.007 8  -6225057.49345  23759937.159    23759936.8454   23759942.3994
      2849.840        2220.655
  13937877.827 8  10857047.43745  23301180.970    23301180.1624   23301185.9224
     -2865.342       -2232.734
 -20606017.598 9 -16038122.05147  21242610.613    21242610.1504   21242614.7224
      3057.740        2382.655
  -8955909.476 9  -6969412.11448  20028421.540    20028420.6714   20028424.6244
       110.636          86.210
   4478151.600 9   3493807.74346  23365844.093    23365843.7724   23365847.9254
     -2201.037       -1715.094
  -5504306.129 9  -4283862.20748  20116361.899    20116360.9704   20116365.0494
      -111.502         -86.885
 -14854949.661 9 -11338029.391 9  19729065.934    19729065.353    19729068.968
        86.820          67.652
 -22165360.354 9 -17251814.53248  20541539.584    20541538.8274   20541543.2104
      2252.649        1755.311
 96 10 10 17 26 29.9970000  0  9  1  9  6  3 23 26 17 28 21         -0.002651047
 -14440960.611 9 -11224094.17347  22271010.126    22271009.3054   22271014.7184
      4442.922        3462.017
  -8098400.543 8  -6291593.97745  23743688.363    23743687.8094   23743693.5514
      2842.834        2215.195
  14023884.831 8  10924065.79545  23317547.594    23317546.8874   23317552.5144
     -2868.237       -2234.990
 -20697519.896 9 -16109422.53348  21225198.385    21225197.8224   21225202.4574
      3042.444        2370.736
  -8959121.644 9  -6971915.10348  20027810.314    20027809.4164   20027813.3694
       103.692          80.799
   4544301.444 9   3545353.01946  23378432.107    23378431.6774   23378435.8064
     -2208.741       -1721.097
  -5500812.857 9  -4281140.18548  20117026.646    20117025.6784   20117029.7984
      -121.284         -94.507
 -14857258.664 9 -11339828.621 9  19728626.584    19728625.987    19728629.580
        67.188          52.354
 -22232801.473 9 -17304366.04148  20528705.867    20528705.1584   20528709.5974
      2243.787        1748.405
 96 10 10 17 26 59.9970000  0  9  1  9  6  3 23 26 17 28 21         -0.002669285
 -14574164.830 9 -11327889.63747  22245662.228    22245661.3544   22245666.7074
      4437.874        3458.084
  -8183579.836 8  -6357967.40245  23727479.361    23727478.8214   23727484.4054
      2836.308        2210.110
  14109966.650 8  10991142.46345  23333928.369    23333927.8994   23333933.3084
     -2870.034       -2236.390
 -20788569.877 9 -16180370.55847  21207872.022    21207871.5984   21207876.2344
      3027.987        2359.470
  -8962135.173 9  -6974263.31248  20027236.805    20027235.9324   20027239.8954
        97.729          76.152
   4610674.474 9   3597072.22846  23391062.382    23391062.1114   23391066.2754
     -2215.581       -1726.427
  -5497034.004 9  -4278195.63348  20117745.695    20117744.7664   20117748.8774
      -130.280        -101.517
 -14858986.648 9 -11341175.107 9  19728297.774    19728297.187    19728300.801
        48.451          37.754
 -22300002.532 9 -17356730.49248  20515917.995    20515917.2464   20515921.7014
      2236.792        1742.955
 96 10 10 17 27 29.9970000  0  9  1  9  6  3 23 26 17 28 21         -0.002687548
 -14707199.981 9 -11431553.34047  22220346.415    22220345.4984   22220350.8534
      4431.521        3453.133
  -8268556.696 8  -6424183.08846  23711308.851    23711308.2904   23711313.8434
      2829.173        2204.550
  14196109.643 8  11058266.79745  23350320.789    23350320.4474   23350325.9384
     -2872.213       -2238.088
 -20879172.793 9 -16250970.22848  21190630.909    21190630.3924   21190635.0294
      3012.703        2347.561
  -8964960.205 9  -6976464.63348  20026699.146    20026698.2894   20026702.3154
        90.929          70.854
   4677257.620 9   3648955.15746  23403732.790    23403732.5354   23403736.6204
     -2222.781       -1732.037
  -5492966.692 9  -4275026.30948  20118519.682    20118518.7824   20118522.9204
      -140.377        -109.385
 -14860138.785 9 -11342072.886 9  19728078.515    19728077.932    19728081.560
        28.769          22.417
 -22366980.152 9 -17408920.83048  20503172.510    20503171.8294   20503176.2564
      2228.814        1736.738
 96 10 10 17 27 59.9970000  0  9  1  9  6  3 23 26 17 28 21         -0.002705838
 -14840049.427 9 -11535072.34147  22195065.784    22195065.0164   22195070.3874
      4425.377        3448.346
  -8353316.523 8  -6490229.65945  23695179.447    23695178.9024   23695184.4714
      2821.521        2198.588
  14282293.686 8  11125423.10645  23366721.120    23366720.6844   23366726.2974
     -2873.106       -2238.784
 -20969324.815 9 -16321218.54448  21173475.597    21173475.0604   21173479.6424
      2997.507        2335.720
  -8967584.349 9  -6978509.42248  20026199.768    20026198.9224   20026202.9504
        84.170          65.587
   4744045.837 9   3700997.86846  23416442.230    23416441.9254   23416446.0864
     -2229.643       -1737.384
  -5488603.708 9  -4271626.59148  20119349.925    20119349.0404   20119353.2214
      -150.213        -117.049
 -14860709.655 9 -11342517.728 9  19727969.857    19727969.300    19727972.931
         9.510           7.410
 -22433724.995 9 -17460929.78948  20490471.554    20490470.7274   20490475.1044
      2220.972        1730.628
 96 10 10 17 28 29.9970000  0  9  1  9  6  3 23 26 17 28 21         -0.002724147
 -14972723.065 9 -11638454.34147  22169818.873    22169818.0774   22169823.3294
      4420.032        3444.181
  -8437836.470 8  -6556089.32145  23679095.733    23679095.1734   23679100.7334
      2813.571        2192.393
  14368505.207 8  11192600.84545  23383126.761    23383126.2994   23383131.9544
     -2873.995       -2239.477
 -21059012.332 9 -16391104.91348  21156408.570    21156408.1054   21156412.6724
      2982.133        2323.740
  -8970003.200 9  -6980394.24848  20025739.507    20025738.6654   20025742.6554
        77.364          60.284
   4811050.568 9   3753209.29446  23429192.902    23429192.5514   23429196.7624
     -2237.015       -1743.129
  -5483953.228 9  -4268002.85148  20120234.859    20120233.9924   20120238.1984
      -159.311        -124.138
 -14860701.802 9 -11342511.618 9  19727971.378    19727970.810    19727974.405
        -9.611          -7.489
 -22500240.389 9 -17512759.96048  20477814.031    20477813.2744   20477817.6294
      2213.827        1725.060
 96 10 10 17 28 59.9970000  0  9  1  9  6  3 23 26 17 28 21         -0.002742477
 -15105237.907 9 -11741712.64047  22144602.071    22144601.3104   22144606.5184
      4414.016        3439.493
  -8522111.431 8  -6621758.08145  23663058.873    23663058.0644   23663063.7264
      2804.596        2185.399
  14454750.002 8  11259804.51545  23399538.852    23399538.3394   23399543.9864
     -2876.040       -2241.070
 -21148241.694 9 -16460634.28848  21139428.840    21139428.3364   21139432.8854
      2966.237        2311.354
  -8972201.513 9  -6982107.21648  20025321.228    20025320.3774   20025324.3334
        68.944          53.723
   4878283.562 9   3805598.61046  23441986.972    23441986.6424   23441990.8154
     -2245.522       -1749.757
  -5479035.557 9  -4264170.90648  20121170.668    20121169.7804   20121173.9954
      -168.913        -131.620
 -14860122.145 9 -11342059.946 9  19728081.727    19728081.138    19728084.716
       -29.308         -22.837
 -22566544.859 9 -17564425.76948  20465196.649    20465195.9244   20465200.3094
      2206.067        1719.013
 96 10 10 17 29 29.9970000  0  9  1  9  6  3 23 26 17 28 21         -0.002760819
 -15237579.223 9 -11844835.69047  22119418.315    22119417.6064   22119422.8344
      4408.311        3435.048
  -8606131.962 8  -6687228.56945  23647070.264    23647069.4084   23647075.2714
      2796.284        2178.923
  14541055.124 8  11327055.16945  23415962.279    23415961.7514   23415967.1934
     -2878.158       -2242.720
 -21237001.863 9 -16529798.03848  21122538.278    21122537.8584   21122542.4264
      2950.717        2299.260
  -8974154.190 9  -6983628.78748  20024949.723    20024948.8054   20024952.7614
        61.069          47.586
   4945766.624 9   3858182.76346  23454828.549    23454828.2964   23454832.4574
     -2253.742       -1756.163
  -5473838.201 9  -4260121.02648  20122159.685    20122158.8074   20122163.0354
      -177.988        -138.692
 -14858960.620 9 -11341154.866 9  19728302.787    19728302.189    19728305.764
       -48.459         -37.760
 -22632618.321 9 -17615911.57648  20452623.233    20452622.5554   20452626.9024
      2198.552        1713.157
 96 10 10 17 29 59.9970000  0  9  1  9  6  3 23 26 17 28 21         -0.002779158
 -15369749.757 9 -11947825.67947  22094267.153    22094266.3794   22094271.6044
      4402.637        3430.626
  -8689889.193 8  -6752493.89545  23631131.732    23631130.8344   23631136.6334
      2787.179        2171.828
  14627436.297 8  11394365.09145  23432399.954    23432399.6094   23432405.0474
     -2880.961       -2244.905
 -21325286.241 9 -16598591.05248  21105738.405    21105737.9514   21105742.4254
      2934.385        2286.534
  -8975884.283 9  -6984976.90848  20024620.456    20024619.5874   20024623.5404
        53.988          42.069
   5013509.588 9   3910969.44246  23467719.547    23467719.4104   23467723.4794
     -2262.736       -1763.171
  -5468357.705 9  -4255850.51848  20123202.617    20123201.7244   20123205.9524
      -187.795        -146.334
 -14857224.830 9 -11339802.311 9  19728633.080    19728632.496    19728636.067
       -67.640         -52.706
 -22698472.334 9 -17667226.37948  20440091.714    20440090.9064   20440095.3074
      2191.214        1707.439
 96 10 10 17 30 29.9970000  0  9  1  9  6  3 23 26 17 28 21         -0.002797485
 -15501745.171 9 -12050679.21647  22069149.331    22069148.4934   22069153.6254
      4396.936        3426.184
  -8773381.025 8  -6817552.39045  23615243.770    23615242.9254   23615248.3894
      2779.226        2165.631
  14713904.090 8  11461742.49445  23448854.144    23448853.8914   23448859.5634
     -2883.443       -2246.839
 -21413079.548 9 -16667001.41748  21089031.874    21089031.4214   21089035.9104
      2918.648        2274.271
  -8977409.238 9  -6986165.18948  20024330.228    20024329.3754   20024333.3594
        47.653          37.132
   5081514.492 9   3963960.22846  23480660.597    23480660.3754   23480664.4164
     -2270.670       -1769.353
  -5462582.123 9  -4251350.08148  20124301.661    20124300.7674   20124305.0104
      -197.323        -153.758
 -14854916.215 9 -11338003.400 9  19729072.388    19729071.828    19729075.374
       -86.232         -67.194
 -22764109.740 9 -17718372.40448  20427601.291    20427600.5744   20427604.9074
      2184.482        1702.194
 96 10 10 17 30 59.9970000  0  9  1  9  6  3 23 26 17 28 21         -0.002815804
 -15633535.127 9 -12153372.64647  22044070.436    22044069.6594   22044074.8754
      4389.821        3420.640
  -8856610.148 8  -6882406.20245  23599405.628    23599404.9104   23599410.3494
      2770.449        2158.791
  14800465.279 8  11529192.67445  23465326.218    23465325.9544   23465331.6294
     -2886.442       -2249.176
 -21500380.848 9 -16735028.38948  21072419.019    21072418.5784   21072423.0254
      2902.146        2261.412
  -8978716.807 9  -6987184.07748  20024081.485    20024080.5964   20024084.5574
        40.414          31.491
   5149772.978 9   4017148.61346  23493649.783    23493649.5624   23493653.5834
     -2279.035       -1775.871
  -5456490.245 9  -4246603.16748  20125460.926    20125460.0394   20125464.2654
      -208.058        -162.123
 -14852031.291 9 -11335755.416 9  19729621.400    19729620.838    19729624.339
      -105.332         -82.077
 -22829511.020 9 -17769334.42748  20415155.853    20415155.1274   20415159.4524
      2176.345        1695.853
 96 10 10 17 31 29.9970000  0  9  1  9  6  3 23 26 17 28 21         -0.002834113
 -15765106.908 9 -12255896.08147  22019033.096    22019032.3784   22019037.5724
      4381.438        3414.108
  -8939588.787 8  -6947064.83245  23583615.334    23583614.5264   23583620.0914
      2761.226        2151.605
  14887111.042 8  11596708.76345  23481814.461    23481814.2724   23481819.7874
     -2889.997       -2251.946
 -21587188.128 9 -16802670.41748  21055900.194    21055899.6624   21055904.1734
      2884.806        2247.901
  -8979818.856 9  -6988042.82148  20023871.748    20023870.8984   20023874.8404
        32.907          25.642
   5218276.732 9   4070528.10446  23506685.774    23506685.4794   23506689.4724
     -2287.905       -1782.783
  -5450073.643 9  -4241603.23548  20126682.009    20126681.1424   20126685.3104
      -219.857        -171.317
 -14848572.978 9 -11333060.638 9  19730279.515    19730278.944    19730282.460
      -125.389         -97.706
 -22894666.069 9 -17820104.58248  20402757.252    20402756.5684   20402760.8524
      2167.114        1688.660
 96 10 10 17 31 59.9970000  0  9  1  9  6  3 23 26 17 28 21         -0.002852422
 -15896455.163 9 -12358245.32147  21994038.129    21994037.4914   21994042.8064
      4374.527        3408.722
  -9022312.255 8  -7011524.62846  23567873.635    23567872.8244   23567878.4454
      2753.093        2145.267
  14973819.912 8  11664274.01945  23498314.968    23498314.4134   23498320.0344
     -2891.212       -2252.892
 -21673504.758 9 -16869930.11548  21039474.536    21039474.0764   21039478.6414
      2868.955        2235.549
  -8980727.251 9  -6988750.66148  20023698.942    20023698.0694   20023701.9804
        26.801          20.884
   5287007.413 9   4124084.42746  23519764.850    23519764.4834   23519768.6524
     -2294.586       -1787.989
  -5443332.491 9  -4236350.39848  20127964.898    20127963.9694   20127968.1174
      -230.061        -179.268
 -14844543.034 9 -11329920.433 9  19731046.379    19731045.808    19731049.347
      -143.955        -112.173
 -22959572.052 9 -17870680.66648  20390406.105    20390405.3634   20390409.6754
      2159.161        1682.463
 96 10 10 17 32 29.9970000  0  9  1  9  6  3 23 26 17 28 21         -0.002870742
 -16027574.281 9 -12460416.03647  21969086.990    21969086.3994   21969091.5454
      4366.890        3402.771
  -9104782.093 8  -7075786.78846  23552180.119    23552179.3104   23552184.9774
      2744.922        2138.900
  15060571.658 8  11731872.66445  23514823.527    23514822.8554   23514828.5384
     -2892.287       -2253.730
 -21759335.795 9 -16936811.44448  21023141.481    21023140.9684   21023145.5424
      2853.178        2223.256
  -8981428.456 9  -6989297.06048  20023565.518    20023564.6304   20023568.5454
        19.939          15.537
   5355937.455 9   4177796.08646  23532881.727    23532881.4014   23532885.6574
     -2300.711       -1792.762
  -5436275.534 9  -4230851.48348  20129307.783    20129306.8754   20129311.0174
      -240.373        -187.304
 -14839941.395 9 -11326334.751 9  19731922.049    19731921.458    19731924.979
      -162.786        -126.846
 -23024219.386 9 -17921055.20248  20378104.088    20378103.3674   20378107.7244
      2150.814        1675.959
 96 10 10 17 32 59.9970000  0  9  1  9  6  3 23 26 17 28 21         -0.002889078
 -16158462.662 9 -12562406.94347  21944179.886    21944179.2124   21944184.2424
      4359.387        3396.925
  -9186991.129 8  -7139845.73446  23536536.266    23536535.5604   23536541.0584
      2735.963        2131.919
  15147373.404 8  11799510.28845  23531341.752    23531340.8504   23531346.6854
     -2894.249       -2255.259
 -21844682.437 9 -17003315.31648  21006900.513    21006899.9814   21006904.6324
      2836.704        2210.419
  -8981907.671 9  -6989670.48148  20023474.327    20023473.4604   20023477.3744
        12.359           9.630
   5425063.697 9   4231660.65046  23546036.114    23546035.7444   23546040.0344
     -2307.422       -1797.991
  -5428903.817 9  -4225107.29748  20130710.564    20130709.6644   20130713.8384
      -250.700        -195.351
 -14834763.816 9 -11322300.293 9  19732907.335    19732906.732    19732910.236
      -182.157        -141.941
 -23088603.837 9 -17971224.90248  20365852.101    20365851.3974   20365855.7044
      2141.717        1668.870
 96 10 10 17 33 29.9970000  0  9  1  9  6  3 23 26 17 28 21         -0.002907428
 -16289144.219 9 -12664236.68647  21919311.999    21919311.3334   21919316.3034
      4353.107        3392.031
  -9268942.257 8  -7203703.71846  23520941.396    23520940.7734   23520946.1904
      2727.608        2125.409
  15234219.693 8  11867182.61345  23547868.135    23547867.2664   23547872.9844
     -2895.237       -2256.029
 -21929536.100 9 -17069435.04548  20990753.319    20990752.8454   20990757.4724
      2820.429        2197.737
  -8982178.011 9  -6989881.13948  20023422.930    20023422.0404   20023425.9364
         5.945           4.632
   5494379.345 9   4285672.79946  23559226.496    23559226.1744   23559230.3534
     -2313.158       -1802.461
  -5421240.935 9  -4219136.22948  20132168.758    20132167.8774   20132172.0604
      -259.864        -202.491
 -14829012.970 9 -11317819.123 9  19734001.738    19734001.122    19734004.587
      -200.918        -156.559
 -23152730.869 9 -18021194.00148  20353649.172    20353648.4324   20353652.7744
      2133.730        1662.647
 96 10 10 17 33 59.9970000  0  9  1  9  6  3 23 26 17 28 21         -0.002925791
 -16419634.023 9 -12765917.00547  21894480.541    21894479.8854   21894484.8984
      4346.392        3386.799
  -9350623.996 9  -7267351.79446  23505397.841    23505397.0834   23505402.5894
      2718.059        2117.968
  15321109.466 8  11934888.81145  23564402.826    23564401.9304   23564407.6934
     -2897.307       -2257.642
 -22013880.700 9 -17135158.11348  20974703.147    20974702.5494   20974707.2204
      2802.678        2183.905
  -8982244.566 9  -6989933.00948  20023410.313    20023409.4064   20023413.2754
        -1.450          -1.130
   5563869.850 9   4339821.19446  23572450.034    23572449.8014   23572454.0124
     -2319.421       -1807.341
  -5413289.680 9  -4212940.45448  20133681.862    20133680.9564   20133685.1454
      -270.092        -210.461
 -14822687.183 9 -11312889.954 9  19735205.508    19735204.875    19735208.367
      -220.650        -171.935
 -23216603.870 9 -18070965.16648  20341494.610    20341493.8334   20341498.0954
      2124.689        1655.602
 96 10 10 17 34 29.9970000  0  9  1  9  6  3 23 26 17 28 21         -0.002944160
 -16549927.048 9 -12867444.00747  21869686.645    21869685.9134   21869690.8824
      4339.709        3381.591
  -9432036.810 9  -7330790.29946  23489905.585    23489904.9504   23489910.1854
      2709.364        2111.193
  15408056.368 8  12002639.54545  23580948.327    23580947.3604   23580953.1164
     -2899.206       -2259.122
 -22097700.390 9 -17200472.14148  20958752.676    20958752.2124   20958756.8724
      2785.240        2170.317
  -8982097.546 9  -6989818.45048  20023438.258    20023437.3794   20023441.2274
        -8.481          -6.609
   5633543.125 9   4394112.00746  23585708.378    23585708.1834   23585712.4674
     -2325.739       -1812.264
  -5405042.020 9  -4206513.71348  20135251.402    20135250.4584   20135254.6254
      -279.911        -218.112
 -14815781.412 9 -11307508.845 9  19736519.573    19736518.967    19736522.488
      -239.835        -186.884
 -23280222.062 9 -18120537.78148  20329388.465    20329387.6954   20329391.9714
      2116.490        1649.213
 96 10 10 17 34 59.9970000  0  9  1  9  6  3 23 26 17 28 21         -0.002962538
 -16680032.250 9 -12968824.65647  21844928.346    21844927.6674   21844932.6034
      4333.521        3376.770
  -9513189.769 8  -7394026.32646  23474462.745    23474461.9504   23474467.3034
      2700.522        2104.303
  15495051.360 8  12070427.71745  23597503.183    23597502.0074   23597507.9694
     -2900.450       -2260.091
 -22181004.714 9 -17265384.60048  20942900.361    20942899.8924   20942904.5334
      2768.113        2156.971
  -8981740.632 9  -6989540.34548  20023506.178    20023505.2774   20023509.1634
       -15.460         -12.047
   5703411.175 9   4448554.60646  23599003.731    23599003.6664   23599007.9564
     -2332.431       -1817.479
  -5396506.400 9  -4199862.58848  20136875.762    20136874.7614   20136878.8984
      -289.489        -225.576
 -14808305.977 9 -11301683.845 9  19737942.114    19737941.507    19737945.034
      -258.784        -201.650
 -23343598.332 9 -18169921.87448  20317328.344    20317327.5794   20317331.8834
      2108.385        1642.897
 96 10 10 17 35 29.9970000  0  9  1  9  6  3 23 26 17 28 21         -0.002980924
 -16809936.582 9 -13070048.75047  21820208.433    21820207.6814   21820212.5594
      4325.983        3370.896
  -9594073.295 8  -7457052.41746  23459070.889    23459070.3134   23459075.4814
      2690.990        2096.875
  15582078.748 8  12138241.15445  23614064.134    23614063.0504   23614068.7024
     -2902.016       -2261.311
 -22263795.755 9 -17329897.09848  20927145.928    20927145.3394   20927149.9044
      2750.777        2143.463
  -8981176.474 9  -6989100.74748  20023613.485    20023612.6074   20023616.5224
       -22.907         -17.850
   5773482.632 9   4503155.69446  23612337.917    23612337.8984   23612342.1784
     -2339.661       -1823.112
  -5387669.395 9  -4192976.61748  20138557.368    20138556.3814   20138560.5364
      -300.469        -234.132
 -14800257.950 9 -11295412.667 9  19739473.621    19739472.989    19739476.518
      -278.321        -216.874
 -23406743.227 9 -18219125.68548  20305312.289    20305311.4554   20305315.7714
      2100.699        1636.908
 96 10 10 17 35 59.9970000  0  9  1  9  6  3 23 26 17 28 21         -0.002999315
 -16939620.398 9 -13171101.04947  21795530.405    21795529.6144   21795534.4854
      4319.171        3365.588
  -9674685.683 8  -7519867.23846  23443730.795    23443730.1714   23443735.3764
      2682.707        2090.421
  15669130.459 8  12206073.52645  23630629.518    23630628.4894   23630634.2644
     -2901.816       -2261.155
 -22346096.957 9 -17394027.90248  20911484.407    20911483.9854   20911488.4884
      2735.570        2131.613
  -8980400.518 9  -6988496.11248  20023761.124    20023760.2764   20023764.1924
       -29.253         -22.794
   5843760.543 9   4557917.64446  23625711.383    23625711.4224   23625715.7624
     -2345.900       -1827.974
  -5378511.349 9  -4185840.48848  20140300.045    20140299.1044   20140303.2684
      -310.358        -241.837
 -14791645.558 9 -11288701.728 9  19741112.434    19741111.840    19741115.439
      -296.185        -230.794
 -23469679.929 9 -18268167.26548  20293335.738    20293334.9614   20293339.3094
      2094.626        1632.176
 96 10 10 17 36 29.9970000  0  9  1  9  6  3 23 26 17 28 21         -0.003017744
 -17069064.744 9 -13271966.72147  21770897.868    21770897.1234   21770902.0424
      4310.609        3358.916
  -9755021.599 8  -7582466.62646  23428443.100    23428442.6914   23428447.8214
      2672.966        2082.831
  15756202.991 8  12273922.12345  23647198.778    23647198.0684   23647203.8434
     -2902.939       -2262.030
 -22427922.793 9 -17457788.28748  20895913.651    20895913.0334   20895917.5724
      2719.438        2119.043
  -8979404.238 9  -6987719.79648  20023950.754    20023949.8624   20023953.7934
       -37.108         -28.915
   5914266.701 9   4612857.45146  23639128.382    23639128.2434   23639132.6214
     -2354.343       -1834.553
  -5369032.869 9  -4178454.66448  20142103.704    20142102.7964   20142106.9844
      -321.415        -250.453
 -14782473.692 9 -11281554.830 9  19742857.729    19742857.163    19742860.775
      -315.268        -245.663
 -23532412.607 9 -18317049.85948  20281398.115    20281397.3494   20281401.6704
      2087.420        1626.561
 96 10 10 17 36 59.9960000  0  9  1  9  6  3 23 26 17 28 21         -0.003036184
 -17198263.565 9 -13372641.09347  21746312.087    21746311.3934   21746316.2654
      4303.112        3353.074
  -9835061.719 9  -7644835.50846  23413211.890    23413211.5274   23413216.5514
      2663.520        2075.470
  15843295.069 8  12341785.94045  23663771.920    23663771.2444   23663777.0154
     -2903.137       -2262.185
 -22509268.343 9 -17521174.42148  20880433.914    20880433.5034   20880438.0064
      2703.933        2106.961
  -8978183.895 9  -6986768.88248  20024182.983    20024182.1184   20024186.0264
       -43.860         -34.177
   5985008.985 9   4667981.25746  23652590.424    23652589.9724   23652594.3674
     -2361.427       -1840.073
  -5359231.860 9  -4170817.52248  20143968.756    20143967.8744   20143972.0804
      -331.770        -258.522
 -14772738.286 9 -11273968.808 9  19744710.331    19744709.776    19744713.388
      -333.522        -259.887
 -23594929.489 9 -18365764.30548  20269501.518    20269500.7754   20269505.0884
      2080.828        1621.424
 96 10 10 17 37 29.9960000  0  9  1  9  6  3 23 26 17 28 21         -0.003054631
 -17327219.481 9 -13473126.19247  21721772.659    21721771.8694   21721776.6774
      4294.713        3346.530
  -9914802.478 9  -7706971.13546  23398037.855    23398037.3554   23398042.3564
      2653.212        2067.438
  15930428.289 8  12409681.84345  23680352.954    23680352.2664   23680357.9494
     -2905.152       -2263.755
 -22590123.053 9 -17584178.09748  20865047.954    20865047.4074   20865051.8854
      2686.956        2093.732
  -8976742.190 9  -6985645.47948  20024457.353    20024456.4894   20024460.3894
       -51.526         -40.150
   6055977.201 9   4723281.11846  23666095.467    23666094.8834   23666099.1264
     -2369.023       -1845.992
  -5349102.981 9  -4162924.90048  20145896.171    20145895.3434   20145899.5384
      -342.739        -267.069
 -14762434.655 9 -11265940.021 9  19746671.118    19746670.515    19746674.120
      -352.728        -274.853
 -23657233.529 9 -18414312.89948  20257645.432    20257644.7104   20257649.0314
      2073.265        1615.531
 96 10 10 17 37 59.9960000  0  9  1  9  6  3 23 26 17 28 21         -0.003073078
 -17455934.394 9 -13573423.48647  21697279.008    21697278.1914   21697283.0764
      4287.129        3340.620
  -9994233.215 9  -7768865.16846  23382922.833    23382922.2064   23382927.1734
      2643.002        2059.482
  16017608.263 8  12477614.12945  23696942.834    23696942.0614   23696948.0174
     -2906.110       -2264.501
 -22670464.106 9 -17646781.50248  20849759.551    20849759.0514   20849763.4934
      2669.734        2080.312
  -8975085.500 9  -6984354.55648  20024772.634    20024771.7314   20024775.6354
       -57.984         -45.182
   6127164.000 9   4778751.30246  23679641.977    23679641.3864   23679645.6154
     -2375.835       -1851.300
  -5338658.980 9  -4154786.72548  20147883.567    20147882.7694   20147886.9914
      -352.544        -274.710
 -14751561.406 9 -11257467.369 9  19748740.225    19748739.643    19748743.270
      -371.393        -289.397
 -23719296.883 9 -18462673.94848  20245835.144    20245834.4554   20245838.7594
      2065.020        1609.106
 96 10 10 17 38 29.9960000  0 10  1  9  6  3 31 23 26 17 28 21      -0.003091526
 -17584437.168 9 -13673555.47847  21672825.564    21672824.8204   21672829.7464
      4279.966        3335.038
 -10073372.202 8  -7830531.87946  23367863.237    23367862.5374   23367867.5804
      2633.034        2051.715
  16104807.933 8  12545561.82645  23713536.517    23713535.6054   23713541.5074
     -2907.028       -2265.217
 -22750289.365 9 -17708983.00448  20834569.321    20834568.8334   20834573.2204
      2652.040        2066.525
   -307814.10218   -223229.44755  23887317.831           0.0005          0.0005
      4189.493        3264.540
  -8973254.420 9  -6982927.74448  20025120.981    20025120.1684   20025124.0834
       -63.887         -49.782
   6198536.839 9   4834366.45046  23693223.678    23693223.1394   23693227.5244
     -2382.074       -1856.162
  -5327936.931 9  -4146431.89248  20149923.931    20149923.1034   20149927.3304
      -362.111        -282.164
 -14740137.411 9 -11248565.567 9  19750914.167    19750913.600    19750917.196
      -390.098        -303.972
 -23781122.560 9 -18510849.79048  20234070.074    20234069.3974   20234073.7194
      2056.812        1602.711
 96 10 10 17 38 59.9960000  0 10  1  9  6  3 31 23 26 17 28 21      -0.003109982
 -17712745.146 9 -13773535.68747  21648409.243    21648408.5614   21648413.5464
      4273.594        3330.073
 -10152224.445 9  -7891975.14546  23352857.984    23352857.4834   23352862.5394
      2623.751        2044.481
  16192013.824 8  12613514.33645  23730131.280    23730130.5014   23730136.4734
     -2906.845       -2265.074
 -22829586.668 9 -17770773.10448  20819479.447    20819479.0264   20819483.4274
      2634.287        2052.691
   -433418.249 8   -321102.66355  23863415.865           0.0005   23863421.0395
      4183.712        3260.035
  -8971267.297 9  -6981379.34148  20025499.176    20025498.3294   20025502.2234
       -68.684         -53.520
   6270071.368 9   4890107.60046  23706836.239    23706835.8544   23706840.0994
     -2386.992       -1859.994
  -5316937.488 9  -4137860.90448  20152017.099    20152016.2434   20152020.4694
      -371.307        -289.330
 -14728166.525 9 -11239237.617 9  19753192.169    19753191.587    19753195.193
      -408.060        -317.969
 -23842711.556 9 -18558841.21448  20222350.094    20222349.4004   20222353.6944
      2049.076        1596.683
 96 10 10 17 39 29.9960000  0 10  1  9  6  3 31 23 26 17 28 21      -0.003128432
 -17840836.423 9 -13873347.04147  21624034.295    21624033.6094   21624038.4574
      4266.245        3324.347
 -10230783.501 8  -7953189.94846  23337908.623    23337908.2464   23337913.2044
      2613.866        2036.779
  16279213.690 8  12681462.15845  23746724.931    23746724.1704   23746730.3074
     -2906.295       -2264.645
 -22908338.150 9 -17832137.88748  20804493.487    20804493.0564   20804497.5034
      2616.202        2038.599
   -558817.218 8   -418816.16945  23839553.063    23839554.4365   23839558.3624
      4176.310        3254.268
  -8969119.414 9  -6979705.66848  20025907.920    20025907.0774   20025910.9334
       -74.143         -57.774
   6341768.069 9   4945975.10146  23720479.632    23720479.4334   23720483.5464
     -2392.446       -1864.244
  -5305649.529 9  -4129065.10048  20154165.140    20154164.2644   20154168.5034
      -380.828        -296.749
 -14715641.837 9 -11229478.128 9  19755575.564    19755574.971    19755578.585
      -426.514        -332.349
 -23904051.475 9 -18606638.54748  20210677.487    20210676.7884   20210681.0994
      2040.637        1590.107
 96 10 10 17 39 59.9960000  0 10  1  9  6  3 31 23 26 17 28 21      -0.003146871
 -17968697.979 9 -13972979.39447  21599703.041    21599702.3594   21599707.1684
      4258.356        3318.199
 -10309036.419 9  -8014166.22346  23323017.700    23323017.1144   23323022.1984
      2603.777        2028.917
  16366398.034 8  12749397.89745  23763315.513    23763315.0074   23763320.7614
     -2905.608       -2264.110
 -22986542.872 9 -17893076.62448  20789611.593    20789611.2404   20789615.6684
      2597.966        2024.389
   -683965.770 8   -516334.51545  23815739.251    23815739.8224   23815743.2004
      4167.414        3247.336
  -8966804.880 9  -6977902.14448  20026348.360    20026347.5344   20026351.3784
       -79.774         -62.162
   6413640.227 9   5001979.32946  23734156.641    23734156.2304   23734160.5354
     -2398.354       -1868.847
  -5294063.113 9  -4120036.72848  20156369.957    20156369.1154   20156373.3514
      -390.936        -304.625
 -14702557.455 9 -11219282.520 9  19758065.416    19758064.860    19758068.462
      -445.163        -346.880
 -23965132.611 9 -18654234.22948  20199054.089    20199053.4154   20199057.7144
      2032.117        1583.468
 96 10 10 17 40 29.9960000  0 10  1  9  6  3 31 23 26 17 28 21      -0.003165311
 -18096324.630 9 -14072428.70247  21575416.476    21575415.8054   21575420.5524
      4250.209        3311.851
 -10386995.880 8  -8074913.81546  23308182.545    23308181.8774   23308187.0364
      2593.699        2021.064
  16453567.478 8  12817322.00545  23779903.430    23779902.9244   23779908.7534
     -2905.627       -2264.125
 -23064207.673 9 -17953594.65348  20774832.566    20774832.1274   20774836.5844
      2580.051        2010.429
   -808855.804 8   -613651.42945  23791973.848    23791974.0074   23791977.0834
      4158.764        3240.595
  -8964314.145 9  -6975961.32148  20026822.389    20026821.5194   20026825.3734
       -86.150         -67.130
   6485683.957 9   5058117.23946  23747866.100    23747865.8504   23747870.0674
     -2404.358       -1873.526
  -5282174.288 9  -4110772.72148  20158632.375    20158631.4964   20158635.7214
      -401.460        -312.826
 -14688921.209 9 -11208656.887 9  19760660.345    19760659.788    19760663.357
      -463.730        -361.348
 -24025971.975 9 -18701641.52348  20187476.767    20187476.0794   20187480.3424
      2023.991        1577.136
 96 10 10 17 40 59.9960000  0 10  1  9  6  3 31 23 26 17 28 21      -0.003183767
 -18223713.552 9 -14171692.77247  21551175.113    21551174.5224   21551179.1884
      4242.069        3305.508
 -10464664.231 8  -8135434.57746  23293402.437    23293401.9554   23293407.1514
      2583.990        2013.499
  16540726.870 8  12885238.26145  23796489.169    23796488.7554   23796494.8654
     -2905.382       -2263.934
 -23141352.342 9 -18013707.36848  20760152.371    20760151.9704   20760156.4584
      2562.781        1996.972
   -933496.936 8   -710774.39245  23768255.391    23768255.3294   23768259.0544
      4150.330        3234.023
  -8961640.588 9  -6973878.03148  20027331.125    20027330.2834   20027334.1554
       -92.332         -71.947
   6557892.502 9   5114383.57746  23761606.977    23761606.6174   23761610.9034
     -2409.651       -1877.650
  -5269980.412 9  -4101271.01348  20160952.751    20160951.9384   20160956.1584
      -411.561        -320.697
 -14674741.926 9 -11197608.104 9  19763358.640    19763358.036    19763361.592
      -481.752        -375.391
 -24086575.087 9 -18748864.71348  20175944.390    20175943.6964   20175947.9544
      2016.104        1570.990
 96 10 10 17 41 29.9960000  0 10  1  9  6  3 31 23 26 17 28 21      -0.003202240
 -18350850.229 9 -14270760.27647  21526981.784    21526981.1754   21526985.8464
      4233.786        3299.054
 -10542043.000 9  -8195729.69746  23278677.750    23278677.3174   23278682.3614
      2574.472        2006.082
  16627894.124 8  12953160.66645  23813076.907    23813076.4214   23813082.0984
     -2905.918       -2264.352
 -23217988.988 9 -18073424.23848  20745568.823    20745568.5044   20745573.0174
      2546.297        1984.128
  -1057874.482 8   -807691.96945  23744587.010    23744586.9494   23744590.9414
      4141.589        3227.212
  -8958771.865 9  -6971642.67748  20027877.032    20027876.1714   20027880.0564
       -98.864         -77.037
   6630259.776 8   5170773.61146  23775377.859    23775377.5894   23775381.9634
     -2414.922       -1881.757
  -5257491.911 9  -4091539.72148  20163329.190    20163328.3944   20163332.6404
      -421.022        -328.069
 -14660020.948 9 -11186137.226 9  19766159.915    19766159.351    19766162.888
      -499.653        -389.340
 -24146944.713 9 -18795905.97548  20164456.484    20164455.7774   20164459.9954
      2008.611        1565.151
 96 10 10 17 41 59.9960000  0 10  1  9  6  3 31 23 26 17 28 21      -0.003220731
 -18477728.165 9 -14369626.16947  21502837.741    21502837.1094   21502841.7574
      4224.302        3291.664
 -10619114.026 9  -8255785.01046  23264011.692    23264011.0674   23264016.2174
      2563.265        1997.349
  16715102.465 8  13021115.02345  23829672.065    23829671.5874   23829677.4334
     -2908.249       -2266.168
 -23294116.247 9 -18132744.17748  20731082.415    20731081.9624   20731086.4904
      2528.318        1970.118
  -1181984.164 8   -904400.81145  23720969.691    23720969.4014   23720973.6874
      4132.243        3219.930
  -8955697.550 9  -6969247.11148  20028462.051    20028461.2124   20028465.0964
      -106.447         -82.946
   6702793.199 9   5227293.10546  23789180.489    23789180.3234   23789184.6044
     -2421.093       -1886.566
  -5244698.734 9  -4081571.02148  20165763.703    20165762.8644   20165767.0994
      -432.247        -336.816
 -14644748.196 9 -11174236.394 9  19769066.218    19769065.647    19769069.192
      -518.926        -404.358
 -24207073.650 9 -18842759.67748  20153014.308    20153013.5954   20153017.8284
      1999.529        1558.075
 96 10 10 17 42 29.9960000  0 10  1  9  6  3 31 23 26 17 28 21      -0.003239240
 -18604347.448 9 -14468290.51447  21478742.882    21478742.1974   21478746.8444
      4216.196        3285.348
 -10695867.224 9  -8315592.66346  23249406.052    23249405.4884   23249410.4874
      2552.842        1989.228
  16802352.165 8  13089101.66945  23846275.151    23846274.8034   23846280.3774
     -2908.888       -2266.666
 -23369725.972 9 -18191660.84548  20716694.327    20716693.8884   20716698.4524
      2511.532        1957.038
  -1305858.255 8  -1000926.06645  23697397.342    23697396.7434   23697401.2344
      4125.296        3214.516
  -8952422.427 9  -6966695.06548  20029085.281    20029084.4584   20029088.3424
      -112.679         -87.802
   6775487.923 8   5283938.28646  23803014.018    23803013.7354   23803018.0904
     -2425.963       -1890.361
  -5231592.664 9  -4071358.51348  20168257.754    20168256.8714   20168261.1124
      -442.335        -344.677
 -14628923.328 9 -11161905.341 9  19772077.615    19772077.048    19772080.536
      -536.888        -418.354
 -24266950.468 9 -18889416.93848  20141620.102    20141619.4254   20141623.6464
      1991.540        1551.849
 96 10 10 17 42 59.9960000  0 10  1  9  6  3 31 23 26 17 28 21      -0.003257766
 -18730711.724 9 -14566756.16347  21454696.614    21454695.8734   21454700.5104
      4207.087        3278.250
 -10772293.000 9  -8375145.18946  23234862.610    23234862.2384   23234867.0754
      2541.414        1980.322
  16889623.579 8  13157105.21845  23862882.181    23862882.0354   23862887.8834
     -2910.133       -2267.636
 -23444812.293 9 -18250169.66548  20702405.775    20702405.4504   20702409.9664
      2492.994        1942.593
  -1429507.038 8  -1097275.77545  23673867.843    23673867.3464   23673871.6444
      4116.763        3207.867
  -8948954.658 9  -6963992.91248  20029745.211    20029744.3634   20029748.2384
      -119.646         -93.231
   6848327.970 9   5340696.71846  23816875.054    23816874.7784   23816879.1704
     -2431.191       -1894.435
  -5218172.196 9  -4060901.01548  20170811.532    20170810.6934   20170814.9444
      -453.433        -353.324
 -14612549.561 9 -11149146.577 9  19775193.420    19775192.862    19775196.364
      -555.786        -433.080
 -24326580.104 9 -18935881.57648  20130272.925    20130272.2714   20130276.5314
      1982.739        1544.991
 96 10 10 17 43 29.9960000  0 10  1  9  6  3 31 23 26 17 28 21      -0.003276306
 -18856830.171 9 -14665030.24247  21430696.962    21430696.2794   21430700.9514
      4199.590        3272.408
 -10848393.154 9  -8434444.00546  23220381.355    23220380.7604   23220385.6724
      2530.633        1971.922
  16976897.030 8  13225110.36745  23879489.828    23879489.7174   23879495.5924
     -2909.109       -2266.838
 -23519359.589 9 -18308258.46048  20688220.014    20688219.6284   20688224.0894
      2475.659        1929.085
  -1552912.917 8  -1193436.18645  23650384.507    23650383.9624   23650388.3784
      4109.132        3201.921
  -8945300.815 9  -6961145.76448  20030440.463    20030439.6724   20030443.5594
      -124.980         -97.387
   6921309.808 9   5397565.62246  23830763.072    23830762.7204   23830767.2354
     -2435.423       -1897.732
  -5204434.931 9  -4050196.66548  20173425.612    20173424.8024   20173429.0714
      -463.710        -361.332
 -14595629.742 9 -11135962.310 9  19778413.200    19778412.616    19778416.114
      -573.393        -446.800
 -24385973.676 9 -18982162.26648  20118970.697    20118970.0394   20118974.2984
      1975.561        1539.398
 96 10 10 17 43 59.9960000  0 10  1  9  6  3 31 23 26 17 28 21      -0.003294852
 -18982706.986 9 -14763116.04547  21406743.530    21406742.7754   21406747.3954
      4192.132        3266.596
 -10924150.112 9  -8493475.38346  23205965.290    23205964.8374   23205969.5734
      2519.752        1963.443
  17064148.363 8  13293098.26145  23896093.498    23896092.9664   23896099.1834
     -2907.512       -2265.594
 -23593365.674 9 -18365925.53748  20674137.076    20674136.7634   20674141.1784
      2457.983        1915.311
  -1676082.731 8  -1289412.65045  23626946.177    23626945.5744   23626949.9994
      4101.962        3196.334
  -8941487.152 9  -6958174.08648  20031166.195    20031165.3884   20031169.2824
      -129.293        -100.748
   6994435.766 9   5454546.82646  23844678.591    23844678.0994   23844682.8084
     -2439.631       -1901.011
  -5190360.921 9  -4039229.91648  20176103.792    20176102.9944   20176107.2484
      -474.522        -369.757
 -14578168.844 9 -11122356.433 9  19781735.837    19781735.273    19781738.819
      -590.712        -460.295
 -24445135.814 9 -19028262.63448  20107712.508    20107711.8374   20107716.0704
      1968.585        1533.962
 96 10 10 17 44 29.9960000  0 10  1  9  6  3 31 23 26 17 28 21      -0.003313400
 -19108339.208 9 -14861011.26347  21382836.498    21382835.8154   21382840.3414
      4183.926        3260.202
 -10999574.294 9  -8552247.45846  23191612.588    23191612.1954   23191616.8754
      2509.209        1955.228
  17151362.416 8  13361057.11245  23912690.140    23912689.2394   23912695.6474
     -2906.151       -2264.533
 -23666826.008 9 -18423167.35548  20660158.096    20660157.7144   20660162.1064
      2440.083        1901.363
  -1799014.746 8  -1385203.81045  23603552.660    23603552.3254   23603556.9034
      4093.948        3190.089
  -8937527.349 9  -6955088.53248  20031919.743    20031918.9194   20031922.8064
      -134.246        -104.607
   7067702.270 9   5511637.55346  23858620.808    23858620.2964   23858624.9844
     -2444.215       -1904.583
  -5175949.764 9  -4028000.45348  20178846.161    20178845.3624   20178849.6344
      -485.481        -378.297
 -14560175.258 9 -11108335.467 9  19785159.888    19785159.350    19785162.905
      -608.270        -473.977
 -24504084.532 9 -19074196.68548  20096494.958    20096494.2884   20096498.5094
      1962.027        1528.852
 96 10 10 17 44 59.9960000  0 10  1  9  6  3 31 23 26 17 28 21      -0.003331902
 -19233711.031 9 -14958703.58047  21358979.066    21358978.3744   21358982.8744
      4175.180        3253.387
 -11074677.750 9  -8610769.63546  23177320.775    23177320.3634   23177325.0894
      2498.634        1946.988
  17238546.142 8  13428992.34945  23929280.562    23929279.7954   23929286.6434
     -2905.147       -2263.751
 -23739749.669 9 -18479990.98448  20646281.155    20646280.7944   20646285.1554
      2422.565        1887.713
  -1921681.404 8  -1480788.22945  23580209.889    23580209.4394   23580214.2474
      4084.885        3183.027
  -8933408.940 9  -6951879.39048  20032703.449    20032702.6554   20032706.5124
      -139.329        -108.568
   7141113.925 9   5568841.39546  23872590.654    23872590.1604   23872594.7884
     -2449.091       -1908.383
  -5161212.036 9  -4016516.52748  20181650.694    20181649.8914   20181654.1604
      -496.026        -386.514
 -14541647.195 9 -11093898.034 9  19788685.653    19788685.108    19788688.690
      -625.926        -487.735
 -24562828.990 9 -19119971.58248  20085316.273    20085315.6254   20085319.8304
      1955.219        1523.547
 96 10 10 17 45 29.9960000  0 10  1  9  6  3 31 23 26 17 28 21      -0.003350445
 -19358812.595 9 -15056185.29347  21335172.925    21335172.2604   21335176.7424
      4164.752        3245.261
 -11149452.038 8  -8669035.30746  23163091.570    23163091.1614   23163095.9174
      2486.224        1937.317
  17325702.003 8  13496905.86445  23945865.917    23945865.2414   23945872.0354
     -2905.356       -2263.914
 -23812157.578 9 -18536412.72748  20632502.346    20632501.9774   20632506.3674
      2404.504        1873.639
  -2044085.101 8  -1576167.72545  23556917.121    23556916.6164   23556921.5304
      4075.273        3175.537
  -8929132.549 9  -6948547.14348  20033517.272    20033516.4404   20033520.2544
      -145.805        -113.614
   7214682.471 9   5626167.47946  23886590.199    23886589.7854   23886594.5014
     -2455.546       -1913.412
  -5146153.418 9  -4004782.54748  20184516.296    20184515.4964   20184519.7244
      -507.827        -395.709
 -14522586.327 9 -11079045.423 9  19792312.817    19792312.277    19792315.863
      -644.857        -502.486
 -24621367.628 9 -19165586.09748  20074176.753    20074176.0584   20074180.2974
      1947.162        1517.269
 96 10 10 17 45 59.9960000  0 10  1  9  6  3 31 23 26 17 28 21      -0.003369054
 -19483626.495 9 -15153442.85247  21311421.526    21311420.8894   21311425.4044
      4155.502        3238.053
 -11223892.749 9  -8727041.03846  23148925.817    23148925.5674   23148930.3904
      2475.917        1929.286
  17412836.782 8  13564802.93645  23962447.156    23962446.7054   23962453.4334
     -2904.285       -2263.079
 -23884052.420 9 -18592434.68448  20618821.188    20618820.8274   20618825.2234
      2387.751        1860.585
  -2166242.877 8  -1671355.59345  23533671.308    23533670.8324   23533675.8714
      4067.631        3169.582
  -8924686.330 9  -6945082.56048  20034363.347    20034362.5374   20034366.3404
      -151.540        -118.083
   7288416.160 9   5683622.24746  23900621.147    23900620.8384   23900625.6084
     -2460.671       -1917.406
  -5130784.563 9  -3992806.82948  20187440.882    20187440.1224   20187444.3524
      -517.336        -403.119
 -14502992.056 9 -11063777.179 9  19796041.448    19796040.942    19796044.526
      -662.170        -515.977
 -24679694.367 9 -19211035.50348  20063077.523    20063076.8424   20063081.0654
      1940.474        1512.058
 96 10 10 17 46 29.9960000  0 10  1  9  6  3 31 23 26 17 28 21      -0.003387630
 -19608141.683 9 -15250467.66147  21287727.018    21287726.4514   21287730.9754
      4145.696        3230.412
 -11298014.672 9  -8784798.37046  23134820.849    23134820.5764   23134825.4054
      2465.674        1921.304
  17499956.030 8  13632687.87945  23979025.424    23979024.9424   23979031.8444
     -2903.311       -2262.320
 -23955428.887 9 -18648052.70648  20605238.776    20605238.3344   20605242.7474
      2370.902        1847.456
  -2288147.701 8  -1766346.35945  23510473.768    23510473.2004   23510478.0594
      4059.277        3163.073
  -8920027.891 9  -6941452.61548  20035249.814    20035248.9844   20035252.8264
      -158.904        -123.821
   7362322.981 9   5741211.92446  23914685.154    23914684.9034   23914689.7094
     -2466.051       -1921.598
  -5115121.251 9  -3980601.66648  20190421.574    20190420.7874   20190425.0144
      -526.682        -410.401
 -14482859.791 9 -11048089.717 9  19799872.528    19799872.010    19799875.581
      -679.871        -529.770
 -24737798.733 9 -19256311.62448  20052020.604    20052019.9414   20052024.1974
      1933.161        1506.359
 96 10 10 17 46 59.9960000  0 10  1  9  6  3 31 23 26 17 28 21      -0.003406242
 -19732367.915 9 -15347267.28847  21264087.583    21264086.9924   21264091.5064
      4136.124        3222.954
 -11371820.066 9  -8842309.05546  23120775.989    23120775.8814   23120780.8014
      2454.635        1912.703
  17587040.372 8  13700545.64345  23995597.199    23995596.5164   23995603.5214
     -2902.114       -2261.388
 -24026301.977 9 -18703278.48748  20591752.013    20591751.6174   20591756.0364
      2353.810        1834.138
  -2409801.675 8  -1861141.64845  23487323.802    23487323.3424   23487328.2674
      4050.810        3156.475
  -8915148.009 9  -6937650.11648  20036178.420    20036177.5464   20036181.4604
      -166.193        -129.501
   7436380.801 9   5798919.26746  23928777.975    23928777.6314   23928782.5024
     -2471.060       -1925.501
  -5099185.478 9  -3968184.19748  20193454.054    20193453.2454   20193457.4774
      -535.845        -417.542
 -14462199.118 9 -11031990.510 9  19803804.155    19803803.644    19803807.177
      -697.488        -543.497
 -24795676.185 9 -19301410.93148  20041006.924    20041006.2324   20041010.4714
      1925.398        1500.310
 96 10 10 17 47 29.9960000  0 10  1  9  6  3 31 23 26 17 28 21      -0.003424885
 -19856315.850 9 -15443850.07147  21240501.251    21240500.5044   21240505.0194
      4127.149        3215.960
 -11445297.763 9  -8899564.38746  23106793.632    23106793.4484   23106798.4274
      2444.069        1904.469
  17674082.753 8  13768370.75045  24012160.936    24012160.0624   24012167.2534
     -2900.657       -2260.252
 -24096651.806 9 -18758096.53348  20578364.799    20578364.4564   20578368.8814
      2336.123        1820.356
  -2531201.691 9  -1955739.04645  23464222.203    23464221.7144   23464226.8274
      4042.416        3149.935
  -8910056.151 9  -6933682.44148  20037147.361    20037146.5014   20037150.4134
      -173.074        -134.863
   7510586.945 9   5856742.18346  23942899.007    23942898.6184   23942903.3954
     -2475.871       -1929.250
  -5082970.649 9  -3955549.27448  20196539.595    20196538.8114   20196543.0514
      -545.088        -424.744
 -14441014.638 9 -11015483.139 9  19807835.488    19807834.924    19807838.489
      -714.740        -556.940
 -24853332.027 9 -19346337.55448  20030035.379    20030034.6824   20030038.9124
      1918.356        1494.823
 96 10 10 17 47 59.9960000  0  9  1  9  3 31 23 26 17 28 21         -0.003443557
 -19979984.147 9 -15540214.96347  21216968.023    21216967.2404   21216971.6934
      4117.773        3208.654
 -11518448.089 9  -8956564.62346  23092873.757    23092873.3814   23092878.4014
      2432.801        1895.689
 -24166452.185 9 -18812486.44348  20565082.285    20565081.8984   20565086.3384
      2317.516        1805.857
  -2652330.061 9  -2050124.79845  23441172.344    23441171.7404   23441176.7274
      4033.046        3142.633
  -8904743.372 9  -6929542.62448  20038158.396    20038157.5324   20038161.4074
      -180.635        -140.755
   7584935.362 8   5914675.95045  23957047.211    23957046.7184   23957051.5924
     -2480.288       -1932.692
  -5066465.831 9  -3942688.38448  20199680.375    20199679.5884   20199683.8034
      -555.045        -432.502
 -14419298.780 9 -10998561.706 9  19811967.839    19811967.304    19811970.896
      -732.647        -570.894
 -24910760.967 9 -19391087.37448  20019107.030    20019106.3004   20019110.5184
      1910.576        1488.761
 96 10 10 17 48 29.9960000  0  9  1  9  3 31 23 26 17 28 21         -0.003462242
 -20103368.661 9 -15636358.72047  21193488.544    21193487.8344   21193492.4034
      4108.314        3201.284
 -11591251.033 9  -9013294.15846  23079019.937    23079019.4674   23079024.3604
      2420.921        1886.432
 -24235686.677 9 -18866435.39748  20551907.411    20551907.0474   20551911.4674
      2298.470        1791.015
  -2773161.130 9  -2144278.86345  23418179.193    23418178.5134   23418183.0814
      4022.701        3134.572
  -8899214.861 9  -6925234.70348  20039210.473    20039209.6104   20039213.4734
      -187.295        -145.944
   7659408.436 8   5972706.84946  23971218.784    23971218.4244   23971223.3614
     -2484.117       -1935.676
  -5049652.058 9  -3929586.76248  20202880.011    20202879.1684   20202883.4064
      -565.511        -440.658
 -14397043.067 9 -10981219.610 9  19816202.972    19816202.459    19816206.064
      -750.630        -584.906
 -24967953.556 9 -19435653.02748  20008223.643    20008222.8924   20008227.1254
      1902.775        1482.682
 96 10 10 17 48 59.9960000  0  9  1  9  3 31 23 26 17 28 21         -0.003480931
 -20226486.874 9 -15732294.95747  21170059.818    21170059.2044   21170063.8024
      4099.382        3194.324
 -11663700.322 9  -9069748.13646  23065233.291    23065232.7074   23065237.6804
      2408.775        1876.968
 -24304355.770 9 -18919943.77948  20538840.150    20538839.7764   20538844.1704
      2279.113        1775.932
  -2893698.960 8  -2238204.44545  23395241.579    23395241.0094   23395245.5224
      4012.891        3126.928
  -8893519.012 9  -6920796.38948  20040294.391    20040293.5114   20040297.3534
      -192.619        -150.093
   7733978.885 8   6030813.62345  23985408.983    23985408.7364   23985413.7464
     -2487.544       -1938.346
  -5032541.640 9  -3916253.97448  20206136.030    20206135.1864   20206139.4374
      -575.636        -448.548
 -14374264.965 9 -10963470.453 9  19820537.544    19820537.027    19820540.637
      -768.106        -598.524
 -25024934.203 9 -19480053.52348  19997380.515    19997379.7974   19997384.0674
      1895.705        1477.173
 96 10 10 17 49 29.9960000  0  9  1  9  3 31 23 26 17 28 21         -0.003499617
 -20349339.940 9 -15828024.59947  21146681.558    21146680.9774   21146685.6094
      4090.438        3187.354
 -11735790.966 9  -9125922.61446  23051515.095    23051514.3744   23051519.2734
      2396.926        1867.735
 -24372443.869 9 -18972999.43848  20525883.562    20525883.1394   20525887.4174
      2259.805        1760.887
  -3013950.384 8  -2331906.82245  23372358.520    23372357.8194   23372362.6704
      4003.532        3119.635
  -8887673.052 9  -6916241.10248  20041406.832    20041405.9514   20041409.8014
      -197.597        -153.972
   7808652.220 8   6089000.53945  23999618.850    23999618.7024   23999623.6624
     -2490.931       -1940.985
  -5015117.680 9  -3902676.87448  20209451.680    20209450.8364   20209455.1204
      -586.253        -456.821
 -14350966.519 9 -10945315.834 9  19824971.118    19824970.578    19824974.220
      -785.467        -612.052
 -25081706.661 9 -19524291.79948  19986577.084    19986576.3794   19986580.5944
      1888.607        1471.642
